भारतीय प्रौद्योगिकी संस्थान ( भारतीय खनि विद्यापीठ ) धनबाद

INDIAN INSTITUTE OF TECHNOLOGY ( INDIAN SCHOOL OF MINES) DHANBAD

उत्तिष्ठत जाग्रत प्राप्य वरान्निबोधत

TENDER ARCHIVE INFORMATION PAGE

Wed, Jun 28th, 2017 21:05:58 IST

Tender Number Category Brief Requirement Last Date and Time unixtimestamp
Maint/958064/17-18 Civil Repair/replacement of broken aluminium window shutter glass panes, mirror, curtain rod sets, health faucet, shower rose at EDC IIT (ISM) Campus 28/06/2017 15:00 1498588200
Maint/958067/17-18 Civil Roof treatment work at Old EDC Building (Ten Years Guarantee) 28/06/2017 15:00 1498588200
Maint/958068/17-18 Civil Construction of approach road and gate at 33 KVA Sub-stationin IIT (ISM) 28/06/2017 15:00 1498588200
Corrigendum Maint/958370/16-17 Civil Repair/replacement of water supply sanitary fitting at V/flat 7,8,12,13,23 at UGC enclave 28/06/2017 15:00 1498588200
Corrigendum Maint/958384/16-17 Civil Stainless steel bonier (304) at volt room inside at Observatory at IIT (ISM) 28/06/2017 15:00 1498588200
CERE-500087-2017-18 Purchase Supply and Installation of Integrated Voltage & Current Source and Measurement Unit. 27/06/2017 01:00 1498501800
CERE-500088-17-18 Purchase Supply and Installation of Solar System Analyzer. 27/06/2017 01:00 1498501800
Hostel-500489-16-17 Purchase Supply and Installation of LCD Projector 26/06/2017 13:00 1498415400
IIIF/500095/17-18 Purchase Supply and Installation of Good Quality Magnetic White Board 23/06/2017 15:00 1498156200
ECE-500091-17-18 Purchase Supply and Installation of Workstation 23/06/2017 15:00 1498156200
CMU/500071/17-18 Purchase Supply of water supply items 23/06/2017 13:00 1498156200
CMU/500070/17-18 Purchase Supply of Sanitary Items 23/06/2017 13:00 1498156200
ESE-500053-17-18 Purchase Supply and Installation of UV-Vis Spectrophotometer 23/06/2017 13:00 1498156200
Hostel-500089-17-18 Purchase Supply of Dustbins 23/06/2017 13:00 1498156200
Hostel-500090-2017-18 Purchase Supply & Stitching of Curtain Cloths 23/06/2017 13:00 1498156200
M-500051-17-18 Purchase Supply and Installation of Workstation (Computer) 20/06/2017 13:00 1497897000
CMU/500069/17-18 Purchase Procurement of carpentry Items 20/06/2017 13:00 1497897000
ESE-500014-17-18 Purchase Supply and Installation of NET Radiometer with mandatory accessories 20/06/2017 03:00 1497897000
IIIF/500086/17-18 Purchase Supply and Installation of LED Smart TV 20/06/2017 03:00 1497897000
PE-500075-17-18 Purchase Supply and Installation of Mono Chrome Multi functional Device 20/06/2017 01:00 1497897000
Maint/958004/17-18 Civil Making RCC foundation for blowers in the premises of Workshop IIT(ISM) 19/06/2017 15:00 1497810600
Maint/958006/17-18 Civil Repair of maintenance work at Qrt. No. UGC/flat-17 19/06/2017 15:00 1497810600
Maint/958010/17-18 Civil Repair and maintenance work at UGC/enclave flat/16 19/06/2017 15:00 1497810600
Maint/958012/17-18 Civil Repair & painting work at porch and adjoing walls at New EDC Building 19/06/2017 15:00 1497810600
Maint/958014/17-18 Civil White washing, distempering & painting work in the Qrt. No. B/9-127, B/9-122 at GRS 19/06/2017 15:00 1497810600
CC/500043/17-18 Purchase Supply, installation, commissioning and testing of wired and wireless LAN facility at New Girls Hostel on turnkey basis 19/06/2017 13:00 1497810600
CC/500043/17-18 (Revised) Purchase Supply, installation, commissioning and testing of wired and wireless LAN facility at New Girls Hostel on turnkey basis 19/06/2017 01:00 1497810600
App Math-500047-17-18 Purchase Supply and Installation of Desktop Computer (All in One) 16/06/2017 15:00 1497551400
M-500013-17-18 Purchase Supply and Installation of P Wave 16/06/2017 15:00 1497551400
Corrigendum ECE-500550-2016-17 Purchase Supply and Installation of Programmable Intelligent End Devices and Optical Components. 16/06/2017 03:00 1497551400
Maint/958397/16-17 Civil Minor civil repair/replacement work at UGC/flat-28 14/06/2017 15:00 1497378600
Maint/958403/16-17 Civil Repair/replacement work at Bungalow No. 149 at IIT(ISM) Campus 14/06/2017 15:00 1497378600
Maint/958405/16-17 Civil Shifting of heavy weight machine & fixing of Inauguration stone at Heritage Building (1st floor) at ME Department 14/06/2017 15:00 1497378600
Maint/958396/16-17 Civil Minor civil repair/replacement work at New Petroleum 1st floor bathroom 14/06/2017 15:00 1497378600
Maint/958155/16-17 Civil Erection of aluminium partition of ground floor NLHC for creating Network Infrastructure 14/06/2017 15:00 1497378600
ESE-500048-17-18 Purchase Supply and Installation of Water cooler cum purifier. 13/06/2017 15:00 1497292200
Maint/958039/17-18 Civil Repair/maintenance work of damaged outside wall chajja etc at Ruby Hostel-1 13/06/2017 15:00 1497292200
Maint/958050/17-18 Civil Minor civil repair/replacement work at SAC,EDC,C/37,GJLT, PH-1 & New Building at IIT (ISM) 13/06/2017 15:00 1497292200
IIIF/500064/17-18 Purchase Supply & Installation of 10 KVA Online Rack Mountable UPS 13/06/2017 03:00 1497292200
ECE-500073-17-18 Purchase Supply and Installation of Printed Circuit Board Prototyping Machine 13/06/2017 03:00 1497292200
W-500061-17-18 Purchase Labour Charges for the Fabrication of study table - 800 Nos 13/06/2017 01:00 1497292200
MME-500058-17-18 Purchase Supply and Installation of Hydraulic Test setup 13/06/2017 01:00 1497292200
MME-500057-17-18 Purchase Supply Installation of setup for Static VAR compensating device of 3- phase Induction Motor with variable Loading Arrangement 13/06/2017 01:00 1497292200
Hostel-500068-17-18 Purchase Supply and Installation of All in one Computer (02 Nos) Printer (01 Nos) 13/06/2017 01:00 1497292200
Hostel-500042-17-18 Purchase Supply the Neck Tie with IIT ISM Logo 13/06/2017 01:00 1497292200
Hostel-500067-17-18 (Corrigendum) Purchase Supply and Installation of Water Cooler Cum purifier 13/06/2017 01:00 1497292200
Hostel-500067-17-18 ( Revised) Purchase Supply and Installation of Water Cooler cum Purifier 13/06/2017 01:00 1497292200
Maint/958002/17-18 Civil Constriction of masonry plaster and supplying of good earth at New Garden in FME Department 09/06/2017 15:00 1496946600
Maint/958033/17-18 Civil Providing and fixing G.I. pipe for gardening near Post Office, Old LMO Residence in the Garden 09/06/2017 15:00 1496946600
Maint/958037/17-18 Civil Repair and painting work at Room No. 14 to 23 at EDC Building 09/06/2017 15:00 1496946600
Maint/958040/17-18 Civil Repair/replacement of G.I. pipe line brass gate valve etc at Ruby Hostel 1&2 09/06/2017 15:00 1496946600
Maint/958058/17-18 Civil Repair & re-construction of boundary wall 33 KV Sub-station 09/06/2017 15:00 1496946600
CE-500546-2016-17 REMINDER Purchase Supply and Installation of Double Acting hydraulic Jack for Push and Pull Application 09/06/2017 03:00 1496946600
Horticulture-500026-17-18 Purchase Supply and Installation of Laptop 09/06/2017 01:00 1496946600
Hostel-500038-17-18 Purchase Supply and Installation of 10 KVA Online Rack Mountable UPS 09/06/2017 01:00 1496946600
W-500060-17-18 Purchase Supply of MS Square Pipes, Welding Rod, Buffer and Stainless Steel Screw 09/06/2017 01:00 1496946600
Hostel-500054-17-18 Purchase Purchase of 551 Door -latch Locks 09/06/2017 01:00 1496946600
Hostel-500059-17-18 Purchase Supply and Installation of Mike System 09/06/2017 01:00 1496946600
Hostel-500059-17-18 Revised Purchase Supply and Installation of Mike System 09/06/2017 01:00 1496946600
Maint/958056/17-18 Civil Annual repair and maintenance work outside building of qrt. No. E/1-20 at Teachers Colony IIT (ISM) Campus 07/06/2017 15:00 1496773800
Maint/958001/17-18 Civil Replacement of rolling shutter steel glazed window and repair of roof at Coller Room at GJLT Hall 07/06/2017 15:00 1496773800
Maint/958003/17-18 Civil Repair of windows polishing of door shutter & cupboards and painting of rooms wall inside of SAH (New Building) 07/06/2017 15:00 1496773800
Maint/958035/17-18 Civil Miscellaneous repair work at 33 KV Power Supply station at IIT (ISM) 07/06/2017 15:00 1496773800
Maint/958053/17-18 Civil Sinking of deep tube well near bamboo garden behind Seismology Observatory at IIT (ISM) Campus 07/06/2017 15:00 1496773800
Maint/958062/17-18 Civil Re-surfacing of road from gate no. 1 to 2 and towards subway at 150 Qrts GR Side IIT (ISM) 07/06/2017 15:00 1496773800
EE-500036-17-18 Purchase Supply and Installation of Split AC 1.5 ton with suitable Stabiliser 06/06/2017 01:00 1496687400
INST(Store)/500041/17-18 Purchase Supply of Xerox Paper 06/06/2017 01:00 1496687400
W-500062-17-18 Purchase Supply of Block Ply Board, Teak Bead, Plywood and Laminate 06/06/2017 01:00 1496687400
Hostel-500089-17-18 Purchase Supply of Dustbins 05/06/2017 17:47 1496601000
Maint/952029/17-18 Electrical Earthing of angle of cable trench from Jasper Hostel to 33/11kV Substation near Topaz Hostel. 05/06/2017 15:00 1496601000
Maint/952030/17-18 Electrical Lowering, lifting & replacement of flat cable of 7.5 HP Pump at Staff Colony, repairing of 10 HP Monosump motor for Sump near Emerald Hostel, repairing of 15 HP Monoblock motor of sump at Academic Complex, repairing of starter for 20 HP Monoblock motor at 05/06/2017 15:00 1496601000
Mech-500528/16-17 (Corrigendum) Purchase Supply and Installation of Controller of Spindle 02/06/2017 01:00 1496341800
Mech-500527-16-17 (Corrigendum) Purchase Supply and Installation of Spindle 02/06/2017 01:00 1496341800
DSW/Students-Insurance/2017-18 Miscellaneous NIT for Student Insurance policy for the academic year 2017-18 31/05/2017 15:00 1496169000
IIIF-500032-17-18 Purchase Supply and Installation of Laptop at IIT(ISM) Institute Interaction Facility, New Delhi. 30/05/2017 13:00 1496082600
HC/500511/16-17 Purchase Supply & Installation of Dental Chair with X-ray (Extended Last date of bid submission:- 30.05.2017) 30/05/2017 13:00 1496082600
Maint/958041/17-18 Civil Repair and maintenance work at Qrt. No. C2/17, II/65,C/42,II/72 29/05/2017 15:00 1495996200
Maint/958049/17-18 Civil Repair/re-flooring and maintenance work at vacant Qrt. No. UGC/13 29/05/2017 15:00 1495996200
Maint/958390/16-17 Civil Fixing of 4 no aluminium glazed window in DST-FIST Laboratory 6th floor in Academic Complex 29/05/2017 15:00 1495996200
Maint/952016/17-18 Electrical Supply of 15 nos. 2V, 120Ah Battery with connectors and Battery stand with buyback of old Batteries. 26/05/2017 15:00 1495737000
AGL-500535-16-17 Purchase Supply and Installation of Polarizing Microscope with Accessories. 26/05/2017 03:00 1495737000
EE-500034-17-18 Purchase Supply and Installation of Printed Circuit Board (PCB) Prototype Making Machne 26/05/2017 01:00 1495737000
700081/CA/Work/2017-18 Miscellaneous TENDER NOTICE FOR SUPPLY OF SKILLED /SEMI-SKILLED/ UNSKILLED WORKERS FOR VARIOUS SERVICES at IIT(ISM), Dhanbad 25/05/2017 18:39 1495650600
Maint/952023/17-18 Electrical Replacement of defective light fittings, ceiling fans, exhaust fans etc. at Jasper Hostel. 24/05/2017 15:00 1495564200
Maint/952024/17-18 Electrical Replacement of defective lamps, ballast etc. at Jasper Hostel. 24/05/2017 15:00 1495564200
Maint/952025/17-18 Electrical Annual electrical repair & maintenance of Diamond Hostel. 24/05/2017 15:00 1495564200
Maint/952026/17-18 Electrical Annual electrical repair & maintenance of Opal and Opal Annexe Hostel. 24/05/2017 15:00 1495564200
Maint/952027/17-18 Electrical Annual electrical repair & maintenance of Ruby-1, 2 and Ruby Annexe-1. 24/05/2017 15:00 1495564200
Maint/952017/17-18 Electrical Annual electrical repair & maintenance of Sapphire Hostel. 23/05/2017 15:00 1495477800
Maint/952018/17-18 Electrical Annual electrical repair & maintenance of Topaz Hostel. 23/05/2017 15:00 1495477800
Maint/952019/17-18 Electrical Annual electrical repair & maintenance of Amber Hostel. 23/05/2017 15:00 1495477800
Maint/952020/17-18 Electrical Replacement of defective globe light by 1 X 36/40W tube light fittings at Amber Hostel. 23/05/2017 15:00 1495477800
Maint/952021/17-18 Electrical Annual electrical repair & maintenance of Emerald Hostel. 23/05/2017 15:00 1495477800
Maint/952022/17-18 Electrical Annual electrical repair & maintenance of Jasper Hostel. 23/05/2017 15:00 1495477800
INST/500025/17-18 Purchase Printing & Supply of Plastic Folder 23/05/2017 13:00 1495477800
CE-500512-2016-17 Corrgendum Purchase Extension of last date for submission and opening of bids for supply and installation of 8- Channel Computerized Data Transmitter System (to be interfaced with Pneumatic Actuator System) 23/05/2017 03:00 1495477800
Maint/952007/17-18 Electrical Procurement of electrical items for Day-to- Day Maintenance. 22/05/2017 15:00 1495391400
Maint/958333/16-17 Civil Repair of M.S. rolling shutter and rain shed (one no.) and other necessary repair work at Long wall Training Gallery 22/05/2017 15:00 1495391400
Maint/958358/16-17 Civil Repair & replacement of pipe line and other necessary repair work at ME Department 22/05/2017 15:00 1495391400
Maint/958370/16-17 Civil Repair/replacement of water supply sanitary fitting at V/flat 7,8,12,13,23 at UGC enclave 22/05/2017 15:00 1495391400
Maint/958379/16-17 Civil Distempering & painting work in the Qrt. No. V/flat-28 UGC enclave 22/05/2017 15:00 1495391400
Maint/958384/16-17 Civil Stainless steel bonier (304) at volt room inside at Observatory at IIT (ISM) 22/05/2017 15:00 1495391400
App Math-500549-2016-17 Purchase Supply & Installation of Workstation 19/05/2017 15:00 1495132200
Maint/952008/17-18 Electrical Repairing of street lights/flood lights/garden lights at Sports Complex, Upper and Lower Ground, Sports Complex, Scolomin Club, SAH, Jasper Hostel, Amber Hostel, Ruby Hostels, 150 Type –IV Qtrs., Herritage Canteen and other places inside IIT(ISM) Campus. 19/05/2017 15:00 1495132200
Maint/952009/17-18 Electrical Annual rate contract (ARC) for Air conditioners (ACs ) and water coolers. 19/05/2017 15:00 1495132200
Maint/952010/17-18 Electrical Repairing of defective cable supplying power to MES guard Barrack, Staff Colony, Jasper Hostel, Heritage Canteen, Oval Garden, Parking area behind the Science Block and Workshop, laying of cable at Admin Block, Lower Ground, EDC, near Rosaline Hostel, lay 19/05/2017 15:00 1495132200
Maint/952012/17-18 Electrical Repairing of defective cable supplying power to Petroleum Engineering, SAC to Swimming Pool. 19/05/2017 15:00 1495132200
Maint/952013/17-18 Electrical Earthing for Main Technology Lab and Power Electronics lab at MME Dept. 19/05/2017 15:00 1495132200
Maint/958013/17-18 Civil Providing and fixing aluminium wire mesh window shutter of 2nd and 3rd floor of International Hostel at IIT (ISM) Campus 19/05/2017 15:00 1495132200
Maint/958027/17-18 Civil A/R & maintenance work (Inside) at Jasper Hostel 19/05/2017 15:00 1495132200
Maint/958341/16-17 Civil Repair work for seepage problem in warden office and replacement of kota at kitchen at Amber Hostel 17/05/2017 15:00 1494959400
Maint/958367/16-17 Civil Repair & re-construction of outside walls of IIT (ISM) near bamboo garden 17/05/2017 15:00 1494959400
Maint/958377/16-17 Civil Demolishing of cement concrete from Electric Pole in front of New Library Building 17/05/2017 15:00 1494959400
Maint/958383/16-17 Civil Distempering painting and repair/replacement work at vacant Qrt. No. B/II-73, C/33, N/G-18 17/05/2017 15:00 1494959400
Maint/958398/16-17 Civil Minor civil repair/replacement work at Qrt. No. 119 (W) out house 17/05/2017 15:00 1494959400
Maint/958005/17-18 Civil Repair work and painting of C.V.Raman Hall Porch side and drivers room at EDC Building 16/05/2017 15:00 1494873000
Maint/958028/17-18 Civil Repair & painting of 10 nos room at New EDC Building 16/05/2017 15:00 1494873000
Maint/958263/16-17 Civil Construction of drain outside boundary wall at Workshop 16/05/2017 15:00 1494873000
Maint/958400/16-17 Civil Minor civil repair/replacement work Rosaline Hostel, II/15, Drivers Rest Room (Vee/6) 16/05/2017 15:00 1494873000
Maint/958401/16-17 Civil Minor civil repair work at Children Park at Campus 16/05/2017 15:00 1494873000
H-500030-2017-18 Purchase Supply & Installation of Water Cooler cum RO Purifier with installation 16/05/2017 03:00 1494873000
App Chem/500016/17-18 Purchase Supply & Installation of Ice Flaker Machine. 16/05/2017 03:00 1494873000
Maint/958026/17-18 Civil A/R & maintenance (Inside) at Amber Hostel 12/05/2017 15:00 1494527400
Maint/958029/17-18 Civil A/R & maintenance work (Inside) at Ruby Hostel-I,II & Annexe -1 at IIT (ISM) Campus 12/05/2017 15:00 1494527400
Maint/958031/17-18 Civil A/R & maintenance work at Opal Hostel and old R.S. Hostel at IIT (ISM) Campus 12/05/2017 15:00 1494527400
Maint/952079/16-17 Electrical Electrical renovation of Organic/Inorganic Lab at the Dept. of Applied Chemistry. 12/05/2017 15:00 1494527400
Maint/958247/16-17 Civil A/R & maintenance work (Outside) of ME & MME Building 12/05/2017 15:00 1494527400
Maint/958381/16-17 Civil Repair and maintenance work (20 Nos Qrt.) of Inside rooms at Teacher’s Apartment IIT (ISM) Campus 12/05/2017 15:00 1494527400
Maint/958399/16-17 Civil Supplying commissioning of fountain in part of EDC Building 12/05/2017 15:00 1494527400
EE-500490-16-17 corrigendum Purchase Extension of date for submission of bids for supply and Installation of Complete experimental setup for real time monitoring, Control and protection power system 12/05/2017 01:00 1494527400
M-500485-16-17 Purchase Supply and Installation of High Speed Digital Video Camera with accessories and Advanced Motion Analysis Software for use in rock blasting 09/05/2017 15:00 1494268200
M-500485-16-17 Purchase Supply and Installation of High Speed Digital Video Camera with accessories and Advanced Motion Analysis Software for use in rock blasting 09/05/2017 15:00 1494268200
CC/500377/16-17 Purchase Expression of Interest For Appointment of an Agency for Design, Site preparation, Supply, Installation, Testing, Commissioning, Operations and Maintenance of Basic Infrastructure for 5 years for the establishment of a Computer Centre with HPC facility at 09/05/2017 13:00 1494268200
Maint/958015/17-18 Civil A/R & maintenance work (Inside) at Emerald Hostel 05/05/2017 15:00 1493922600
Maint/958016/17-18 Civil A/R & maintenance work (Inside) at Topaz Hostel 05/05/2017 15:00 1493922600
Maint/958019/17-18 Civil A/R & maintenance work (Inside) at Sapphire Hostel 05/05/2017 15:00 1493922600
Maint/958023/17-18 Civil A/R & maintenance work (Inside) at Diamond Hostel 05/05/2017 15:00 1493922600
INST/500478/16-17 Purchase Printing and Supply of Answer Book 05/05/2017 13:00 1493922600
INST/500478/16-17 (Corrigendum) Purchase Printing and Supply of Answer Book 05/05/2017 13:00 1493922600
ECE-500550-2016-17 Purchase Supply and Installation of Programmable Intelligent End Devices and Optical Components. 05/05/2017 03:00 1493922600
INST-LIVERIES-500027-17-18 Purchase Supply of White Terri Cotton Cloth and Khaki Terri Cotton Cloth, Cloth for Woolen Buttoned-up-Coat and Pant and Jersey(Sweater). 05/05/2017 01:00 1493922600
W-500020-17-18 Purchase Supply of MS Angle, MS pipes and MS Flat 05/05/2017 01:00 1493922600
Mech-500024-17-18 Purchase Supply and Installation of Procure of Stage and controller with Standard acessories 05/05/2017 01:00 1493922600
MME-500004-17-18 Purchase Supply and Installation of Digital Signal control Through on/off ov-12v, Cartridge for 10Ltr and 20 Ltr accumulators 05/05/2017 01:00 1493922600
W-500021-17-18 Purchase Labour Chatges for the Fabrication of Coats Resoline Hostel-300 Non 05/05/2017 01:00 1493922600
M-500484-16-17 Purchase Supply and installation of Seismograph and Advanced Vibration Data Analysis Software 02/05/2017 15:00 1493663400
Maint/952001/17-18 Electrical Arrangement of power supply for 02 nos. of 60HP Blower and diversion of cables for blower’s foundation in the Dept. of Mechanical Engg. at Central Workshop. 02/05/2017 15:00 1493663400
Maint/952002/17-18 Electrical Wiring with s/fixing of electrical accessories in Refrigeration and Air-Conditioning Lab, Mechanical Vibration Lab, Fluid Mechanics and Machine Lab at the Dept. of Mechanical Engg.,.... 02/05/2017 15:00 1493663400
Maint/952003/17-18 Electrical Wiring with s/fixing of electrical accessories in the Chamber of Md. Soyeb Alam, s/installation of wall mounting in the Chamber of Sri Sheo Shankar Rai at the Dept. of Mining Engineering,.... 02/05/2017 15:00 1493663400
Maint/952004/17-18 Electrical Wiring with s/installation of wall mounting fan in Security Guard rooms at Scolomin House, RG Bungalow, Sapphire Hostel, Amber Hostel, Admin Block, Opal Hostel & Ruby Hostel. 02/05/2017 15:00 1493663400
CA-500558-16-17 Purchase Supply and Installation of Japanese (Korean Grass) 02/05/2017 13:00 1493663400
HC/500511/16-17 Purchase Supply & Installation of Dental Chair with X-ray 02/05/2017 13:00 1493663400
W-500019-17-18 Purchase Supply of Block Ply Board, Teak Bead, Synthetic Resin Adhesive and Buffer 02/05/2017 01:00 1493663400
MME-500551-17-18 Purchase Supply and Installation of Setup energy efficient intelligent mine ventilation System 02/05/2017 01:00 1493663400
INST/500557/16-17 Purchase Supply of Medals 28/04/2017 13:00 1493317800
Maint/958300/16-17 Civil Making cemented platform for water purifier (1 no) and other repair work at International Hostel 26/04/2017 15:00 1493145000
Maint/958363/16-17 Civil Fixing of barbed wire fencing in vacant space adjoin GH-1 for Dumping Yard 26/04/2017 15:00 1493145000
Maint/958389/16-17 Civil Fixing of hume pipe for cable laying and construction masonry cable trench at Inside of 33 KV Sub-station at IIT (ISM) 26/04/2017 15:00 1493145000
Maint/958391/16-17 Civil Repair/replacement of ventilation of two rooms, dressing room, chairman suit along with other minor work at SAH 26/04/2017 15:00 1493145000
Maint/958406/16-17 Civil Cleaning of existing cable trench fixing of PVC pipe and replacement of RCC slabs from 33 KV Sub-station to Jasper Hostel ‘C’ Block end 26/04/2017 15:00 1493145000
Hostel-500518-2016-17 Purchase Supply & Installation of Water Storage Cooler cum Purifier (RO). 25/04/2017 03:00 1493058600
Hostel-500519-16-17 Purchase Supply & Installation of Stainless Steel Vacuum Flask and Coffee/Tea Kettle. 25/04/2017 03:00 1493058600
CE-500546-2016-17 Purchase Supply and Installation of Double Acting Hydraulic Jack for Push and Pull Application, 50 kN Capacity. 25/04/2017 03:00 1493058600
Mech-500545-2016-17 Purchase Supply and Installation of Settling Chamber for roots blower 1000 cfm air discharge at 0.6 bar back pressure along with flow measuring device and Supply and Installation of Settling Chamber for roots blower 1000 cfm air discharge at 0.5 bar back pressure 25/04/2017 03:00 1493058600
Mech-500425-16-17 CORRIGENDUM FOR DATE EXTENSION Purchase Supply and Installation of Equipment for surface roughness measurement 25/04/2017 03:00 1493058600
App Phy-500534-16-17 Purchase Supply and Installation of High Temperature Muffle Furnace 21/04/2017 15:00 1492713000
M-500508-16-17 Purchase Supply and Installation of Type N & Type L Original Schmidt Concrete Test Hammer 21/04/2017 13:00 1492713000
INST/500536/16-17 Purchase Supply & Installation of Workstation 21/04/2017 13:00 1492713000
Mech-00528-16-17 Purchase Supply and Installation of Spindle Controller and other accessories 21/04/2017 03:00 1492713000
Mech-500527-16-17 Purchase Supply and Installation of Spindle 21/04/2017 03:00 1492713000
Mech-500532-16-17 Purchase Supply and Installation of Data Acquisition System with accessories 21/04/2017 03:00 1492713000
MME-500538-2016-17 REMINDER Purchase Supply and Installation of 6 1/2 Digit Bench Top RMS Digital Multimeter 21/04/2017 03:00 1492713000
EE-500494-2016-17 Purchase Supply and Installation of Doubly Fed Induction Generator (DFIG) with Drive System 18/04/2017 03:00 1492453800
CE-500512-2016-17 Purchase Supply and Installation of 8 channel computerized data transmitter system 18/04/2017 03:00 1492453800
Mech-500488-2016-17 Purchase Supply and Installation of Automatic Hot Extrusion Press 18/04/2017 03:00 1492453800
MME-500495-16-17 Purchase Supply and Installation of hazardous multi-gas and temperature humidity detector 18/04/2017 03:00 1492453800
Hostel-500522-2016-17 Purchase Supply of bed sheet, bed cover, pillow, pillow cover, towel & blanket. 18/04/2017 03:00 1492453800
EE-500505-2016-17 Purchase Supply and Installation of complete setup of 1 kWp PV system for standlone application 18/04/2017 03:00 1492453800
Hostel-500523-2016-17 Purchase Supply of curtain cloth, PVC oor mats and stitching & installation of curtain. 18/04/2017 03:00 1492453800
Hostel-500520-2016-17 Purchase Supply of Mattress. 18/04/2017 03:00 1492453800
Hostel-500521-5016-17 Purchase Supply & installation of Storage Water Geyser. 18/04/2017 03:00 1492453800
MME-500495-16-17 CORRIGENDUM Purchase Supply and Installation of hazardous multi-gas and temperature humidity detector 18/04/2017 03:00 1492453800
Mech-500493-2016-17 REVISED Purchase Supply and Installation of Open Jet Wind Tunnel and Accessries 18/04/2017 03:00 1492453800
INST-500487-2016-17 Purchase Supply and Installation of Mixer Unit, Cordless Mike and Transmitter 18/04/2017 03:00 1492453800
Hostel-500524-2016-17 Purchase Supply & Installation of Split A.C 01 Ton. 18/04/2017 03:00 1492453800
Maint/952115/16-17 Electrical Internal wiring, s/laying of cable, s/installation of feeder pillar for JSEB Power to Air –conditioners (ACs) of Petroleum Engineering Dept. from Substation -2. 17/04/2017 15:00 1492367400
Maint/952116/16-17 Electrical S/installation of Energy Meters for Kitchen Area of Sapphire, Topaz, Amber, Emerald, Jasper, Diamond, Opal, Ruby Annex-1 & International Hostels. 17/04/2017 15:00 1492367400
Maint/958233/16-17 Civil Distempering and painting work in the Qrt. No. flat/11,46 & 41 17/04/2017 15:00 1492367400
Maint/958234/16-17 Civil Repair and maintenance work at Qrt. No. UGC/14 17/04/2017 15:00 1492367400
Maint/958399/16-17 Civil Supplying commissioning of fountain in front of EDC Building 17/04/2017 15:00 1492367400
Maint/958166/16-17 Civil Addition & alteration work in aluminium partition working platform with granite top with basin and cupboard shutter for MPS Lab at ESE Department 17/04/2017 15:00 1492367400
Misc(P&S)-527003-16-17 Purchase rate Contract for supply of chemicals glassware plastic ware and filter papers for etc for the financial year 2017-2018 17/04/2017 03:00 1492367400
PE-500406-2016-17 Purchase Supply and Installation of Academic License for PVT and Multiphase Behaviour Simulation software 14/04/2017 03:00 1492108200
Maint/958345/16-17 Civil Repair & painting of badminton court of ‘D’ Block at Jasper Hostel 11/04/2017 15:00 1491849000
Maint/958352/16-17 Civil Repair & refixing of old chair replacement of floor carpet (except stage) at GJLT Hall 11/04/2017 15:00 1491849000
Maint/958366/16-17 Civil Repair & replacement of cistern, taps, PVC connection pipe bottle trip, glass shelf, glass pan & re fixing of tiles etc at Sports Physical Education Centre 11/04/2017 15:00 1491849000
Maint/958393/16-17 Civil Replacement of water supply fitting repair of collapsible gate and make AC gap at steel window at EDC Building 11/04/2017 15:00 1491849000
Maint/958399/16-17 Civil Supplying commissioning of fountain in front of EDC Building 11/04/2017 15:00 1491849000
Maint/958403/16-17 Civil Repair of leaking roof with APP at Qrt. No. 119 (W) O.H. (Ten Years Guarantee) 11/04/2017 15:00 1491849000
EE-500490-16-17 Purchase Supply and Installation of Experimental setup for real time monitoring control and protection of power system 11/04/2017 03:00 1491849000
CC-500454-16-17 Purchase Appointment of an IT Consultant for establishment of a Computer Center with HPC facility at IIT(ISM) Dhanbad (Extended Last Dated:07.04.2017) 07/04/2017 13:00 1491503400
Workshop-500481-2016-17 Purchase Repair and Painting MS Exam Tables of Penman Auditorium 07/04/2017 03:00 1491503400
App Math-500492-2016-17 Purchase Supply and Installation of Computer Norebook 07/04/2017 03:00 1491503400
CE-500449-2016-17 REMINDER Purchase Supply and Installation of dynamic cone penetration test setup with automatic free fall hammer 07/04/2017 03:00 1491503400
CE-500439-16-17 REMINDER Purchase Supply and Installation of plate load test setup digital with data acqusion system 07/04/2017 03:00 1491503400
AGL-500467-16-17 Purchase Supply and Installation of Spectroradiometer System (Hyperspectral Imaging Spectroradiometer/ Hyperspectral Cameras) 31/03/2017 03:00 1490898600
ECE-500482-2016-17 Purchase Supply and Installation of Laptop 31/03/2017 03:00 1490898600
Corrigendum Maint/958266/16-17 Civil White washing, distempering and minor repair work at Type I/25,26,30,31,32,33,36,38,40,42,43,46,48 =(13 Nos.) andN/G-1,2,4,5,7,8,11,18,19=(9 Nos.) + 13 Nos. = 22 Nos Qrts 29/03/2017 15:00 1490725800
Maint/958343/16-17 Civil Repair and re flooring of tile at Swimming Pool at SAC Building 29/03/2017 15:00 1490725800
Maint/958365/16-17 Civil Construction of cable trench work from Jasper ‘C’ Block to boundary wall of IIT (ISM) 29/03/2017 15:00 1490725800
Maint/958385/16-17 Civil Repair and replacement of sewage pipe line of Management Department including repair of door of Dr. P.Mathur and Dr. S.K.Pal 29/03/2017 15:00 1490725800
Maint/958395/16-17 Civil Repair & painting work at vacant Qrt. No. 91, Block-07 at GR Side at IIT (ISM) Campus 29/03/2017 15:00 1490725800
Maint/958346/16-17 Civil Repair of roof and replacement of damage rolling shutter at caller plant room at GJLT Hall 24/03/2017 15:00 1490293800
Maint/958362/16-17 Civil Repair/replacement of G.I. pipe line for at Square Park and near Main road IIT (ISM) Campus 24/03/2017 15:00 1490293800
Maint/958382/16-17 Civil Renovation work Server Lab Room and wall tiles in verandah in ground floor at Computer Centre 24/03/2017 15:00 1490293800
Maint/958386/16-17 Civil Provision of water supply with G.I. pipe, PVC tank at FME Department 24/03/2017 15:00 1490293800
Maint/958387/16-17 Civil Remodeling of Reception at New EDC Building 24/03/2017 15:00 1490293800
AGL-500470-2016-17 Purchase Supply & Installation of Maintenance free 12 volt 75 AH battery (for 20 KVA online UPS) with minimum two years of warranty (under buy back scheme) 24/03/2017 03:00 1490293800
Maint/952134/16-17 Electrical Procurement of electrical items for Day-to- Day Maintenance. 22/03/2017 15:00 1490121000
Mech-500472-16-17 Purchase Supply and Installation of Microscope for Micro/Nano Indentator 21/03/2017 03:00 1490034600
App Phy-500476-2016-17 Purchase Supply and Installation of Computer Workstation 21/03/2017 03:00 1490034600
MME-500461-2016-17 Purchase Supply and Installation of Unconfined Compression Tester for Rocks 21/03/2017 03:00 1490034600
MME-500462-16-17 Purchase Supply and Installation of Laboratory Items for power electronics and drives laboratory 21/03/2017 03:00 1490034600
EE-500475-2016-17 Purchase Supply and Installation of optical light source and optical power meter 21/03/2017 03:00 1490034600
Maint/952083/16-17 Electrical Electrical renovation of the Chamber of Hindi Officer and Diary & Dispatch Section at Admin Block. 20/03/2017 15:00 1489948200
Maint/952094/16-17 Electrical Power sockets for Lawn Mower at various garden. 20/03/2017 15:00 1489948200
Maint/952107/16-17 Electrical S/installation of 400W Metal Hallide Flood light fittings, s/laying of cable for additional lighting at Block –A, C and D and shifting of geyser points for all bathrooms at Jasper Hostel. 20/03/2017 15:00 1489948200
Maint/952122/16-17 Electrical S/installation of MCCB type feeder pillar at the Back side of CSE Dept. 20/03/2017 15:00 1489948200
Maint/952039/16-17 Electrical S/laying of cable from JSEB power supply for Air-conditioners (ACs) of NLHC from Substation-3. 20/03/2017 15:00 1489948200
Maint/952130/16-17 Electrical Refilling of fire extinguishers with s/fixing of its accessories at different hostels. 20/03/2017 15:00 1489948200
CE-500469-2016-17 Purchase Supply and Installation of Fabrication of Model Tank with all Necessary Parts. 17/03/2017 03:00 1489689000
Chemical-500464-16-17 Purchase Supply and Installation of High Performance Workstation 17/03/2017 03:00 1489689000
FME-500474-16-17 Purchase Supply and Installation Programmable Muffle Furnace 17/03/2017 03:00 1489689000
FME-500473-2016-17 Purchase Supply and Installation of High Temperature Muffle Furnace 17/03/2017 03:00 1489689000
Mech-500424-16-17 REMINDER Purchase Supply and Installation of Subsonic Wind Tunnel 17/03/2017 03:00 1489689000
Maint/958322/16-17 Civil Repair and painting work hoisting & winding Lab of MME Department 15/03/2017 15:00 1489516200
Maint/958374/16-17 Civil Minor civil repair/replacement work at Qrt. No. VI/4 15/03/2017 15:00 1489516200
Maint/958375/16-17 Civil Distempering and minor repair work at Qrt. No. E/14 15/03/2017 15:00 1489516200
Maint/958376/16-17 Civil Repair & painting of VIP Dining Hall and toilet partition of room no. 18,19 and other repair work at SAH 15/03/2017 15:00 1489516200
Maint/958378/16-17 Civil Fixing of new logo of IIT (ISM) in Penman & GJLT Hall along with other repair work 15/03/2017 15:00 1489516200
Maint/958257/16-17 Civil Repair/replacement of G.I. pipe, valve at Qrt. No. D/37 (old), N/III/Qrt 14/03/2017 15:00 1489429800
Maint/958266/16-17 Civil White washing, distempering and minor repair work at Type I/25,26,30,31,32,33,36,38,40,42,43,46,48 =(13 Nos.) and N/G-1, 2,4,5,7,8,11,18,19=(9 Nos.) +13 Nos. = 22 Nos Qrts 14/03/2017 15:00 1489429800
Maint/958307/16-17 Civil Repair/replacement of pipe line at MES/Qrt, N/D-1, N/III/10 14/03/2017 15:00 1489429800
Maint/958334/16-17 Civil Repair/replacement of broken long size mirror at Gym at SAC Building 14/03/2017 15:00 1489429800
Maint/958336/16-17 Civil Making brick partition wall and roofing for bathroom at Qrt. No. Vee/1&2 14/03/2017 15:00 1489429800
Maint/958246/16-17 Civil Making approach road infront of H type quarter at Staff Colony 14/03/2017 15:00 1489429800
INST-500453-16-17 Purchase Printing and Supply of Academic Diary 10/03/2017 03:00 1489084200
M-500427-16-17 Reminder Purchase Supply and Installation of Radon Measurement System 10/03/2017 03:00 1489084200
Maint/952112/16-17 Electrical New electrical wiring with s/fixing of electrical accessories for Hi-quality, sophisticated automatic gas sorption analyser in CRF (1st floor) at New Petroleum Engg. Dept. 08/03/2017 15:00 1488911400
CE-500450-2016-17 Purchase Supply and Installation of Standard Penetration Test (SPT) setup 07/03/2017 17:00 1488825000
CC/500454/16-17 Purchase Appointment of an IT Consultant for establishment of a Computer Centre with HPC facility at IIT(ISM) Dahnbad 07/03/2017 15:00 1488825000
CE-500439-16-17 Purchase Plate Load Test Setup Digital with Data Acqusion System 07/03/2017 03:00 1488825000
CE-500440-16-17 Purchase Static Cone Penetration Test setup, Engine Driven 07/03/2017 03:00 1488825000
SAH-500443-16-17 Purchase Supply and Installation of 32" Flat LED TV 07/03/2017 03:00 1488825000
AGL-500456-16-17 Purchase Supply and Installation of Block Digester 03/03/2017 15:00 1488479400
PE-500447-16-17 Purchase Supply and Installation of analytical balance 03/03/2017 04:00 1488479400
App Phy/500441/2016-17 Purchase Supply and Installation of Microprocessor based Probe type Ultrasonic Sonicator 03/03/2017 03:00 1488479400
App Phy/500442/2016-17 Purchase Supply and Installation of Digital weighing machine 03/03/2017 03:00 1488479400
PE-500446-16-17 Purchase Supply and Installation of LCD Projector 03/03/2017 03:00 1488479400
CE-500449-16-17 Purchase Supply and Installation of Dynamic Cone Penetration Test setup with Automatic Free fall Hammer 03/03/2017 03:00 1488479400
AGL-500455-16-17 Purchase Supply and Installation of Hot Plate 03/03/2017 03:00 1488479400
Corrigendum Maint/958208/16-17 Civil Minor repair work at Qrt. No. D/30 & 32 Old 01/03/2017 15:00 1488306600
Corrigendum Maint/958225/16-17 Civil Repair of pipe line/hand pump set etc at H/type Qrt. D/29 (old), CA Section 01/03/2017 15:00 1488306600
Corrigendum Maint/958290/16-17 Civil Repair of entrance footpath construction of new benches (14 Nos.) of Inside premises of FME Department 01/03/2017 15:00 1488306600
Corrigendum Maint/958302/16-17 Civil Repair of drain & fixing of RCC slab cover in the drain behind Ruby Hostel No.1 01/03/2017 15:00 1488306600
Maint/958344/16-17 Civil Repair of roof at CMU Section 01/03/2017 15:00 1488306600
Maint/958372/16-17 Civil Replacement of damage sanitary fittings & painting work at Room No.E/47,46,44,39,45,42,41,40,38,27,28,30,TT Room & 106 No. Room 01/03/2017 15:00 1488306600
CSE-500405-16-17 REVISED CORRIGENDUM Purchase Supply and Installation of Desktop Computers 28/02/2017 03:00 1488220200
MME-500452-16-17 Purchase Supply and Installation of Flowmeter for measuring hydraulic oil flow 28/02/2017 03:00 1488220200
Mech-500451-16-17 Purchase Supply and Installation of Electronic Analytical Balance 28/02/2017 03:00 1488220200
MME-500448-16-17 Purchase Supply Installation and commissioning of a hydraulic test set up 28/02/2017 03:00 1488220200
AGL-500432-16-17 CORRIGENDUM Purchase Supply & Installation of Trinocular Polarising Microscope with Transmitted & Refelected Illumination and Dedicated Camera with Computer and Software 28/02/2017 03:00 1488220200
HC/518006/15-16 (Reminder - II) Purchase Outsourcing of Pharmacy at Health Centre 28/02/2017 01:00 1488220200
CE-500358-16-17 Purchase Supply and Installation of Data Acquisition System and Sensors 24/02/2017 03:00 1487874600
Maint/952132/16-17 Electrical Procurement of electrical items for Day-to- Day Maintenance. 23/02/2017 15:00 1487788200
Maint/958260/16-17 Civil Minor modification work in the Exam & Academic Section (Ground floor) Admin Block 23/02/2017 15:00 1487788200
Maint/958335/16-17 Civil Repair & re-flooring of 3 no courtyard at Diamond Hostel 23/02/2017 15:00 1487788200
Maint/958357/16-17 Civil Repair/replacement of water supply fitting at Jasper Hostel 23/02/2017 15:00 1487788200
Maint/958359/16-17 Civil Renovation of 1st floor corridor at AGL Department 23/02/2017 15:00 1487788200
Maint/958360/16-17 Civil Repair/replacement of pipe line gate valve at Qrt. No. UGC/flat-27, Seismological Observatory, II/1 & 2(Modified), PH/3 23/02/2017 15:00 1487788200
Maint/958368/16-17 Civil Repair & painting of Badminton Court at ‘A’ Block Jasper Hostel 23/02/2017 15:00 1487788200
Maint/958369/16-17 Civil Repair, painting & closing the window etc at Server Room 23/02/2017 15:00 1487788200
Maint/958290/16-17 Civil Corrigendum Repair of entrance footpath construction of new benches (14 Nos.) of Inside premises of FME Department 23/02/2017 15:00 1487788200
Maint/958328/16-17 Civil Corrigendum Fixing of two no cow catcher at 33 KV sub-station road and Late Manindra Nath Mandal gate at IIT (ISM) Campus 23/02/2017 15:00 1487788200
Achem-500435-16-17 Purchase Supply and Installation of One rotary vacuum evaporator with chiller circulator 21/02/2017 15:00 1487615400
Achem-500434-2016-17 Purchase Supply and Installation of One low temperature reaction bath with stirring facility 21/02/2017 15:00 1487615400
Mech-500437-16-17 Purchase Supply and Installation of Single cylinder four stroke diesel engine 21/02/2017 15:00 1487615400
AGL-500432-16-17 Purchase supply and installation of Trinocular Microscope 21/02/2017 15:00 1487615400
Maint/958208/16-17 Civil Minor repair work at Qrt. No. D/30 & 32 Old 21/02/2017 15:00 1487615400
Maint/958225/16-17 Civil Repair of pipe line/hand pump set etc at H/type Qrt. D/29 (old), CA Section 21/02/2017 15:00 1487615400
Maint/958240/16-17 Civil Repair and maintenance work at Qrt. No. C/6 21/02/2017 15:00 1487615400
Maint/958301/16-17 Civil Repair and maintenance work of vacant Qrt. No. II/V-1 & II/V-2 21/02/2017 15:00 1487615400
Maint/958302/16-17 Civil Repair of drain & fixing of RCC slab cover in the drain behind Ruby Hostel No.1 21/02/2017 15:00 1487615400
Maint/958305/16-17 Civil Repair/replacement of G.I. pipe, basin, glass shelf etc at C/37 & H/12 21/02/2017 15:00 1487615400
Maint/958306/16-17 Civil Repair & replacement of sanitary fitting & fixture at Amber Hostel 21/02/2017 15:00 1487615400
Maint/958317/16-17 Civil Repair of re fixing of aluminium glazed door new collapsible gate provided at Afgan Mess and other repair work at toilet near mess at Amber Hostel 21/02/2017 15:00 1487615400
Maint/958339/16-17 Civil Replacement of damage commode, cistern other repair work at EDC Building 21/02/2017 15:00 1487615400
Maint/958347/16-17 Civil Repair and re-flooring (vitrified floor) at Drilling Fluid (2nd floor) in New Pet Building 21/02/2017 15:00 1487615400
Maint/958351/16-17 Civil Roof repair work at under the water tank at ‘A’ Block in Amber Hostel 21/02/2017 15:00 1487615400
App Chem/500434/16-17 Purchase Supply and Installation of One low temperature reaction bath with stirring facility 21/02/2017 03:00 1487615400
App Chem/500435/16-17 Purchase Supply and Installation of One rotary vacuum evaporator with chiller circulator 21/02/2017 03:00 1487615400
Mech-500436-2016-17 Purchase Supply and Installation of Workstation 21/02/2017 03:00 1487615400
CC-500377-16-17 Purchase Expression of interest for appointment of an agency for design site preparation supply installation and testing commissioning operation and maintenance of basic infrastructure for 5 years for the establishment of a Computer Centre with HPC facility at IIT 17/02/2017 17:00 1487269800
test123 Purchase test123 15/02/2017 17:05 1487097000
test123 Purchase test123 15/02/2017 17:02 1487097000
test123 Purchase test123 15/02/2017 17:00 1487097000
test-123456 Purchase test-123456 14/02/2017 19:01 1487010600
test-123456 Purchase test-123456 14/02/2017 18:58 1487010600
test-123456 Purchase test-123456 14/02/2017 18:57 1487010600
M-500426-16-17 (Corrigendum) Purchase Nal(TI) gamma spectrometry system and accessories 14/02/2017 15:00 1487010600
INST/500417/16-17 Purchase Printing & Supply of Academic Wall Calendar, Academic Table Calender and Executive Planner 14/02/2017 13:00 1487010600
Mech-500425-16-17 Purchase Supply and Installation of Equipment for surface rouglmess Measurement 14/02/2017 03:00 1487010600
M-500426-16-17 Purchase Supply and Installation of Nal(TI) gamma spectrometry system and accessories-02 Nos. 14/02/2017 03:00 1487010600
Mech-500436-2016-17 Purchase Supply and Installation of Workstation 13/02/2017 22:27 1486924200
CE-500439-2016-17 Purchase Supply and Installation of Plate Load Test Setup Digital with data Acquisition System 13/02/2017 22:09 1486924200
Maint/952127/16-17 Electrical Procurement of electrical items for Day-to- Day Maintenance. 13/02/2017 15:00 1486924200
M-500427-16-17 Purchase Supply and Installation of Radon measurement system 10/02/2017 15:00 1486665000
Maint/952082/16-17 Electrical S/installation of 400W Metal Hallide Flood light fittings in place of 70W Metal hallide light fitting in Badminton Court of International Hostel. 10/02/2017 15:00 1486665000
Maint/952128/16-17 Electrical Wiring with s/fixing of electrical accessories in UPS Room and newly created Server Room at Computer Centre. 10/02/2017 15:00 1486665000
Maint/952129/16-17 Electrical Wiring with s/fixing of electrical accessories in Lab of Dr. Bishwajit Chaudhary at the Dept. of Applied Chemistry, Chamber of Dr. A. K. Verma at the Dept. of Mining Engineering,.... 10/02/2017 15:00 1486665000
Maint/952130/16-17 Electrical Refilling of fire extinguishers with s/fixing of its accessories at different hostels. 10/02/2017 15:00 1486665000
Maint/952079/16-17 Electrical Electrical renovation of Organic/Inorganic Lab at the Dept. of Applied Chemistry. 10/02/2017 15:00 1486665000
Maint/958295/16-17 Civil Minor civil repair work at Qrt. No. E/5,6,7 & 8 08/02/2017 15:00 1486492200
Maint/958312/16-17 Civil Repairing work and replacement of sanitary fittings at Sapphire Hostel 08/02/2017 15:00 1486492200
Maint/958319/16-17 Civil Repairing stair railing at ‘C’ & ‘D’ block at Sapphire Hostel 08/02/2017 15:00 1486492200
Maint/958324/16-17 Civil Repair painting work & replacement of aluminium window at office chamber of Prof S.K.Gupta 08/02/2017 15:00 1486492200
Maint/958331/16-17 Civil Repair and maintenance work at Scolomin Club 08/02/2017 15:00 1486492200
Maint/958340/16-17 Civil Repair/rehabilitation of RCC overhead tank near GH-1 08/02/2017 15:00 1486492200
Maint/958310/16-17 Civil Repair of glazed aluminium window and fixing of glass upto 5th floor level in Old EDC & NEDC Building 08/02/2017 15:00 1486492200
Maint/958320/16-17 Civil Fixing of aluminium composite expansion joint A,B,C,D & E at Sapphire Hostel 08/02/2017 15:00 1486492200
Maint/958304/16-17 Civil Minor civil repair, replacement work at Qrt. No. I/29, Science Block, Chemistry Lab, FME Department & H/4 08/02/2017 15:00 1486492200
Maint/958313/16-17 Civil Repair work at toilet(1st floor) in ‘C’ block near Afgan mess side for seepage problem for mess worker 08/02/2017 15:00 1486492200
Corrigendum Maint/958271/16-17 Civil Annual rate contract for day-to-day operation & maintenance of 12 Nos. R.O. Plant i/c. water softening plant, from Removal Filtration Plant and Pump Operation at ISM Campus 08/02/2017 15:00 1486492200
CSE-500405-16-17 Purchase Supply and Installation of Desktop Computers 03/02/2017 15:00 1486060200
INST-500414-16-17 Purchase Printing and supply of file cover letter head and note sheet pad 03/02/2017 15:00 1486060200
Achem-500422-16-17 Purchase Supply and Installation of photo colorimeter 03/02/2017 15:00 1486060200
M-500426-16-17 (Corrigendum) Purchase Supply and Installation of Nal(TI) gamma spectrometry system and accessories. 02/02/2017 15:41 1485973800
Chemical-500408-16-17 Purchase Supply and Installation of High Speed centrifuge with rotor head 31/01/2017 15:00 1485801000
PE-500406-16-17 Purchase Supply and Installation of Academic license for PVT and multiphase behaviour simulation software 31/01/2017 15:00 1485801000
PE-500399-16-17 Purchase Supply and Installation of Microwave Reactor System 31/01/2017 15:00 1485801000
PE-500397-16-17 Purchase Supply and Installation of Water Purifier System 31/01/2017 15:00 1485801000
Chemical-500410-16-17 Purchase Supply and Installation of Programmable High Temperature Muffle Furnace 31/01/2017 15:00 1485801000
ESE-500418-2016-17 Purchase Supply and Installation of Tube Furnace 31/01/2017 15:00 1485801000
Chemical-500409-16-17 Purchase Supply and Installation of Orbital Shaker 31/01/2017 11:00 1485801000
M-500428-16-17 Purchase Supply and Installation of Radiation Survey Meter 27/01/2017 10:42 1485455400
MME-500411-16-17 Purchase Supply of Laptop 24/01/2017 15:00 1485196200
PE-500400-16-17 Purchase Supply and Installation of Kinematic Viscosity water bath 24/01/2017 15:00 1485196200
MS-500404-16-17 Purchase Supply and Installation of LCD Projector 24/01/2017 15:00 1485196200
CE-500358-16-17 Purchase Supply and Installation of Data Acquisition System and sensors 20/01/2017 15:00 1484850600
CMU-500383-16-17 Purchase Supply and Installation of Cable Termination Kit for DVC Line 20/01/2017 15:00 1484850600
CMU-500383-16-17 Purchase Supply of 42 nos outdoor cable termination kit 20/01/2017 15:00 1484850600
CMU/500383/16-17 (Revised) Purchase Supply of 42 nos. outdoor cable termination kit for 38/66kV, 1C x 630 mm² XLPE Power Cable 20/01/2017 15:00 1484850600
Maint/958223/16-17 Civil Repair work at Mess stair painting of Dining Hall, corridor (part) and others repair work at Amber Hostel 18/01/2017 15:00 1484677800
Maint/958234/16-17 Civil Repair and maintenance work at Qrt. No. UGC/14 18/01/2017 15:00 1484677800
Maint/958272/16-17 Civil Distempering and painting work at Qrt. No. H/13 18/01/2017 15:00 1484677800
Maint/958290/16-17 Civil Repair of entrance footpath construction of new benches (14 Nos.) of Inside premises of FME Department 18/01/2017 15:00 1484677800
Maint/958316/16-17 Civil Repair of drain, badminton court and painting the same at IEDC 18/01/2017 15:00 1484677800
CC-500370-16-17 Purchase Work Order for Internet Leased Line 17/01/2017 15:00 1484591400
INST-500380-16-17 Purchase Supply and Installation of Photo copier machine with buy back basis 17/01/2017 15:00 1484591400
App Math-500337-16-17 (Reminder) Purchase Supply and Installation of Computer Note Book 17/01/2017 15:00 1484591400
AGL-500360-16-17 REMINDER Purchase Supply and Installation of Automatic Point counting System for NIKON E200 POL Microscope 17/01/2017 15:00 1484591400
AGL-500359-16-17 REMINDER Purchase Supply and Installation of Colour Camera Head for NIKON E200 POL Microscopr 17/01/2017 15:00 1484591400
Maint/958233/16-17 Civil Distempering and painting work in the Qrt. No. flat/11,46 & 41 17/01/2017 15:00 1484591400
Maint/958298/16-17 Civil Replacement of damage barbed wire fencing and other repair work at IIT (ISM) Seismological Observatory Premises 17/01/2017 15:00 1484591400
Maint/958299/16-17 Civil Repair of PVC floor in server room and modification of one window of office at Computer Centre 17/01/2017 15:00 1484591400
Maint/958311/16-17 Civil Repair of aluminium door & window shutter providing glass pan, ACP etc at SAC 17/01/2017 15:00 1484591400
INST-500373-16-17 Purchase Hiring of Services for development and hosting of separate web link 13/01/2017 15:00 1484245800
EDC-500387-16-17 Purchase Supply of blanket(Single) 13/01/2017 15:00 1484245800
MS-500391-16-17 Purchase Supply and Installation of Online UPS 13/01/2017 15:00 1484245800
AMath-500386-16-17 Purchase Supply and Installation of Computer Notebook 13/01/2017 15:00 1484245800
Mech-500390-16-17 Purchase Supply and Installation of Mobile Workstation 13/01/2017 15:00 1484245800
Mech-500388-16-17 Purchase Supply and Installation of Desktop Workstation 13/01/2017 15:00 1484245800
Mech-500391-16-17 Purchase Supply and Installation of Desktop Workstation 13/01/2017 15:00 1484245800
Maint/958244/16-17 Civil Repair & replacement of pipe line at Qrt. No. II/23 11/01/2017 15:00 1484073000
Maint/958277/16-17 Civil Distempering and painting work at vacant Qrt. No. Type V/7,8,12 UGC enclave 11/01/2017 15:00 1484073000
Maint/958297/16-17 Civil Minor civil repair work at Qrt. No. B/2 11/01/2017 15:00 1484073000
Maint/958323/16-17 Civil Repair work room no. 05 & 105 for seepage problem at Old EDC Building 11/01/2017 15:00 1484073000
Maint/958327/16-17 Civil Repair and painting work room of chairman suit ground floor verandah, stair and painting of grill and door at SAH 11/01/2017 15:00 1484073000
INST-500385-16-17 (Store) Purchase Supply of Xerox Paper 10/01/2017 15:00 1483986600
IIIF-500374-6-17 Purchase Supply and Installation of LED TV 10/01/2017 15:00 1483986600
App Phy-500376-16-17 Purchase Supply and Installation of Electron-Beam Evaporation System 10/01/2017 15:00 1483986600
Corrigendum Maint/958269/16-17 Civil Distempering, painting and minor civil repair work at Qrt. No. Type IV/68,131,19 & 2 G.R. Side 10/01/2017 15:00 1483986600
Corrigendum Maint/958285/16-17 Civil Repair and fixing of sanitary fitting and painting of room at EDC Building 10/01/2017 15:00 1483986600
Corrigendum Maint/958288/16-17 Civil Repair/replacement of commode, tap, sink, sewer pipe etc at Qrt. No. N/D-12 10/01/2017 15:00 1483986600
Corrigendum Maint/958291/16-17 Civil Repair of sewer pipe & replacement of sanitary fittings at Qrt. No. UGC/18 10/01/2017 15:00 1483986600
MME-500375-2016-17 Purchase Supply and Installation of Microcontroller boards 06/01/2017 15:00 1483641000
ESE-500379-16-17 Purchase Supply and Installation of Shaker Incubator 06/01/2017 15:00 1483641000
EE-500382-16-17 Purchase Supply and Installation of AC/DC Oscilloscope Clamp on Current Probes 06/01/2017 15:00 1483641000
CMU-500381-16-17 Purchase Supply and Installation of Electric items 06/01/2017 15:00 1483641000
App Phy-500365-16-17 Purchase Supply and Installation of Upright microscope with camera computer and image analysis software 03/01/2017 15:00 1483381800
INST-500289-16-17 Purchase Supply and Installation of Desktop Computer All in one and scanner 03/01/2017 15:00 1483381800
App Phy-500369-16-17 Purchase Supply and Installation of Laptop 03/01/2017 15:00 1483381800
Mech-500367-16-17 CORRIGENDUM Purchase Supply and Installation of Linear motorized stage and controller with standard accessories 03/01/2017 15:00 1483381800
ESE-500332-16-17 REMINDER Purchase Supply and Installation of Ozone Generator with oxygen generator 03/01/2017 15:00 1483381800
Achem-500356-16-17 Purchase Supply and installation of 400 MHz Instrument 03/01/2017 15:00 1483381800
INST-500289-16-17 CORRIGENDUM Purchase Supply and Installation of Desktop Computer and Scanner 03/01/2017 15:00 1483381800
App Phy-500363-16-17 Purchase Supply and Installation of Single-Mode Fibre-coupled 532 nm Green laser module with temperature control 30/12/2016 15:00 1483036200
App Phy-500364-16-17 Purchase Supply and Installation of Optical vibration isolation table with legs and air compressor 30/12/2016 15:00 1483036200
AGP-500348-16-17 CORRIGENDUM Purchase Supply and Installation of Split AC 30/12/2016 15:00 1483036200
CSE-500347-16-17 CORRIGENDUM Purchase Supply and Installation of Split AC 30/12/2016 15:00 1483036200
EDC-500325-2016-17 REMINDER Purchase Supply and Installation of All in One Desktop Computer 30/12/2016 15:00 1483036200
EDC-500323-16-17 REMINDER Purchase Supply and Installation of Dell New Inspiron 30/12/2016 15:00 1483036200
Mech-500367-16-17 Purchase Supply and Installation of Procurement of spindle and controller with standard accessories 28/12/2016 15:00 1482863400
Mech-500366-16-17 Purchase Supply and Installation of High Speed Camera 28/12/2016 15:00 1482863400
Maint/958217/16-17 Civil Fixing of two no window and painting work at vacated by Deptt. of Electrical Engg. (Ground floor) Main School Building. 28/12/2016 15:00 1482863400
Maint/958236/16-17 Civil Dismantling of boundary wall and modification of garden for connecting road in between old new EDC Car Parking area. 28/12/2016 15:00 1482863400
Maint/958246/16-17 Civil Making approach road infront of H type quarter at Staff Colony. 28/12/2016 15:00 1482863400
Maint/958287/16-17 Civil Construction of semi permanent (9.4 x 4.80) mtr with roof shed at GH-1. 28/12/2016 15:00 1482863400
Maint/958289/16-17 Civil Replacement of damage wooden door frame and other necessary allied repair work at IEDC. 28/12/2016 15:00 1482863400
Mech-500368-16-17 Purchase Supply and Installation of Data Acquisition System 28/12/2016 12:00 1482863400
ESE-500346-16-17 Purchase Supply and Installation of Ambient CO Analyzer 27/12/2016 15:00 1482777000
W-500352-16-17 REMINDER Purchase Supply and Installation of Square Pipes Welding rods 27/12/2016 15:00 1482777000
W-500350-16-17 Purchase Supply and Installation of fabrication of 65 Nos. of benches cum desks 27/12/2016 15:00 1482777000
HC/518006/15-16 (Reminder) Purchase Outsourcing of Pharmacy 27/12/2016 13:00 1482777000
App Phy-500344-16-17 Purchase Supply and Installation of Stereo Zoom Microscope 27/12/2016 12:00 1482777000
AGL-500359-16-17 Purchase Supply and Installation of Camera for Micriscope 23/12/2016 15:00 1482431400
AGL-500360-16-17 Purchase Supply and Installation of Automatic Point Counting System for Nikon E200 POL Microscope 23/12/2016 15:00 1482431400
AGL-500303-16-17 Purchase Supply and Installation of Dual Frequency RTK DGPS System 23/12/2016 15:00 1482431400
PE-500289-16-17 REVISED Purchase Supply and Installation of Work Station Computer 23/12/2016 15:00 1482431400
Sports-500354-16-17 Purchase Supply and Installation of Nylon Shuttle Cock 23/12/2016 15:00 1482431400
Corrigendum Maint/952085/16-17 Electrical Procurement of electrical items for Day-to- Day Maintenance. 23/12/2016 15:00 1482431400
Maint/952095/16-17 Electrical Procurement of electrical items for Day-to- Day Maintenance. 23/12/2016 15:00 1482431400
Maint/952109/16-17 Electrical Procurement of electrical items for Day-to- Day Maintenance. 23/12/2016 15:00 1482431400
Maint/958228/16-17 Civil Provision of low height brick wall fencing near Emerald Hostel 23/12/2016 15:00 1482431400
Maint/958245/16-17 Civil Distempering/painting & minor civil repair work at Qrt. No. 118/E 23/12/2016 15:00 1482431400
Maint/958268/16-17 Civil Repair of drain plinth protection boundary wall room flooring etc at III/159 and II/45 23/12/2016 15:00 1482431400
Maint/958285/16-17 Civil Repair and fixing of sanitary fitting and painting of room at EDC Building 23/12/2016 15:00 1482431400
Maint/958288/16-17 Civil Repair/replacement of commode, tap, sink, sewer pipe etc at Qrt. No. N/D-12 23/12/2016 15:00 1482431400
Maint/958291/16-17 Civil Repair of sewer pipe & replacement of sanitary fittings at Qrt. No. UGC/18 23/12/2016 15:00 1482431400
Maint/958293/16-17 Civil Replacement of steel glazed window in Instrumentation Laboratory (Ground floor) and others repair work at ESE Department 23/12/2016 15:00 1482431400
INST/500311/16-17 (Reminder) Purchase Supply and Installation of Sound System 23/12/2016 13:00 1482431400
Mech-500343-16-17 Purchase Supply and Installation of IR Camera 20/12/2016 15:00 1482172200
AGP-500348-16-17 Purchase Supply and Installation of Split AC 20/12/2016 15:00 1482172200
CSE-500347-16-17 Purchase Supply and Installation of Split AC 20/12/2016 15:00 1482172200
Mech-500355-16-17 Purchase Supply and Installation of High Speed Camera 20/12/2016 15:00 1482172200
Maint/958242/16-17 Civil Distempering work in the quarter no. H/9,H/8,N/G-6, II/58, II/12,II/63 20/12/2016 15:00 1482172200
Maint/958264/16-17 Civil Distempering and painting work in the Qrt. No. UGC enclave no. 5&16 20/12/2016 15:00 1482172200
Maint/958267/16-17 Civil Replacement of PVC pipe bend and other repair work of roof at Emerald Hostel 20/12/2016 15:00 1482172200
Maint/958269/16-17 Civil Distempering, painting and minor civil repair work at Qrt. No. Type IV/68,131,19 & 2 G.R. Side 20/12/2016 15:00 1482172200
Maint/958270/16-17 Civil Repair/replacement of pipe line connection at N/III/7, Admin Block, Dean Office, Staff Colony 20/12/2016 15:00 1482172200
Maint/958273/16-17 Civil Repair/replacement of sanitary fittings wall seepage etc at Qrt. No. C/5,UGC/9,C/8,II/5,IV/23GRS, E/19,N/D-18,IV/47GRS, IV/72GRS, IV/94GRS, IV/67GRS 20/12/2016 15:00 1482172200
Maint/958282/16-17 Civil Minor civil repair work at Qrt. No. II/47 20/12/2016 15:00 1482172200
Maint/952096/16-17 Electrical Wiring for UPS with s/fixing of electrical accessories in Senate Hall of New EDC Extn. Building, Penman Auditorium, replacement of 10” exhaust fan in place of defective 8” exhaust fan in room no. -206, 208 and 212 at EDC,..... 19/12/2016 15:00 1482085800
Maint/952097/16-17 Electrical Erection of an 11kV Electric Pole in front of Topaz Hostel. 19/12/2016 15:00 1482085800
Maint/952099/16-17 Electrical Repairing of 7.5 HP Motor for kitchen Chimney at EDC, repairing of starter for Dustbin machine at 48 Type –V Qtr., repairing of motor for fountain at Dean (Academic). 19/12/2016 15:00 1482085800
Maint/952102/16-17 Electrical Power supply arrangement for Coffee Day kiosk at NLHC. 19/12/2016 15:00 1482085800
Maint/952104/16-17 Electrical Repairing of defective cable supplying power to Heritage Canteen, Pump in front of Substation no. -03, Well no. -06, Garage of Prof. B. C. Sarkar, Petroleum Engg. Dept. Substation no.-1 & 3,.... 19/12/2016 15:00 1482085800
Maint/952105/16-17 Electrical Lowering, lifting & repairing of 15 HP Pump at Sump no. -01 & 10 HP Monosump at sump near Emerald Hostel, repairing of starter Well no. -04, Square park & Central Library. 19/12/2016 15:00 1482085800
Maint/952108/16-17 Electrical Repairing and changing of route of defective cable supplying power to Amber Hostel from Substation no.-3. 19/12/2016 15:00 1482085800
Mech-500341-16-17 Purchase Supply and Installation of Honeycomb Breadboard Table 16/12/2016 15:00 1481826600
Mech-500339-16-17 Purchase Supply and Installation of Microphones 16/12/2016 15:00 1481826600
Maint/958207/16-17 Civil Distempering and painting work at Qrt. No. flat/25 UGC/48 Qtrs 16/12/2016 15:00 1481826600
Maint/958212/16-17 Civil Repair/replacement of sanitary water supply fitting at Qrt. No. Block/1-3, Block/7-94, D/11 (old) & B/2 16/12/2016 15:00 1481826600
Maint/958220/16-17 Civil Repair work at Topaz Hostel 16/12/2016 15:00 1481826600
Maint/958226/16-17 Civil Repair of ladies toilet at ESE Department 16/12/2016 15:00 1481826600
Maint/958252/16-17 Civil Distempering and painting work at Qrt. No. E/16 16/12/2016 15:00 1481826600
Maint/958253/16-17 Civil Minor civil repair work at Qrt. No. C/4 16/12/2016 15:00 1481826600
Maint/958278/16-17 Civil Repair of leaking sewer pipe ‘P’ trap from the toilet of upper floor at Qrt. No. Block/10-142 16/12/2016 15:00 1481826600
Maint/958280/16-17 Civil Repair and painting work at Badminton Court at ‘C’ Block 16/12/2016 15:00 1481826600
SAH/500314/16-17 Purchase Housekeeping, Reception,Room Services, General Maintenance & Facility Management Serivices etc. for Executive Development Centre (EDC) & Senior Academic Hostel (SAH) and Catering Services in Executive Development Centre (EDC) 09/12/2016 15:00 1481221800
Mech-500328-16-17 Purchase Supply and Installation of 32 FR Acoustic Polyurethane Foam wedges 09/12/2016 15:00 1481221800
PE-500327-16-17 Purchase Supply and Installation of Fume Hood and Cupboard 09/12/2016 15:00 1481221800
ESE-500332-16-17 Purchase Supply and Installation of Ozone Generator with Oxygen Generator 09/12/2016 15:00 1481221800
ESE-500333-16-17 Purchase Supply and Installation of Revolutionary Research Centrifuges 09/12/2016 15:00 1481221800
AGL-500316-16-17 REMINDER Purchase Supply and Installation of Trinocular Polarizing Microscope 09/12/2016 15:00 1481221800
SAH-500314-16-17 Revised Corrigendum Purchase Corrigendum & Extension of Last Date for Submission of Tender Documents Regarding Notice Inviting Tender(NIT) for Housekeeping, Reception, Room Services, General Maintenance & Facility Management Services etc. for EDC & SAH and Catering Services in EDC in 09/12/2016 15:00 1481221800
Corrigendum Maint/958077/16-17 Civil Construction of low height wall with iron grill top fencing and footpath/cycling path in open space below Lower Ground and Admin Block at ISM Campus 07/12/2016 15:00 1481049000
Maint/958164/16-17 Civil Corrigendum : Distempering and painting work in the Qrt. No. flat/11 07/12/2016 15:00 1481049000
Maint/958195/16-17 Civil Corrigendum: Making bathroom with shed at Qrt. No. Vee/6 07/12/2016 15:00 1481049000
Corrigendum Maint/958199/16-17 Civil Making RCC slab over drain in front of Old FME Department 07/12/2016 15:00 1481049000
EDC-500325-16-17 Purchase Supply and Installation of All in One Desktop Computer with preloaded operating system 06/12/2016 17:38 1480962600
AGL-500330-16-17 Purchase Supply and Installation of Binocular Polarizing Microscope with Transmitted Illumination 06/12/2016 15:00 1480962600
EDC-500326-16-17 Purchase Supply and Installation of Multimedia Projector 06/12/2016 15:00 1480962600
EDC-500324-16-17 Purchase Supply and Installation of Split Air Conditioner 2 ton capacity with installation charges and automatic votage stabilizer 06/12/2016 15:00 1480962600
EDC-500323-16-17 Purchase Supply and Installation of Dell New Inspiron 06/12/2016 15:00 1480962600
AGL-500329-16-17 Purchase Supply and Installation of Polypropylene Fume Hood 02/12/2016 15:00 1480617000
AGL-500331-16-17 Purchase Supply and Installation of Muffle Furnace Block Digester and hot plate 02/12/2016 15:00 1480617000
Maint/952085/16-17 Electrical Procurement of electrical items for Day-to- Day Maintenance. 01/12/2016 15:00 1480530600
CRF-500266-16-17 CORRIGENDUM Purchase Supply and Installation of Liquid Nitrogen Plant 29/11/2016 15:00 1480357800
Maint/952089/16-17 Electrical Lowering, lifting & replacement of 3 HP Pump in place of defective 5 HP Pump, s/laying of G.I. Pipe with accessories etc. in existing deep bore near Square park. 29/11/2016 15:00 1480357800
Maint/952090/16-17 Electrical Lowering, lifting & repairing of 5 HP motor with pump at EDC and s/installation of starter at GJLT. 29/11/2016 15:00 1480357800
Maint/952091/16-17 Electrical Lowering, lifting & repairing of 03 HP Submersible motor with pump & 10 HP Monosump motors with pump at Sump near Emerald Hostel and 5 HP Submersible motor at Jasper Hostel. 29/11/2016 15:00 1480357800
Corrigendum Maint-952071-16-17 Electrical New wiring with s/installation of wall mounting fan near black board in Class Room no. - 01 to 20 at NLHC. 28/11/2016 15:00 1480271400
Maint/958077/16-17 Civil Construction of low height wall with iron grill top fencing and footpath/cycling path in open space below Lower Ground and Admin Block at ISM Campus 28/11/2016 15:00 1480271400
Maint/952075/16-17 Electrical S/laying of cable, s/installation of meter panel etc. for power supply to Mani’s Café. 28/11/2016 15:00 1480271400
Maint/952080/16-17 Electrical New electrical wiring with s/fixing of electrical accessories, light fitting in Reservoir Characterization Centre (2nd floor) at Petroleum Engineering Department. 28/11/2016 15:00 1480271400
Maint/952086/16-17 Electrical P/fixing of AC outlet pipe in 1st floor at Main School Building. 28/11/2016 15:00 1480271400
Maint/952087/16-17 Electrical Repairing/ replacement of defective 28W tube lights, s/fixing of 63A, DP Changeover switch at Director’s office and s/installation of pedestal fan at Scolomin House. 28/11/2016 15:00 1480271400
Maint/952088/16-17 Electrical Repairing of 25 HP monosump motor, lowering, lifting & repairing of 5 HP Submersible Pump at Swimming Pool. 28/11/2016 15:00 1480271400
Maint/958271/16-17 Civil Annual rate contract for day-to-day operation & maintenance of 12 Nos. R.O. Plant i/c. water softening plant, from Removal Filtration Plant and Pump Operation at ISM Campus 28/11/2016 15:00 1480271400
HC/518006/15-16 Purchase Outsourcing of Pharmacy at Health Centre 25/11/2016 13:00 1480012200
IIIF/Catering Contract/2016 Miscellaneous Tender for Supplying Lunch/Dinner at IIT (ISM)-IIIF, Kolkata 22/11/2016 16:00 1479753000
App Phy-500308-16-17 Purchase Supply and Installation of Desktop Computer 22/11/2016 15:00 1479753000
INST/500311/16-17 Purchase Supply and Installation of Sound System 22/11/2016 13:00 1479753000
PE-500289-16-17 Purchase Supply and Installation of Work Station Computer 18/11/2016 15:00 1479407400
IIIF-500292-16-17 Purchase Supply and Installation of setting up Wireless and Wired LAN facility at IIT(ISM) Industry Institute Interaction Facility at new Delhi 15/11/2016 15:00 1479148200
Mech-500317-16-17 Purchase Supply and Installation of Roots blower for 1000cfm air discharge at 0.5 back pressure along with acoustic hood 15/11/2016 15:00 1479148200
Mech-500315-16-17 Purchase Supply and Installation of Roots blower for 1000cfm air discharge at 0.6 back pressure along with acoustic hood 15/11/2016 15:00 1479148200
AGL-500316-16-17 Purchase Supply and Installation of Trinocular Polarizing Microscope with Transmitted & Reflected Illumination and dedicated camera with computer and software 15/11/2016 15:00 1479148200
ESE-500194-16-17 Purchase Supply and Installation of Gas Chromotography-Mass Spectrometry GC-MS 11/11/2016 15:00 1478802600
IIIF-500213-16-17 REMINDER Purchase Supply and Installation of All In-One Desktop Comp. & laptop 11/11/2016 15:00 1478802600
IIIF-500214-16-17 Purchase Supply and Installation of Audio-Visual Facility 11/11/2016 15:00 1478802600
CSE/500312/16-17 Purchase Supply and Installation of Mobile Workstation 11/11/2016 15:00 1478802600
Maint/952081/16-17 Electrical Procurement of electrical items for Day-to- Day Maintenance. 09/11/2016 15:00 1478629800
AGL-500303-16-17 Purchase Supply and Installation of Dual Frequency RTK DGPS System 08/11/2016 15:00 1478543400
SAH/500168/16-17 (Reminder) Purchase Supply and Installation of Gym Equipment 08/11/2016 15:00 1478543400
Maint/958188/16-17 Civil Renovation work at Reservoir Characterization Lab (2nd floor) at New Petroleum Building 08/11/2016 15:00 1478543400
Maint/958204/16-17 Civil Repair work at Gents & Ladies toilet outside washroom, near Penman Hall 08/11/2016 15:00 1478543400
Maint/958222/16-17 Civil Distempering and painting work in the Qrt. No. Block-8 flat 119, B/6 flat 88 GRS 08/11/2016 15:00 1478543400
Maint/958158/16-17 Civil Repair/replacement of existing damaged wall/floor tiles/sanitary water supply fittings at Qrt. No. 119/W 08/11/2016 15:00 1478543400
Maint/958184/16-17 Civil Repair work in room including painting of rooms at SAH 08/11/2016 15:00 1478543400
Maint/958185/16-17 Civil Repair & painting work at Children Park Complex near Health Centre 08/11/2016 15:00 1478543400
Maint/952057/16-17 Electrical New wiring with s/fixing of electrical accessories in Seating Chamber of Sri Swapan Dey at the Dept. of Applied Chemistry. 07/11/2016 15:00 1478457000
Maint/952071/16-17 Electrical New wiring with s/installation of wall mounting fan near black board in Class Room no. - 01 to 20 at NLHC. 07/11/2016 15:00 1478457000
Maint/952078/16-17 Electrical Electrical Repair & Maintenance of Jasper Hostel. 07/11/2016 15:00 1478457000
IIT(ISM)D/DSW/117/Stationery Shop/2016 Miscellaneous Stationery Shop including computer typing & printing, photocopying, telephone, fax & internet services 04/11/2016 16:00 1478197800
MME-500255-16-17(Reminder) Purchase Closed Circuit Hydraulic System with accumulators 04/11/2016 15:51 1478197800
ESE-500301-16-17 Purchase Supply and Installation of Phase Contrast Fluorescence Microscope 04/11/2016 15:00 1478197800
M-500240-16-17-Reminder Purchase Purchase of Laptop 04/11/2016 15:00 1478197800
Mech-500090-16-17(Reminder) Purchase Supply and installation of Equipment for surface roughness Measurement 04/11/2016 15:00 1478197800
IIIF-500232-16-17 Purchase Supply and Installation for Setting up 10 Mbps Internet Leased line at ISM IIIF, New Delhi 04/11/2016 15:00 1478197800
Maint/958120/16-17 Civil Renovation of seminar room (1st floor) at Applied Chemistry Department 02/11/2016 15:00 1478025000
Maint/958154/16-17 Civil Conversion a room into a wash room for faculty members at first floor of department of ME in Main School Building 02/11/2016 15:00 1478025000
Maint/958178/16-17 Civil Construction of Isolator foundation for 33 KV Substation IIT (ISM) 02/11/2016 15:00 1478025000
Maint/958179/16-17 Civil Fixing of carpet with similar allied works in Reservoir Characterization Centre 02/11/2016 15:00 1478025000
Maint/958189/16-17 Civil Roof treatment work at EDC Building (ten Years Guarantee) 02/11/2016 15:00 1478025000
Maint/958193/16-17 Civil Fixing of ball cock at Jasper Hostel 02/11/2016 15:00 1478025000
Maint/958199/16-17 Civil Making RCC slab over drain in front of Old FME Department 02/11/2016 15:00 1478025000
Maint/958202/16-17 Civil Repair of roof at Emerald Hostel 02/11/2016 15:00 1478025000
Maint/958205/16-17 Civil Repair & leaking roof floor and making plinth protection of the garage of Qrt. No. 121/IV 02/11/2016 15:00 1478025000
Maint/958206/16-17 Civil Repair work at Bathroom at Amber Hostel 02/11/2016 15:00 1478025000
Maint/958213/16-17 Civil Repair of extension of boundary wall height (Part) at backside of Amber Hostel 02/11/2016 15:00 1478025000
Maint/958214/16-17 Civil P/F water supply & sanitary fixing at Chemical Engg. & Petroleum Engg. Department 02/11/2016 15:00 1478025000
Maint/958215/16-17 Civil Painting of badminton court in ‘B’ Block at Jasper Hostel 02/11/2016 15:00 1478025000
Maint/958219/16-17 Civil Distempering and painting work in the Qt. No. flat/19 and 21 at UGC 48 Qtrs 02/11/2016 15:00 1478025000
Maint/958224/16-17 Civil Replacement of damaged barbed wire fencing at Qrt. No. E/13 & UGC/1 02/11/2016 15:00 1478025000
Maint/958241/16-17 Civil Repair of approach road drain courtyard flooring and making sewer line connection at Qrt. No. V/122 02/11/2016 15:00 1478025000
CRF-500266-16-17 Purchase Supply and Installation of Liquid Nitrogen Plant 28/10/2016 15:00 1477593000
Chemical-500277-16-17 Purchase Supply and Installation of Microprocessor based Automated Catalyst Characterization System 28/10/2016 15:00 1477593000
PE-500290-16-17 Purchase Supply and Installation of Digital Constant Temperature Waterbath 28/10/2016 15:00 1477593000
App Phy-500294-16-17 Purchase Supply and Installation of Optical Table Top with passive vibration isolation support (interconnected legs) 28/10/2016 15:00 1477593000
CE-500306-16-17 Purchase Supply and Installation of Workstation with Monitors 28/10/2016 15:00 1477593000
PE-500300-16-17 Purchase Supply and Installation of High Pressure Syringe Pump 28/10/2016 15:00 1477593000
Maint/952074/16-17 Electrical Procurement of electrical items for Day-to- Day Maintenance. 28/10/2016 15:00 1477593000
Maint/952054/16-17 Electrical New wiring with s/fixing of electrical accessories for proposed Conference/Meeting/Presentation Room, wiring for AC in Artificial Photosynthesis Lab & Sensor Lab(Lab of Dr. S.K. Padhi) at the Dept. of Applied Chemistry.” 26/10/2016 15:00 1477420200
Maint/952065/16-17 Electrical New electrical wiring with s/fixing of electrical accessories for proposed Network cum Server room in the space adjacent to Lecture Hall no.-06 in the Ground floor at NLHC. 26/10/2016 15:00 1477420200
Maint/952072/16-17 Electrical Repairing of defective cable supplying power to Jasper Hostel & Emerald Hostel from Substation -01 and from Main feeder pillar of Jasper Hostel to Block –A, B & C Panel Room, replacement of burnt 100A, TPN Tap off Box & bus trunking system at Jasper Hos 26/10/2016 15:00 1477420200
Maint/952076/16-17 Electrical Wiring with s/fixing of electrical accessories in Lab of Dr. R.P. John (Raman Lecture Hall) at the Dept. of Applied Chemistry, XRF Lab at the Dept. of AGL, Rock Mechanics Lab and Chamber of Dr. Hemant Kumar...... 26/10/2016 15:00 1477420200
Maint/952077/16-17 Electrical Wiring with s/fixing of electrical accessories in Multiphase Flow Lab at the Dept. of Petroleum Engg., PH Bathroom at Amber Hostel, wiring for inverter at Health Centre, wiring with s/installation of wall mounting fan....... 26/10/2016 15:00 1477420200
App Chem-500274-16-17 Purchase Purchase of Fluorescence Sectrophotometer with Lifetime Measurement 25/10/2016 15:00 1477333800
Corrigendum Maint-952040-16-17 Electrical Replacement of defective cable supplying power to Science Block from Substation -01. 19/10/2016 15:00 1476815400
Maint/952041/16-17 Electrical Replacement of defective cable supplying essential and non-essential power to 48 Type –V Qtrs., UGC Colony & Qtrs. near Main Gate from Substation-01. 19/10/2016 15:00 1476815400
Maint-958349-15-16 Civil Annual Rate Contract (ARC) for day –to-day Civil repair and Maintenance Work at ISM Campus. 19/10/2016 15:00 1476815400
App Chem-500273-16-17 Purchase Supply and Installation of Gas Chromatography 18/10/2016 15:00 1476729000
INST/500287/16-17 Purchase Installation work of existing AJF telephone cable through GI Pipe in a suitable size of trench 18/10/2016 15:00 1476729000
Hostel-500268-16-17 Purchase Supply and Installation of Water Cooler 18/10/2016 15:00 1476729000
Chemical-500281-16-17 Purchase Supply and Installation of Laptop 18/10/2016 13:00 1476729000
Chemical-500280-16-17 Purchase Supply and Installation of Laptop. 18/10/2016 13:00 1476729000
Chemical-500257-16-17 Purchase Supply and Installation of Atmosphere Controlled Muffle Furnace 14/10/2016 15:00 1476383400
Chemical-500259-16-17 Purchase Supply and Installation of Orbital Incubator Shaker 14/10/2016 15:00 1476383400
Hostel/500278/16-17 Purchase Purchase of Mike System 14/10/2016 15:00 1476383400
ESE-500276-16-17 Purchase Supply and Installation of Ambient SO2 Analyzer 14/10/2016 15:00 1476383400
ESE-500275-16-17 Purchase Supply and Installation of Ambient NOx Analyzer 14/10/2016 15:00 1476383400
INST-500262-16-17 Purchase Supply and Installation of Split AC 14/10/2016 15:00 1476383400
App Chem-500283-16-17 Purchase Purchase of Laminar Air Flow Chamber-Cabinets 14/10/2016 15:00 1476383400
App Chem-500282-16-17 Purchase Purchase of High Speed Table Top Autoclave 14/10/2016 15:00 1476383400
INST/500252/16-17 (Corrigendum) Purchase Supply and Installation of Desktop Computer. 14/10/2016 15:00 1476383400
Maint/958145/16-17 Civil Replacement of damage sheets in Dining Shed at Staff Club 14/10/2016 15:00 1476383400
App Chem-500254-16-17 Purchase Supply and Installation of Fume Hood 14/10/2016 12:00 1476383400
Chemical-500298-16-17 Purchase Supply and Installation of High Resolution and High Speed Camera 10/10/2016 15:00 1476037800
IIIF/Catering Contract/2016 Miscellaneous Catering Service at IIT (ISM) -IIIF, Rajarhat, Kolkata 07/10/2016 16:00 1475778600
ESE-500264-16-17 Purchase Supply and Installation of Ambient CO Analyzer 07/10/2016 15:14 1475778600
ESE-500265-16-17 Purchase Supply and Installation of Handheld Particulate Counter 07/10/2016 15:05 1475778600
Chemical-5258-117 Purchase Supply and Installation of Microprocessor Controlled Refrigerated and Heating Circulator 07/10/2016 15:00 1475778600
Chemical-500260-16-17 Purchase Supply and Installation of Dual Frequency Ultrasonic Bath 07/10/2016 15:00 1475778600
Chemical-500261-16-17 Purchase Supply and installation of Microprocessor Based Electronic Analytical Balance 07/10/2016 15:00 1475778600
MME-5000255-16-17 Purchase Supply and Installation Closed Circuit Hydraulic System With Accumulators and accesories 07/10/2016 15:00 1475778600
ESE-500221-16-17 Reminder Purchase Supply and Installation of Dissolved Oxygen Meter 07/10/2016 15:00 1475778600
ESE-500222-16-17 REMINDER Purchase Supply and Installation of Multi Parameter Analyzer 07/10/2016 15:00 1475778600
Maint/ 952073/16-17 Electrical Purchase of safety equipment for generator operators, electricians,pump operators & other maintenance staff. 05/10/2016 15:00 1475605800
Maint/958183/16-17 Civil Fixing of Name Plate for room no. wash room and 2 no. Retro Reflecting sign board at International Hostel 05/10/2016 15:00 1475605800
Maint/958218/16-17 Civil Providing and fixing of stainless steel letters (Hindi/English) with IIT (ISM) Logo for 3 gates at Campus 05/10/2016 15:00 1475605800
Maint/958181/16-17 Civil Repair work at Scolomin Club at IIT(ISM), Dhanbad 05/10/2016 15:00 1475605800
PE-500250-16-17 Purchase Supply and Installation Gas Hydrate Autoclave System 04/10/2016 15:00 1475519400
M/500247/16-17 Purchase Supply and Installation of Desktop Computer 04/10/2016 15:00 1475519400
Hostel-500235-16-17 Purchase Supply and Installation CCTV System 04/10/2016 15:00 1475519400
Mech-500271-16-17 Purchase Supply and installation of Data Acquisition system 04/10/2016 15:00 1475519400
Mech-500207-16-17 (Reminder) Purchase Supply and Installation of Micro Hardness Measurement Software With Necessary Attachment 04/10/2016 15:00 1475519400
Corrigendum Maint/958180/16-17 Civil Reconstruction of broken boundary wall in front of Hawa Mahal in Teachers Colony 03/10/2016 16:00 1475433000
Maint/958187/16-17 Civil Roof repair work at ED Hall, Mechanical Engineering Department 03/10/2016 16:00 1475433000
Maint/958192/16-17 Civil Repair & painting Substation -03 and adjoing pump house and repair work at room no. 210 at MME 03/10/2016 16:00 1475433000
Maint/958194/16-17 Civil Replacement of damage PVC door shutter in bathroom in ‘D’ Block at Amber Hostel 03/10/2016 16:00 1475433000
Maint/958195/16-17 Civil Making bathroom with shed at Qrt. No. Vee/6 03/10/2016 16:00 1475433000
IIIF/500214/16-17 Purchase Supply and Installation of Audio-Visual Facility 03/10/2016 15:52 1475433000
Maint/958195/16-17 Civil Making bathroom with shed at Qrt. No. Vee/6 03/10/2016 15:00 1475433000
IIIF-500213-16-17 Purchase Supply and installation of Desktop computer and Laptops 30/09/2016 15:00 1475173800
ESE-500239-16-17 Purchase Supply and Installation of Real Time PCR System 30/09/2016 15:00 1475173800
SAH-500168-16-17 Purchase Supply and Installation of Gym Equipments 30/09/2016 15:00 1475173800
M/500240/16-17 Purchase Supply and Installation of Laptop 30/09/2016 15:00 1475173800
CE/500256/16-17 Purchase Supply and Installation of Dynamic Response Monitoring System 30/09/2016 15:00 1475173800
EE/500263/16-17 Purchase Supply and Installation Digital Storage Oscilloscope 30/09/2016 15:00 1475173800
IIIF-500232-16-17 Purchase Supply and Installation of Setting up 10 Mbps Internet Leased Line at ISM Industry Interaction Facility, New Delhi. 30/09/2016 15:00 1475173800
Maint/958150/16-17 Civil Repair and maintenance work (Inside & Outside) at Old Petroleum Engineering Department 28/09/2016 15:00 1475001000
Maint/952040/16-17 Electrical Replacement of defective cable supplying power to Science Block from Substation -01. 28/09/2016 15:00 1475001000
Maint/952048/16-17 Electrical Electrical renovation of Applied Geology Dept. (Ground Floor) vacated by AGP Dept. 28/09/2016 15:00 1475001000
Maint/952069/16-17 Electrical Repairing of defective cable supplying power to Block –A,B,C,D, & E at Sapphire Hostel. 28/09/2016 15:00 1475001000
Maint/958163/16-17 Civil Repair/replacement work at SAH ISM Campus 28/09/2016 15:00 1475001000
Maint/958172/16-17 Civil Replacement of damaged RCC slab of fixing of wire mesh in the Qrt. No. B/2 28/09/2016 15:00 1475001000
Maint/958175/16-17 Civil Distempering and painting work in the Qrt. No. flat/26 & flat/47 28/09/2016 15:00 1475001000
Maint/958191/16-17 Civil Repair and maintenance work of shed room in the Children’s park at Staff Colony, ISM Campus 28/09/2016 15:00 1475001000
Corrigendum Maint/958141/16-17 Civil Providing and fixing grill at stair wall in four block in Amber Hostel 27/09/2016 15:00 1474914600
Maint/952052/16-17 Electrical New electrical wiring with s/fixing of electrical accessories for Single Crystal X-ray Diffractometer in CRF at New Petroleum Engg. Dept. 26/09/2016 15:00 1474828200
Maint/952062/16-17 Electrical Wiring with s/installation of wall mounting fan in Machine Dynamics Lab & HOD Chamber (Prof. R. K. Dash), M. Tech Design Class Room (Room no. -322), Wiring with s/installation of ceiling fan...... 26/09/2016 15:00 1474828200
Maint/952063/16-17 Electrical Wiring with s/fixing of electrical accessories in M.Sc. Practical Lab, Lab of Dr. H.P. Nayek, wiring with s/fixing of electrical accessories & shifting of wall mounting fan..... 26/09/2016 15:00 1474828200
Maint/952047/15-16 Electrical Replacement of defective cable from Feeder pillar (Near EDC Extension) at back portion of CSE Dept. 26/09/2016 15:00 1474828200
Maint/958177/16-17 Civil Repair & reconstruction of drain, courtyard flooring including painting of vacant Qrts at E/11 in Teachers Colony 26/09/2016 15:00 1474828200
Maint/958180/16-17 Civil Reconstruction of broken boundary wall in front of Hawa Mahal in Teachers Colony 26/09/2016 15:00 1474828200
Maint/958186/16-17 Civil Fixing of long size wall to wall mirror in Dancing Club at (SAC) 26/09/2016 15:00 1474828200
M-500225-16-17 Purchase Supply and Installation of HP Workstation 23/09/2016 15:00 1474569000
CE/500185/16-17 REMINDER Purchase Supply and Installation of Multichannel Analysis of Surface Waves (MASW) 23/09/2016 15:00 1474569000
INST-500245-16-17 Purchase Supply and Installation of LCD Projectors 23/09/2016 15:00 1474569000
INST-500227-16-17 (Amended) Purchase Purchase of Stationary Items 20/09/2016 17:15 1474309800
M-500217-16-17 Purchase Supply and Installation of DGMS approved Personal Dust Samplers 20/09/2016 15:00 1474309800
Mech-500241-16-17 Purchase Supply and Installation of Set of 55 Mechanical Training Modules 20/09/2016 15:00 1474309800
Hostel-500249-16-17 Purchase Supply and Installation of water storage cum RO Purification system 20/09/2016 15:00 1474309800
ESE-500223-16-17 Purchase Supply and Installation of Automatic Nitrogen Protein Analyzer 16/09/2016 15:00 1473964200
FME-500229-16-17 Purchase Supply and Installation of Rotary Vacuum Drum Filter 16/09/2016 15:00 1473964200
MME-500236-16-17 Purchase Supply and Installation of Laptop with preloaded operating system 16/09/2016 15:00 1473964200
ISM-500190-15-16 Extended Purchase Maintenance Contract for water cooler cum Purifier at ISM Hostels 16/09/2016 15:00 1473964200
Maint/958153/16-17 Civil Replacement of damage floor & wall tiles in wash room and after repair work at Jasper Hostel 14/09/2016 15:00 1473791400
Maint/958156/16-17 Civil Repair and maintenance work at vacant Qrt. No. III/C-159 at Staff Colony 14/09/2016 15:00 1473791400
Maint/958160/16-17 Civil Distempering of rooms painting of door window and grinding polishing of mosaic floor & repair work at UGC/flat-13,20,23 14/09/2016 15:00 1473791400
Maint/958164/16-17 Civil Distempering and painting work in the Qrt. No. flat/22 14/09/2016 15:00 1473791400
Maint/958148/16-17 Civil Replacement of damage pipe line in staff colony 6 no pump house & 150 Qrt type IV at GR Side in ISM Campus 14/09/2016 15:00 1473791400
M-500233-16-17 Purchase Supply and Installation of Dry Filling Machine 13/09/2016 15:00 1473705000
M-500211-16-17 Purchase Supply and Installation of Crossing Point Temperature CPT Apparatus 09/09/2016 15:00 1473359400
INST(Store)-500228-16-17 Purchase supply of Xerox Paper (1000 Pkt) 09/09/2016 15:00 1473359400
INST(Store)-500227-16-17 Purchase Supply of stationary items 09/09/2016 15:00 1473359400
cc-500224-16-17 Purchase Expression of Interest For Appointment of an Agency for Augmentation of Campus Wide Network, at ISM Dhanbad for 5 years on turnkey basis 07/09/2016 15:00 1473186600
Maint/958123/16-17 Civil Replacement of damage pipe line at Old PG-3 Hostel 07/09/2016 15:00 1473186600
Maint/958125/16-17 Civil Fixing of shed (3 no) door closer in all rooms and other necessary repair work at International Hostel 07/09/2016 15:00 1473186600
Maint/958135/16-17 Civil Water supply pipe line work at B/2, Scolomin House, D/25 old 07/09/2016 15:00 1473186600
Maint/958138/16-17 Civil Laying water supply pipe line for gardening in front of Jasper Hostel 07/09/2016 15:00 1473186600
Maint/958144/16-17 Civil Replacement of damaged pipe line C2/17 Hawa Mahal in ISM Campus 07/09/2016 15:00 1473186600
M-500203-16-17 Purchase Supply and Installation of Jaw Crusher 06/09/2016 15:00 1473100200
MS-500218-16-17 Purchase Supply and Installation of ACs 06/09/2016 15:00 1473100200
ESE-500099-16-17 REMINDER Purchase Supply and Installation of SONY VPL-Ex-250 LCD Projector 06/09/2016 15:00 1473100200
ESE-500194-16-17-Extended Purchase Purchase of GC-MS 06/09/2016 15:00 1473100200
ISM-500190-15-16 REMINDER Purchase Maintenance Contract for Water Cooler cum Purifier at ISM Hostels. REMINDER 05/09/2016 15:00 1473013800
EE-500187-16-17 Purchase Supply and Installation of Desktop 02/09/2016 15:00 1472754600
CE-500185-16-17 Purchase Supply and Installation of Multichannel Analysis of surface waves (MASW) 02/09/2016 15:00 1472754600
ESE-500028-16-17 REMINDER Purchase Supply and Installation of Atomic Absorption Sectrophotometer 02/09/2016 15:00 1472754600
MME-500162-16-17 (Revised) Purchase Supply & Installation of Desktop Computer on buy back basis 02/09/2016 15:00 1472754600
INST-500216-16-17 Purchase Purchase of Answer Book 02/09/2016 15:00 1472754600
CE-500205-16-17 Purchase Supply and Installation of Experimental setup for study of failure behaviour of solids under vertical impulsive force 02/09/2016 15:00 1472754600
CE-500205-16-17 With Annexure Purchase Supply and Installation of Experimental setup for study of failure behaviour of solids under vertical impulsive force 02/09/2016 15:00 1472754600
Maint/958115/16-17 Civil Repair & maintenance of vacant Qrt. No. III/V-10 at ISM Campus 02/09/2016 15:00 1472754600
Maint/958116/16-17 Civil Repair of steel glazed window and fixing of moveable hinge in windows at Mine Electrical Laboratory 02/09/2016 15:00 1472754600
Maint/958129/16-17 Civil Repair and making chajja outside the window for Mine Ventilation Lab (1st floor) in ME Department 02/09/2016 15:00 1472754600
EDC-500212-16-17 Purchase Design, Manufacturing, Supply, Installation & Commissioning of Ductable Air Conditioner system for Interview rooms in T&P Cell at ISM Dhanbad 01/09/2016 15:00 1472668200
EDC-500212-16-17 Revised Purchase Design Manufacturing Supply Installation and Commissioning of Ductable Air Conditioner system for Interview rooms in T and P cell at ISM Dhanbad 01/09/2016 15:00 1472668200
Corrigendum Maint-952055-16-17 Electrical Procurement of electrical items for Day-to- Day Maintenance. 31/08/2016 15:00 1472581800
ESE-500194-16-17 Purchase Supply and Installation of GC-MS 30/08/2016 15:00 1472495400
Mech-500207-16-17 Purchase Supply and Installation of Micro Hardness Measurement Software 30/08/2016 15:00 1472495400
Maint/952039/16-17 Electrical S/laying of cable from JSEB power supply for Air-conditioners (ACs) of NLHC from Substation-3. 29/08/2016 15:00 1472409000
Maint/952058/16-17 Electrical Replacement of defective aluminium bus bar with copper bus bar in L.T. Panel at Substation no. -03. 29/08/2016 15:00 1472409000
Maint/952059/16-17 Electrical Repairing of burnt panel for essential power supply to front of C-Type Qtr. no.-03, dismantling and re-installation of control panel....... 29/08/2016 15:00 1472409000
Maint/952060/16-17 Electrical Repairing of street lights/flood lights/garden lights at Sports Complex, Upper and Lower Ground, Jasper Hostel, Amber Hostel, Emerald Hostel, Diamond Hostel, Sapphire Hostel, Ruby Hostel, 150 Type-IV Qtrs., Herritage Canteen and other places inside ISM Ca 29/08/2016 15:00 1472409000
Maint/952061/16-17 Electrical Repairing of defective cable from substation -02 to Dug Well no. -03 and Pump no. -01 supplying power to Pumps at Teachers Colony, Shifting of 15 HP starter at Bansbagan Pump. 29/08/2016 15:00 1472409000
W-500199-6-17 Purchase Purchase of Block Boards, Teak Beads and Laminates 26/08/2016 15:00 1472149800
FME-500142-16-17 REMINDER Purchase Supply and Installation of Laboratory Flotation Machine 26/08/2016 15:00 1472149800
Maint/958113/16-17 Civil Repair & painting work at vacant Qrt. at G-3 Staff Colony 26/08/2016 15:00 1472149800
Maint/958126/16-17 Civil Repair of leaking roof with APP (Ten Years Guarantee) at Qrt. No. E/14 26/08/2016 15:00 1472149800
Maint/958128/16-17 Civil Roof repair by APP work at Qrt. No. II-V/4 26/08/2016 15:00 1472149800
Maint/958134/16-17 Civil Demolishing of overhead damage RCC water tank and replacement of PVC water tank at Diamond Hostel roof 26/08/2016 15:00 1472149800
Maint/958140/16-17 Civil Re-construction of RCC slab over the cable trench in Jasper Hostel 26/08/2016 15:00 1472149800
Maint/958141/16-17 Civil Providing and fixing grill at stair wall in four block in Amber Hostel 26/08/2016 15:00 1472149800
FME-500180-16-17 Purchase Supply and installation of Bromoform 23/08/2016 15:00 1471890600
IIIF-500163-16-17 Purchase Supply and Installation of 32",43" and 65" inch Smart LED TV 23/08/2016 15:00 1471890600
ECE-500184-16-17 Purchase Supply and Installation of walk on RF absorbers for Anechoic Chamber 23/08/2016 15:00 1471890600
CE-500190-16-17 Purchase Supply and Installation of Trafic data display and extraction digital panel 23/08/2016 15:00 1471890600
CE-500189-16-17 Purchase Supply and Installation of Digital traffic data acquisition system with wide angle lens 23/08/2016 15:00 1471890600
CE-500186-16-17 Purchase Supply and Installation of Experimental Setup for Testing and Characterization of masonry wallet 23/08/2016 15:00 1471890600
ISM-500190-15-16 Purchase Maintenance contract for Water cooler cum purifiers at ISM Hostels - 150 Nos 22/08/2016 20:49 1471804200
M-501032-15-16 Purchase Supply and Installation of Digital Video camera cum digital SLR still camera with accessories REMINDER 19/08/2016 15:00 1471545000
Mech-500098-16-17 REMINDER Purchase Supply and Installation of Thermal Conductivity Analyzer 19/08/2016 15:00 1471545000
PE-500120-16-17 REMINDER Purchase Supply and Installation of UPS 5000VA with battery 19/08/2016 15:00 1471545000
PE-500119-16-17 REMINDER Purchase Supply and Installation of Line Interactive UPS 1500VA 19/08/2016 15:00 1471545000
EE-500192-16-17 Revised Specification Purchase Supply & Installation of Double Fed Induction Generator 01 No (DFIG) with Drive System 19/08/2016 15:00 1471545000
Maint/952055/16-17 Electrical Procurement of electrical items for Day-to- Day Maintenance. 18/08/2016 15:00 1471458600
Mech Engg-500130-16-17 Purchase Supply and Installation of Machine Fault Simulator 17/08/2016 15:00 1471372200
EE-500174-16-17 Purchase Supply and Installation of Automatic Karl Fischer Titration based moisture analyzer 16/08/2016 15:00 1471285800
EE-500172-16-17 Purchase Supply and installation of Circuit Trainers Kit 16/08/2016 15:00 1471285800
AGP-500181-16-17 Purchase Supply and Installation of 5.2 KVA Online UPS 16/08/2016 15:00 1471285800
CE-500156-16-17 Purchase Supply and Installation of Water Storage Cooler cum RO purifier in Single Unit with 20" Pre-filter stabilizer 16/08/2016 15:00 1471285800
Maint/952144/15-16 Electrical Internal wiring and s/laying of cable for power supply to additional Air- conditioners (ACs) of Computer Centre. 16/08/2016 15:00 1471285800
Maint/952149/15-16 Electrical S/laying of cable from Feeder pillar to vertical DB and wiring with s/fixing of electrical accessories for ACs power from JSEB supply only to Workshop. 16/08/2016 15:00 1471285800
Corrigendum Maint/958072/16-17 Civil Construction of shed (50ft x 20ft) at backside of Jasper Hostel 16/08/2016 15:00 1471285800
Maint-958099-16-17 Civil Aluminium sliding window and front aluminium door at Fluid Flow Machine Laboratory at MME. 16/08/2016 15:00 1471285800
Maint-958110-16-17 Civil Fixing of aluminium mosquito net for window at warden office, common hall, visitor room & reading room. 16/08/2016 15:00 1471285800
App Chem-500169-16-17 Purchase Supply and Installation of Mass Flow Controller 12/08/2016 15:00 1470940200
Corrigendum Maint/958083/16-17 Civil Making RCC working table with granite top at Metrology Lab at New Workshop Building 05/08/2016 15:00 1470335400
Corrigendum Maint/958104/16-17 Civil Reconstruction of boundary wall back side Substation Dhaiya at ISM Campus 05/08/2016 15:00 1470335400
Corrigendum Maint/958106/16-17 Civil Repair and painting work at HOD Chamber, Class Room at AGL and repair of Aluminium door shutter at DSW Section 05/08/2016 15:00 1470335400
Maint/952050/16-17 Electrical Procurement of electrical items for Day-to- Day Maintenance. 03/08/2016 15:00 1470162600
Maint/958072/16-17 Civil Construction of shed (50ft x 20ft) at backside of Jasper Hostel 03/08/2016 15:00 1470162600
Maint/952005/16-17 Electrical New wiring with s/fixing of electrical accessories in M.Sc. Practical Lab at the Dept. of Applied Chemistry. 01/08/2016 15:00 1469989800
Maint/952011/16-17 Electrical Wiring with s/fixing of electrical accessories in shooting Range at Teachers Colony. 01/08/2016 15:00 1469989800
Maint/952021/16-17 Electrical Internal wiring for power supply to additional Air-conditioners (ACs) of MME, Mechanical Engg. & CSE Dept. 01/08/2016 15:00 1469989800
Maint/952033/16-17 Electrical S/laying of cable, wiring with s/fixing of electrical accessories in Lab of. Dr. Soumitra. Maity at the Dept. of Applied Chemistry. 01/08/2016 15:00 1469989800
Maint/952053/16-17 Electrical Shifting of 15inch exhaust fan in the Bathroom, wiring with s/fixing of electrical accessories in Lab of Dr. R. P. John (Right side of Old Lecture Hall) at the Dept. of Applied Chemistry, Mine electrical Technology Lab at the Dept. of MME, Room no. -206 01/08/2016 15:00 1469989800
FME-500142-16-17 Purchase Supply and Installation of Laboratory Flotation Machine 29/07/2016 15:00 1469730600
Hostel-500146-16-17 Purchase Supply and Installation of Split AC 29/07/2016 15:00 1469730600
CE-500085-16-17 (Reminder) Purchase Drilling Boreholes, Collection of Undisturbed/Disturbed Samples and Geotechnical Investigations with Laboratory and Field Test in Backfilled Open Cast Coal Mines in Heterogeneous Soil Consisting of Soil and Boulders in Jagannath coalfields and Bharatpur C 29/07/2016 15:00 1469730600
PE-5000125-16-17 Purchase Supply and Installation of Ultrasonic Homogenizer 01 No 26/07/2016 15:00 1469471400
PE-5000127-16-17 Purchase Supply and installation of Split AC 1.5 ton 05nos 26/07/2016 15:00 1469471400
PE-5000126-16-17 Purchase Supply and Installation of LCD Projevtor 02 Nos 26/07/2016 15:00 1469471400
MME-5000129-16-17 Purchase Supply and installation of Portable Ultrasonic Flow Detector with accessories 01 no 26/07/2016 15:00 1469471400
Mech Engg-500130-16-17 Purchase Supply and Installation Machine Fault Simulator 26/07/2016 15:00 1469471400
Hostel-500145-16-17 Purchase Supply and Installation of split AC 1 ton 24 Nos 26/07/2016 15:00 1469471400
Maint/958109/16-17 Civil Dismantling of 04 Nos. garage with other necessary allied works and repair of one garage door for garage no.21 26/07/2016 15:00 1469471400
Re-Tender Maint/958137/14-15 Civil Renovation/modification of kitchen, toilet, bathroom at Qrt. No. II/B-73 26/07/2016 15:00 1469471400
Corrigendum Maint/958082/16-17 Civil Repair of drain plinth protection at Qrt. No. UGC/9 26/07/2016 15:00 1469471400
Corrigendum Maint/958086/16-17 Civil Minor civil repair/replacement work at Qrt. No. II/2 & II/1 Modified at Staff Colony 26/07/2016 15:00 1469471400
Hostel-500115-16-17 Purchase Supply and Installation of Air Conditionar 1.5 tonn for DSW office on buy back basis 22/07/2016 15:00 1469125800
Hostel-500115-16-17 Purchase Supply and Installation of Air Conditioner 1.5 ton for DSW office (With Specifications) 22/07/2016 15:00 1469125800
App Phy-500121-16-17 Purchase Supply and Installation of Stereo Zoom Microscope 22/07/2016 15:00 1469125800
Maint/958076/16-17 Civil Making aluminium door shutter of the working table at Research Laboratory at Applied Chemistry Department 22/07/2016 15:00 1469125800
Maint/958083/16-17 Civil Making RCC working table with granite top at Metrology Lab at New Workshop Building 22/07/2016 15:00 1469125800
Maint/958102/16-17 Civil Fixing of sanitary work at Qrt. No. (Block-9, flat/123), (Block-7, flat/100), D/22, Block-3, flat/45, Block-7, flat/105, H/5 Staff Colony & Block-7, flat No.94 22/07/2016 15:00 1469125800
Maint/958104/16-17 Civil Reconstruction of boundary wall back side Substation Dhaiya at ISM Campus 22/07/2016 15:00 1469125800
Maint/958106/16-17 Civil Repair and painting work at HOD Chamber, Class Room at AGL and repair of Aluminium door shutter at DSW Section 22/07/2016 15:00 1469125800
Maint/958107/16-17 Civil Fixing of sanitary items at Qrt. No. 65, Block-5, H/9,D/16 Type IV, N/III/9, restoration ecology laboratory (ESE), Chemical flooding lab (PE) and taking out aluminium partition at Applied Chemistry Department 22/07/2016 15:00 1469125800
Maint/952049/16-17 Electrical Procurement of electrical items for Day-to- Day Maintenance. 20/07/2016 15:00 1468953000
FME-500117-16-17 Purchase Supply and Installation of Electronics Analytical Balance 19/07/2016 15:00 1468866600
Chem-500114-16-17 Purchase Supply and Installation of Microprocessor Controlled Refrigerated and Heating Circulator 19/07/2016 15:00 1468866600
Corrigendum Maint/958056/16-17 Civil Repair of cistern replacement of sink cock PVC outlet pipe at EDC 18/07/2016 15:00 1468780200
Corrigendum Maint/958058/16-17 Civil Distempering, painting and repair work at Qrt. No. UGC enclave flat No. 2 18/07/2016 15:00 1468780200
Corrigendum Maint/958374/15-16 Civil Repair of seepage of roof and minor repair work at Qrt. No. UGC/ flat-22 18/07/2016 15:00 1468780200
Corrigendum Maint/958390/15-16 Civil Minor civil repair/replacement work at Qrt. No. Opal Hostel, II/53, UGC/9 18/07/2016 15:00 1468780200
Corrigendum Maint/958412/15-16 Civil White washing, distempering & painting work at vacant Qrt. No. D/16 (old) 18/07/2016 15:00 1468780200
DSW/ Students Insurance/2016 -17 Miscellaneous NIT for Student Insurance policy for the academic year 2016-17 18/07/2016 14:50 1468780200
Mech Engg-500098-16-17 Purchase Supply & installation of Thermal Conductivity Analyzer 15/07/2016 15:00 1468521000
EE-500049-16-17 Purchase Supply and Installation of Brushless Doubly Fed REluctance Motor with Intelligent Power Module and Electronic Load Setup (Reminder) 15/07/2016 15:00 1468521000
Mech Engg-500104-16-17 Purchase Supply and Installation of Labview and Hardware 12/07/2016 15:00 1468261800
Mech Engg-500103-16-17 Purchase Supply of High speed camera with suitable lens and accessories 12/07/2016 15:00 1468261800
Re- Tender Maint/958032/15-16 Civil Renovation of B.Tech Practical Chemistry Laboratory at Science Block (2nd floor) 12/07/2016 15:00 1468261800
Maint/958086/16-17 Civil Minor civil repair/replacement work at Qrt. No. II/2 & II/1 Modified at Staff Colony 12/07/2016 15:00 1468261800
Maint/958089/16-17 Civil Repair of wall at Amber Hostel 12/07/2016 15:00 1468261800
Maint/958092/16-17 Civil Repair of leaking roof at Qrt. No. II/2 (Modified) and II/108 at Staff Colony 12/07/2016 15:00 1468261800
Maint/958096/16-17 Civil Providing and fixing flush door and stay at Amber Hostel 12/07/2016 15:00 1468261800
Maint/958097/16-17 Civil P/F fly proof wire mesh window shutter with aluminium framing ground and 1st floor at Ruby Annexe-II 12/07/2016 15:00 1468261800
Maint/952007/16-17 Electrical New working with s/fixing of electrical accessories in sitting Chamber and Lab of Dr. Sumanta Kumar Sahu at the Dept. of Applied Chemistry. 11/07/2016 15:00 1468175400
Maint/952043/16-17 Electrical Internal wiring for power supply to Air – conditioners (ACs) of Ruby Annex-II Hostel. 11/07/2016 15:00 1468175400
Maint/952044/16-17 Electrical S/fixing of DB, MCCB, s/installation of control panel for power supply to Air-conditioners (ACs) of Ruby Annex-II Hostel. 11/07/2016 15:00 1468175400
Maint/952045/16-17 Electrical S/laying of cable for power supply to Air – conditioners (ACs) of Ruby Annex-II Hostel. 11/07/2016 15:00 1468175400
Maint/952046/16-17 Electrical Wiring with s/fixing of electrical accessories in Organic Lab at the Dept. of Applied Chemistry, Chamber (Cabin no. -1) of Sri Amitava Mandal....... 11/07/2016 15:00 1468175400
Mech Engg-500095-16-17 Purchase Supply & installation of Computerized Open Circuit sub Sonic Wind Tunnel 08/07/2016 15:00 1467916200
App Chem-500100-16-17 Purchase Supply and Installation of Fume Hood 08/07/2016 15:00 1467916200
MS-500102-16-17 Purchase Supply and Installation of ACs 08/07/2016 15:00 1467916200
INST-500105-16-17 Purchase Purchase of Wall Clock 08/07/2016 15:00 1467916200
INST-500101-16-17 Purchase Purchase of Notebook 08/07/2016 15:00 1467916200
Maint/958066/16-17 Civil Distempering & painting work at flat no.27, UGC enclave 08/07/2016 15:00 1467916200
Maint/958068/16-17 Civil Minor civil repair/replacement work at Substation No.- 2 08/07/2016 15:00 1467916200
Maint/958070/16-17 Civil Repair of underground sewage line and others repair work at Applied Chemistry Lab 08/07/2016 15:00 1467916200
Maint/958075/16-17 Civil Repair work at Account Section, New Pet Building, FME Deptt, Applied Chemistry, CSE, Chemical Engg. & CRF Deptt 08/07/2016 15:00 1467916200
Maint/958078/16-17 Civil Distempering, painting and minor repair work at vacant Qrt. No. 120/W 08/07/2016 15:00 1467916200
Maint/958081/16-17 Civil Repair of broken boundary wall near Staff Colony II/Qrts 08/07/2016 15:00 1467916200
Maint/958082/16-17 Civil Repair of drain plinth protection at Qrt. No. UGC/9 08/07/2016 15:00 1467916200
Mech Engg-500090-16-17 Purchase Supply & installation of Equipment for surface roughness measurement 01 no. 05/07/2016 15:00 1467657000
M/500096/16-17 Purchase Supply and Installation of Automatic Drill Property Analysis system 05/07/2016 15:00 1467657000
CA/500094/16-17 Purchase Purchase of Ladder (Tiltable Tower extension Ladder) Variation Degree Ladder 05/07/2016 15:00 1467657000
Lib-500036-16-17 Retender Purchase Supply and Installation of Water Cooler cum Purifier 05/07/2016 15:00 1467657000
CE-500054-16-17 (REMINDER) Purchase Supply and Installation of Shrinkage and Restrained Measurement Instrument of Concrete 01/07/2016 15:00 1467311400
Hostel-500097-16-17 Purchase Supply and Installation of Split AC with Stabilizer 01/07/2016 15:00 1467311400
ECE-500044-16-17 REMINDER Purchase Supply and installation of RF Absorbers for Anechoic Chamber 01/07/2016 15:00 1467311400
Hostel-500097-16-17 Purchase Supply and Installation of Split AC with Stabilizer 01/07/2016 15:00 1467311400
CRF-500091-16-17 Purchase Supply and Installation of Split AC with Stabilizer 01/07/2016 15:00 1467311400
Maint/958064/16-17 Civil Making RCC slab at Smart Lab (1st floor) Applied Chemistry 01/07/2016 15:00 1467311400
Maint/958065/16-17 Civil White washing, distempering and minor repair/replacement work at Qrt. No. II/10 (Modified), II/19, II/27 at Staff Colony 01/07/2016 15:00 1467311400
Maint/958067/16-17 Civil Repairing of steel glazed window of TOM Laboratory Room No. 314 at Mechanical Department 01/07/2016 15:00 1467311400
Corrigendum Maint/958374/15-16 Civil Repair of seepage of roof and minor repair work at Qrt. No. UGC/ flat-22 01/07/2016 15:00 1467311400
Corrigendum Maint/958390/15-16 Civil Minor civil repair/replacement work at Qrt. No. Opal Hostel, II/53, UGC/9 01/07/2016 15:00 1467311400
Corrigendum Maint/958412/15-16 Civil White washing, distempering & painting work at vacant Qrt. No. D/16 (old) 01/07/2016 15:00 1467311400
Mech-500080-16-17 Purchase purchase of Ultrasonic Machine No. 01 28/06/2016 15:00 1467052200
CE-500085-16-17 Purchase Constructing structures on backfilled opencast coal mines 28/06/2016 15:00 1467052200
App Phy-500089-16-17 Purchase Supply and Installation of Source Measure Unit (SMU) with time-resolved photocurrent measurement facility 28/06/2016 15:00 1467052200
Maint/952006/16-17 Electrical Electrical wiring with s/fixing of 63A Changeover switch for 03 no. of UPS at NLHC. 28/06/2016 15:00 1467052200
Maint/952143/15-16 Electrical Wiring with s/fixing of electrical accessories in M.Sc. Chemistry Practical Lab for Gas chromatograph and GC – Mass Spectrometer machine at the Dept. of Applied Chemistry. 28/06/2016 15:00 1467052200
Maint/958060/16-17 Civil Renovation of organic/inorganic laboratory at Chemistry Department at Science Block 28/06/2016 15:00 1467052200
Maint/958071/16-17 Civil Repair & painting works at office chamber of Dr. Swapan Dey (AP) Department of Applied Chemistry 28/06/2016 15:00 1467052200
Maint/958090/16-17 Civil Repair of steel window and fixing of neoprene gasket for airtight/window latch and grinding and polishing of mosaic/kota stone floor etc at Ruby Annex-II 28/06/2016 15:00 1467052200
Maint/958091/16-17 Civil Repair and replacement of floor/wall tiles and water supply sanitary fittings etc at wash room in Ruby Annex-II 28/06/2016 15:00 1467052200
Mech-500079-16-17 Purchase Purchase of Reciprocating type Multistage Air Compressor test rig. 24/06/2016 15:00 1466706600
Maint/958052/16-17 Repair and maintenance work at vacant Qrt. No. H/4,H/10 at Staff Colony 24/06/2016 15:00 1466706600
Maint/958055/16-17 Making precoated galvanized steel shed in the courtyard of Qrt. No. H/4, H/10 at Staff Colony 24/06/2016 15:00 1466706600
Maint/958056/16-17 Repair of cistern replacement of sink cock PVC outlet pipe at EDC 24/06/2016 15:00 1466706600
Maint/958057/16-17 Repair of approach road & tree guard floor etc of Bungalow No. 149 24/06/2016 15:00 1466706600
Maint/958058/16-17 Distempering, painting and repair work at Qrt. No. UGC enclave flat No. 2 24/06/2016 15:00 1466706600
Maint/958062/16-17 Civil Distempering and painting work at Qrt. No. Flat/45, UGC Enclave 22/06/2016 15:00 1466533800
Maint/958080/16-17 Civil Distempering and painting work at vacant Qrt. No. B/7-98 and B/10-146 at GR Side 22/06/2016 15:00 1466533800
Maint/958095/16-17 Civil Replacement of sewage pipe line and sanitary fittings at Shanti Bhawan 22/06/2016 15:00 1466533800
Mech-500087-16-17 Purchase purchase of Data Acquisition System, No.01 21/06/2016 15:00 1466447400
M-500086-16-17 Purchase Supply and Installation of Strain gauge based Extensometers for measuring strains in rock core sample 21/06/2016 15:00 1466447400
Maint/958035/16-17 Civil Renovation of M-Sc Chemistry (one half) Laboratory at Applied Chemistry Department 20/06/2016 15:00 1466361000
Maint/958044/16-17 Civil Repair and painting work of walls grills etc at UGC Colony and enclave area at ISM Campus 20/06/2016 15:00 1466361000
Maint/958049/16-17 Civil White washing, distempering and painting work at the vacant Qrt. No. D/4(old) & D/3 (old) 20/06/2016 15:00 1466361000
Maint/958050/16-17 Civil Repair work at Extension EDC Building 20/06/2016 15:00 1466361000
Maint/958051/16-17 Civil Repair and maintenance work at vacant Qrt. No. II/3,II/B-67,68 & 71 at Staff Colony 20/06/2016 15:00 1466361000
Maint/958063/16-17 Civil Repair/replacement of G.I. pipe line for water cooler at Opal Hostel 20/06/2016 15:00 1466361000
Mech Engg-537023-15-16 (Reminder) Purchase purchase of 10 Channel Input & 2 Channel Output (Signal Generator) Data Acquisition System 17/06/2016 15:00 1466101800
Mech-500082-16-17 Purchase purchase of electronics Analytical No 01 17/06/2016 15:00 1466101800
Mech-500078-16-17 Purchase Purchase of High Speed Camera With Lens No.01 17/06/2016 15:00 1466101800
Mech-500073-16-17 Purchase purchase of data Acquisition System 17/06/2016 15:00 1466101800
Mech-500076-16-17 Purchase Purchase of High Speed Camera With Lens No.01 17/06/2016 15:00 1466101800
App Phy-500083-16-17 Purchase Supply and Installation of low Noise DPSS Solid State Laser with Power Supply 17/06/2016 15:00 1466101800
Mech-500077-16-17 Purchase purchase of Optical Honeycomb Breadboard Table Top No.01 17/06/2016 15:00 1466101800
Maint/958061/16-17 Civil Repair of drain, stone pitching & fitting of earth at Rock Garden ISM Campus 17/06/2016 15:00 1466101800
Maint/958088/16-17 Civil A/R and maintenance work (Inside) at Ruby Hostel Annexe II 17/06/2016 15:00 1466101800
Corrigendum Maint/958467/15-16 Civil P/F aluminium sliding windows at Office chamber of Dr. A.R.Dixit 17/06/2016 15:00 1466101800
Maint/958030/16-17 Civil White washing, distempering and minor civil repair/replacement of Qrt. No. H/14 15/06/2016 15:00 1465929000
Maint/958031/16-17 Civil White washing, distempering & minor civil repair/replacement work at Qrt. No. II/2 Modified ISM Campus 15/06/2016 15:00 1465929000
Maint/958032/16-17 Civil Repair work at Server Room at Computer Centre 15/06/2016 15:00 1465929000
Maint/958033/16-17 Civil Distempering work at NCC mess at ISM Campus 15/06/2016 15:00 1465929000
Maint/958045/16-17 Civil Making brick wall and IRC fabric top triangular fencing near pump house and turning point of Amber Hostel 15/06/2016 15:00 1465929000
Maint/958048/16-17 Civil Repair/replacement of G.I. pipe line, valve etc at NLHC,H/9, N/G-6, Shanti Bhawan, ESE Department 15/06/2016 15:00 1465929000
FME-500053-16-17 Purchase Supply and Installation of Flue gas Analyser 14/06/2016 15:00 1465842600
HC-518006-15-16 Purchase Outsourcing of Medicines 14/06/2016 15:00 1465842600
ECE-500016-16-17 RE-TENDER Purchase Supply and Installation of RF Absorbers for Anechoic Chamber 14/06/2016 15:00 1465842600
Maint/952030/16-17 Electrical Lowering the 7.5 HP pump, s/laying of 50 mm. G.I. pipe, flat cable and s/installation of panel in new deep bore near UGC Colony 14/06/2016 15:00 1465842600
Maint/952031/16-17 Electrical Wiring with s/fixing of electrical accessories for fume hood machine in Lab of Dr. Sagar Pal (right part of Raman Research Lab, 1st floor ), Lab of Dr. R.P. John...... 14/06/2016 15:00 1465842600
Maint/952032/16-17 Electrical Wiring with s/installation of 15” exhaust fan and light fitting in Chemistry Lab, Lab of Dr. Somnath Yadav, wiring with s/fixing....... 14/06/2016 15:00 1465842600
Maint/952035/16-17 Electrical Lowering, lifting & repairing of 10 HP Monosump motor of Sump in Pump House no. 01(near Substation -02) at Teacher Colony. 14/06/2016 15:00 1465842600
Maint/952037/16-17 Electrical Repairing of defective cable supplying power to Security –cum – T.O.P. Office & supply of spare parts of 1000 Amps. ACB at Substation no. 01. 14/06/2016 15:00 1465842600
Maint/952038/16-17 Electrical Lowering, lifting & repairing of 10 HP Monosump motor of Sump at 150 Type-IV/GRS Qtrs. and s/installation of 15 HP starter at Dept. of Petroleum Engg. 14/06/2016 15:00 1465842600
CE-500069-16-17 Purchase Supply and Installation of fabricated High Payload Vibration shake Table 10/06/2016 16:14 1465497000
EE-500049-16-17 Purchase Supply and Installation of Brushless Doubly Fed Reluctance Motor with Intelligent Power Module and Electronic Load Setup 10/06/2016 15:00 1465497000
W-500061-16-17 Purchase Supply and Installation of Bead Teak and Buffer 10/06/2016 15:00 1465497000
W-500062-16-17 Purchase Supply and Installation of M.S. Pipe and MS Flat 10/06/2016 15:00 1465497000
W-500062-16-17 Purchase Supply and Installation of M.S. Pipe and MS Flat 10/06/2016 15:00 1465497000
W-500063-16-17 Purchase Supply and Installation of Block Board Paint 10/06/2016 15:00 1465497000
w-500064-16-17 Purchase Supply and Installation of MS Square Pipe and Paint 10/06/2016 15:00 1465497000
W-500060-16-17 Purchase Supply and Installation of Block Board and Laminate 10/06/2016 15:00 1465497000
Hostel-500071-16-17 Purchase Purchase of 350 Plastic Chair 10/06/2016 15:00 1465497000
Hostel-500071-16-17 Purchase Purchase of 350 Plastic Chair 10/06/2016 15:00 1465497000
Hostel-500070-16-17 Purchase Purchase of LED TV 10/06/2016 15:00 1465497000
W-500059-16-17 Purchase Purchase of M.S.Angle Size :40mmX40mmX3mm 10/06/2016 15:00 1465497000
W-500064-16-17 (Corrigendum) Purchase Purchase of MS Pipe, Paint, Primer, Welding Rod etc 10/06/2016 15:00 1465497000
Maint/958028/16-17 Civil White washing, distempering & minor civil repair/replacement work at Qrt. No. C2/20 10/06/2016 15:00 1465497000
Maint/958029/16-17 Civil Repair painting of boundary wall, grill etc from Science Block to Computer Science Department 10/06/2016 15:00 1465497000
Maint/958040/16-17 Civil Renovation of material Science Engineering and Geotechnical Laboratory at Workshop 10/06/2016 15:00 1465497000
Maint/958047/16-17 Civil Repair and wall painting with Acrylic paint and replacement of glass pans of 48/Qrt UGC Enclave 10/06/2016 15:00 1465497000
Maint/958059/16-17 Civil Repair work at Ladies & Gents toilet near Conference Room at SAH 10/06/2016 15:00 1465497000
Maint/958466/15-16 Civil Providing and fixing aluminium partition and RCC rock with granite top at GM Lab AGP (Annex) Building 10/06/2016 15:00 1465497000
Corrigendum Maint/958467/15-16 Civil P/F aluminium sliding windows at Office chamber of Dr. A.R.Dixit 10/06/2016 15:00 1465497000
NIT No. ISM/DSW/SAC/Cafeteria & Extensions/201 Miscellaneous Running/Operating Canteen in Main Canteen Building and Cafeteria in Student Activity Centre in ISM Campus 10/06/2016 14:59 1465497000
INST/500068/16-17 Purchase Supply and installation of LCD Projector 07/06/2016 15:00 1465237800
CE-500054-16-17 Purchase Supply and Installation of Shrinkage and Restrained Measurement Instrument of Concrete 07/06/2016 15:00 1465237800
Mech-500052-16-17 Purchase Supply and Installation of Experimental Setup for analyzing the hydrokinetic turbine (HKT) performance 07/06/2016 15:00 1465237800
CE-500054-16-17 Purchase Supply and Installation of Shrinkage and Restrained Measurement Instrument of Concrete 07/06/2016 15:00 1465237800
CA-500042-16-17 Purchase Supply and Installation of PERK Inbuilt RO Purifier with Chiller 07/06/2016 15:00 1465237800
Workshop-500008-16-17 Purchase Notice for Sale of Scraps 06/06/2016 13:00 1465151400
INST/5000648/16-17 Purchase Supply and Installation of Split Air Conditioner 03/06/2016 15:00 1464892200
PE-502018-15-16 REMINDER Purchase Supply and Installation of Fabrication of Experimental setup for the scale deposition studies 03/06/2016 15:00 1464892200
Maint/958006/16-17 Civil Leveling dressing of ground repair of drain and painting of boundary wall at Main School Building at AGL side 01/06/2016 15:00 1464719400
Maint/958010/16-17 Civil Painting work at FIST Lab (Ground floor) AGL Department 01/06/2016 15:00 1464719400
Maint/958014/16-17 Civil Coloration of tree painting with snocem at different location at ISM Campus 01/06/2016 15:00 1464719400
Maint/958016/16-17 Civil White washing distempering work in the vacant Qrt. No. UGC/5 01/06/2016 15:00 1464719400
Maint/958017/16-17 Civil White washing distempering and minor civil repair/replacement work at vacant Qrt. No. E/13 01/06/2016 15:00 1464719400
Maint/958024/16-17 Civil White washing distemper in the vacant Qrt. No. Type Vee/II-6 01/06/2016 15:00 1464719400
Maint/958026/16-17 Civil Distempering and painting work in the Qrt. No. flat/36-48 Qrt 01/06/2016 15:00 1464719400
ESE-500028-16-17 Purchase Supply and Installation of Atomic Absorption Spectrometer (AAS) (01)No 31/05/2016 15:00 1464633000
CERE-500029-16-17 Purchase Supply and Installation of Solar Street Light - 18 Watt. 10 Nos. 31/05/2016 15:00 1464633000
MS-500018-16-17 (REMINDER) Purchase Supply and Installation of ACs/MS 31/05/2016 15:00 1464633000
MS-500018-16-17 (REMINDER) Purchase Supply and Installation of ACs/MS 31/05/2016 15:00 1464633000
EDC-515025-15-16 REMINDER Purchase Supply and Installation of Logitech's Conference Cam CC3000e 31/05/2016 15:00 1464633000
ECE-500044-16-17 (Project) Purchase Supply and Installation of RF Absorbers for Anechoic Chamber 27/05/2016 15:00 1464287400
CE-500043-16-17 Purchase Supply and Installation of Split AC with Stabilizer 27/05/2016 15:00 1464287400
CMU-500035-16-17 Purchase Supply and Installation of Submersible Motors with pump 27/05/2016 15:00 1464287400
AGL-500032-16-17 Purchase Supply and Installation of Trinocular Microscope 27/05/2016 15:00 1464287400
Lib-500036-16-17 Purchase Purchase of Water Cooler Cum Purifier 27/05/2016 15:00 1464287400
Maint/952017/16-17 Electrical Annual electrical repair & maintenance of Sapphire Hostel. 27/05/2016 15:00 1464287400
Maint/952018/16-17 Electrical Annual electrical repair & maintenance of Jasper Hostel. 27/05/2016 15:00 1464287400
Maint/952019/16-17 Electrical Annual electrical repair & maintenance of Amber Hostel. 27/05/2016 15:00 1464287400
Maint/952020/16-17 Electrical Replacement f defective wires, light fittings, ceiling fans, exhaust fans, lamps, ballast etc. at Jasper Hostel 27/05/2016 15:00 1464287400
Maint/952023/16-17 Electrical Annual electrical repair & maintenance of Topaz Hostel. 27/05/2016 15:00 1464287400
Maint/952024/16-17 Electrical Annual electrical repair & maintenance of Emerald Hostel. 27/05/2016 15:00 1464287400
Maint/952022/16-17 Electrical Diversion of 11kV overhead line near Jasper Hostel, D-Block (for approach road of New Central Library. 27/05/2016 15:00 1464287400
Maint/952025/16-17 Electrical Annual electrical repair & maintenance of Diamond Hostel. 27/05/2016 15:00 1464287400
Maint/952026/16-17 Electrical Annual electrical repair & maintenance of Opal Hostel. 27/05/2016 15:00 1464287400
Maint/952027/16-17 Electrical Annual electrical repair & maintenance of Ruby -1, 2, Ruby Annex -1, 2, 3, & 4 and Shanti Bhawan. 27/05/2016 15:00 1464287400
Maint/952028/16-17 Electrical Wiring with s/fixing of electrical accessories in Chamber of Prof. T. Kumar at the Dept. of Petroleum Engg., Toilets near Examination & Academic Section at Admin Block. 27/05/2016 15:00 1464287400
Maint/952035/15-16 Electrical Electrical renovation of B. Tech Lab at the Dept. of Applied Chemistry. 27/05/2016 15:00 1464287400
Maint/952113/15-16 Electrical Electrical renovation of the space vacated by Chemical Engg. Dept. at 1st floor Main School Building (Dept. of Mining Engg.) 25/05/2016 15:00 1464114600
Corrigendum Maint/958038/16-17 Civil Repair work at Ruby Hostel-1,2, Annex I,II and Shanti Bhawan at ISM Campus 25/05/2016 15:00 1464114600
Maint/958046/16-17 Civil Replacement of collapsible gate of garage of Staff Colony 25/05/2016 15:00 1464114600
FDC-500037-16-17 Purchase Purchase of Laptop 24/05/2016 15:00 1464028200
700029/CAS/Cleaning/2015-16 Miscellaneous TENDER FOR PROVIDING PEST & MOSQUITO CONTROL SERVICES AT INDIAN SCHOOL OF MINES, DHANBAD 23/05/2016 16:00 1463941800
MME-500027-16-17 Purchase Supply & Installation of Human Vibration Analyzer 20/05/2016 15:00 1463682600
ESE-513031-15-16 Purchase Supply and Installation of Turbidity Meter 20/05/2016 15:00 1463682600
ESE-500045-16-17 Purchase Purchase of UV-Vis Spectophotometer 20/05/2016 15:00 1463682600
ESE-513005-15-16 Purchase Supply and Installation of Fume Hood 20/05/2016 15:00 1463682600
ESE-513007-15-16 Reminder Purchase Purchase of Turner Design Handheld Fluorometer or Turbidimeter 17/05/2016 15:00 1463423400
ESE-513007-15-16 Reminder Purchase Purchase of Turner Design Handheld Fluorometer or Turbidimeter 17/05/2016 15:00 1463423400
MME-536019-15-16 Purchase Supply & Installation of Desktop Computer 17/05/2016 15:00 1463423400
FME-509011-15-16 Re-Tender Purchase Supply and Installation of Forced Draft Tray Drayer 17/05/2016 15:00 1463423400
CA-500011-16-17 Purchase Purchase of Japanese (Korean Grass) 17/05/2016 15:00 1463423400
Maint/958007/16-17 Civil Making underground drainage system from SAH/Garden to outside near Academic Building 17/05/2016 15:00 1463423400
Maint/958019/16-17 Civil Repair work at Msc Practical Lab of Dr. G.C. Nayak Applied Chemistry 17/05/2016 15:00 1463423400
Maint/958038/16-17 Civil Repair work at Ruby Hostel-1,2, Annex I,II and Shanti Bhawan at ISM Campus 17/05/2016 15:00 1463423400
Maint/958039/16-17 Civil Repair work at Opal Hostel at ISM Campus 17/05/2016 15:00 1463423400
Maint/958043/16-17 Civil Repair work at Diamond Hostel 17/05/2016 15:00 1463423400
FME-500015-16-17 Purchase Purchase of Multi parameter kit 13/05/2016 15:00 1463077800
FME-500013-16-17 Purchase Supply and Installation of Programmable Muffle Furnace 13/05/2016 15:00 1463077800
Corrigendum Maint/958001/16-17 Civil Fixing of RCC slab and other repair work at Heritage Alley (Near Ramdhani circle) 13/05/2016 15:00 1463077800
Corrigendum Maint/958448/15-16 Civil Repair and re-construction of parapet in different location at ISM Campus 13/05/2016 15:00 1463077800
Corrigendum Maint/958461/15-16 Civil Making RCC slab and painting of optics laboratory at Applied Chemistry and other repair work at office chamber of Dr. Anand Anupam (206) at FME Department 13/05/2016 15:00 1463077800
Corrigendum Maint/958462/15-16 Civil Making brick partition wall in between Qrt. No. B/1 and Rock Garden beside gate no.1 ISM Campus 13/05/2016 15:00 1463077800
Corrigendum Maint/958467/15-16 Civil P/F aluminium sliding windows at Office chamber of Dr. A.R.Dixit 13/05/2016 15:00 1463077800
Corrigendum Maint/958453/15-16 Civil Aluminium sliding window at Office room of Dr. S.N.Singh, Dept. of Mech. Engg 13/05/2016 15:00 1463077800
Maint/958304/15-16 Civil Renovation of rooms vacated by Applied Geophysics Department at Main School Building 11/05/2016 15:00 1462905000
Maint/958002/16-17 Civil Flushing the deep boring pit no. 54 (Near SBI, ISM Compound) and fixing PVC pipe (Patching) at Sapphire, Amber, Jasper & Staff Colony 11/05/2016 15:00 1462905000
Maint/958008/16-17 Civil Repair of M.S. gate painting of boundary wall including leveling and dressing of road side drain from Diamond to Canteen in ISM Campus 11/05/2016 15:00 1462905000
Maint/958009/16-17 Civil Re-construction of drain fixing of RCC slab and repair of water coolers platform at Sapphire Hostel 11/05/2016 15:00 1462905000
Maint/958022/16-17 Civil Repair work at A,B,C Blocks at Amber Hostel 11/05/2016 15:00 1462905000
Maint/958025/16-17 Civil Repair work at Sapphire Hostel 11/05/2016 15:00 1462905000
Maint/958458/15-16 Civil P/F aluminium window along with vertical blinds of Dr. Sandeep Mandal, Dr, Niladri Das, Dr Mrinalini Pandey including painting of HOD’s chamber at M.S. Department 11/05/2016 15:00 1462905000
FME-500022-16-17 Purchase Supply and Installation of Portable Turbidity Meter 10/05/2016 15:00 1462818600
FME-500014-16-17 Purchase Supply and Installation of Programmable Hot Air Oven 10/05/2016 15:00 1462818600
Maint/958003/16-17 Civil Aluminium sliding window and painting work at Office Chamber of Dr. Kalyan Kumar Singh of Mechanical Engineering 10/05/2016 15:00 1462818600
Maint/958004/16-17 Civil Re-construction of broken boundary wall at CIIE 10/05/2016 15:00 1462818600
Re- Tender Maint/958212/15-16 Civil Replacement of damaged shutter from welding of M.S. window grill etc at H/3,C/4,D/17(old),N/III/5, N/D-20,II/25 10/05/2016 15:00 1462818600
Maint/958219/15-16 Civil Repairing of room no. (109) of Prof. N.R.Mandre in FME Department 1st floor 10/05/2016 15:00 1462818600
Maint/958294/15-16 Civil P/F vertical blind in (4th floor) vertical extension of Mathematics Department 10/05/2016 15:00 1462818600
Maint/958427/15-16 Civil Fabrication and fixing of ladder Opal, Emerald and Topaz Hostel 10/05/2016 15:00 1462818600
Maint/9582465/15-16 Civil P/F vertical blind at office chamber of Prof. D.C.Panigrahi and other repair work at ME Department 10/05/2016 15:00 1462818600
W-500061-16-17 Purchase Supply and Installation of Bead Teak and Buffer 10/05/2016 15:00 1462818600
Hostel-500071-16-17 Purchase Purchase of 350 Plastic Chair 10/05/2016 15:00 1462818600
MME-500017-16-17 Purchase Supply and Installation of AC and DC AMMETER (ANALOG) 10/05/2016 09:48 1462818600
Maint/958034/16-17 Civil Replacement of wash room door shutter urinal etc at Jasper Hostel 09/05/2016 16:00 1462732200
Maint/952010/16-17 Electrical Wiring with s/fixing of electrical accessories, s/installation of light fitting in office room of Dr. Deepak Kumar Mandal (Room no. -326, 2nd floor) at the Dept. of Mechanical Engg....... 09/05/2016 15:00 1462732200
Maint/952012/16-17 Electrical Repairing of 125W globe light fittings inside ISM Campus, s/installation of light fitting with laying of cable in pathway between EDC & CSE Dept. 09/05/2016 15:00 1462732200
Maint/952013/16-17 Electrical Repairing of defective cable at Science Block, Sump of 48 Type –V Qtr. , Emerald Hostel, Scolomin Club, Oval garden, near Penman Auditorium........ 09/05/2016 15:00 1462732200
Maint/952135/15-16 Electrical Wiring with s/installation of 2 X 36W, 4’ tube light fitting, ceiling fan and exhaust fan in Rock Cutting Lab at the Dept. of Mining Engg. 09/05/2016 15:00 1462732200
Maint/958036/16-17 Civil Repair work at Topaz & Emerald Hostel 09/05/2016 15:00 1462732200
M-501027-15-16 Purchase Supply & Installation of 20L apparatus for the determination of explosion indices of dust, gas and hybrid mixtures 06/05/2016 15:00 1462473000
MS-500018-16-17 Purchase Supply and Installation of 1.5 ton Wall mounted Split AC 06/05/2016 10:13 1462473000
CMU-519004/15-16 Purchase Supply and Installation of Electrical Items 06/05/2016 09:41 1462473000
Maint/952001/16-17 Electrical Procurement of electrical items for Day-to- Day Maintenance. 04/05/2016 15:00 1462300200
App Phy-505023-15-16 Reminder Purchase Supply and Installation of Fume Hood 03/05/2016 16:44 1462213800
MME-500024-16-17 Purchase Supply and Installation of Laboratory Experimental Table 03/05/2016 16:36 1462213800
MME-500002-16-17 Purchase Supply and Installation of 1 Phase Wattmeter 03/05/2016 15:00 1462213800
MME-500001-16-17 Purchase Supply and Installation of D C Voltmeter (Analog) and AC Voltmeter (Analog) 03/05/2016 15:00 1462213800
MECH-500005-16-17 Purchase Supply and Installation of Air-Conditioner tutor 03/05/2016 15:00 1462213800
IIIF-500007-16-17 Purchase Supply and Installation of 55 inch Smart LED TV 03/05/2016 15:00 1462213800
MECH-500004-16-17 Purchase Supply and Installation of Mechanical Heat Pump 03/05/2016 15:00 1462213800
App Phy-505041-15-16 REMINDER Purchase Supply and Installation of DC Pericision Constant Current Source 03/05/2016 15:00 1462213800
ESE-513030-15-16 Purchase Supply and Installation of COD Digesetr 03/05/2016 15:00 1462213800
ESE-513030-15-16 REMINDER Purchase Supply and Installation of COD Digester 03/05/2016 15:00 1462213800
ESE-513033-15-16 REMINDER Purchase Supply and Installation of Electrochemical Workstation Specifications 03/05/2016 15:00 1462213800
ECE-500016-16-17 Purchase Supply and Installation of RF Absorbers for Anechoic Chamber 03/05/2016 10:23 1462213800
AGL-500010-16-17 Purchase Supply and Installation of Trinocular Polarizing Microscope with Transmitted 7 reflected Illumination and camera 03/05/2016 10:08 1462213800
HC/518006/15-16 Purchase Outsourcing of supply of medicines to ISM Health Centre 02/05/2016 16:00 1462127400
Mech Engg-537023-15-16 Reminder Purchase Procurement of Accessories to develop Impedance Tube Facility 29/04/2016 15:00 1461868200
Maint/952002/16-17 Electrical Wiring with s/fixing of electrical accessories for Room no. -109 along with shifting of existing electrical panel at FME Dept 29/04/2016 15:00 1461868200
Maint/952008/16-17 Electrical Wiring with s/fixing of electrical accessories in RE Lab and old Alumni office at the Dept. of Mining Engineering. 29/04/2016 15:00 1461868200
Maint/952009/16-17 Electrical Wiring with s/fixing of electrical accessories for 2kVA online UPS in Seating Chamber of Dr. Sagar Pal (1st floor),..... 29/04/2016 15:00 1461868200
Maint/952034/15-16 Electrical New electrical wiring with s/fixing of electrical accessories for proposed Centre for Innovation, Incubation & Entrepreneurship (CIIF) at Old Health Centre. 29/04/2016 15:00 1461868200
Maint/952095/15-16 Electrical Wiring with s/fixing of electrical accessories for PA System and wiring with s/installation of exhaust fans in ED Hall & ED Hall Extension at Mechanical Engg. Dept. 29/04/2016 15:00 1461868200
Maint/952123/15-16 Electrical Electrical renovation of Qtr. No. –Type – VI /03 presently PG Hostels -3 near Gate no. -02. 29/04/2016 15:00 1461868200
Maint/952124/15-16 Electrical Electrical renovation of Qtr. No. –Type – VI /04 presently PG Hostels -4 near Gate no. -02. 29/04/2016 15:00 1461868200
Maint/952131/15-16 Electrical Electrical renovation of bathrooms and kitchen of Shanti Bhawan. 29/04/2016 15:00 1461868200
Maint/958449/15-16 Civil P/F urinal at ‘D’ Block PVC pipe and removal basin, glass at wash basin area and other repair work at ‘C’ Block at Jasper Hostel 27/04/2016 15:00 1461695400
Maint/958454/15-16 Civil Repair of broken drains and fixing of RCC slab cover in the drain front side of SAH Building 27/04/2016 15:00 1461695400
Maint/958457/15-16 Civil Replacement of aluminium door shutter and other repair work at ME & AGL Department 27/04/2016 15:00 1461695400
Maint/958459/15-16 Civil P/F G.I. pipe line & out let pipe at Mess area at Jasper Hostel 27/04/2016 15:00 1461695400
Maint/958460/15-16 Civil Making cemented slab and painting of Research Laboratory at Applied Chemistry 27/04/2016 15:00 1461695400
M-501029-15-16 REMINDER Purchase Supply and Installation of Compression testing Machine Electrically Operated. 26/04/2016 15:00 1461609000
Corrigendum Maint/958401/15-16 Civil Providing and fixing PTMT ball cock set in the O.H. tank of Block/5 to B/1 at 150 Qrt. 26/04/2016 15:00 1461609000
Corrigendum Maint/958407/15-16 Civil Cleaning of ACP wall cladding in front side at NLHC 26/04/2016 15:00 1461609000
Corrigendum Maint/958411/15-16 Civil Repair and maintenance work at vacant Qrt. No. flat No.1 UGC enclave 48/qrts 26/04/2016 15:00 1461609000
Corrigendum Maint/958414/15-16 Civil Repair of worn out cement concrete and plaster of roof parapet wall etc of N/III/Qrt 1-24 ( 6 No. Block) at ISM Campus 26/04/2016 15:00 1461609000
Corrigendum Maint/958417/15-16 Civil Providing and fixing PVC O.H. water tanks at Opal Hostel 26/04/2016 15:00 1461609000
Corrigendum Maint/958422/15-16 Civil Repair work and a door opening in between two laboratory work at Smart Lab & optics lab at Applied Chemistry 26/04/2016 15:00 1461609000
Corrigendum Maint/958428/15-16 Civil Cleaning and painting of Block/7 Qrt. No. 94 26/04/2016 15:00 1461609000
Corrigendum Maint/958451/15-16 Civil Repair & fitting of aluminium window along with painting of room no. (106) Dr. Niranjan Kumar 26/04/2016 15:00 1461609000
FME-500014-16-17 Purchase Supply and Installation of Programmable Hot Air Oven 23/04/2016 15:00 1461349800
Maint/958421/15-16 Civil Repair and maintenance work (Inside) of Block A,B,C,D at Jasper Hostel 22/04/2016 15:00 1461263400
Maint/958424/15-16 Civil Re-flooring the corridor and 5 No. stair Hall with granite and wall tiles at 1st floor in Main School Building 22/04/2016 15:00 1461263400
Maint/958453/15-16 Civil Aluminium sliding window at Office room of Dr. S.N.Singh, Dept. of Mech. Engg. 22/04/2016 15:00 1461263400
HOSTEL-522015-15-16 Purchase Supply & Installation of Water Storage cooler cum purifier within built purification system in one umit along with 02 KVA stabilizer 21/04/2016 15:00 1461177000
M-501032-15-16 Purchase Supply & installation of Digital Video Camera cum Digital SLR 19/04/2016 15:00 1461004200
M-501030-15-16 Purchase Supply & Installation of Digital Schmidt Hammer 19/04/2016 15:00 1461004200
ESE-513007-15-16 Purchase Supply & Installation of Turner Design Handheld Fluorometer/Turbidimeter 19/04/2016 15:00 1461004200
Corrigendum Maint/958409/15-16 Civil Construction of Footpath & drain from Emerald Hostel to Sapphire Hostel. 19/04/2016 15:00 1461004200
Maint/958431/15-16 Civil Shifting & loading support frame machine along with other repair work at Rock Mechanics Laboratory 19/04/2016 15:00 1461004200
Maint/958441/15-16 Civil Repairing/painting of boards, wall, almirah construction of seating benches at ISM Seismology Observatory Premises 19/04/2016 15:00 1461004200
Maint/958443/15-16 Civil Repair and maintenance of work gate no.2 boundary wall pavement and upto Generator House No. 2 ISM Campus 19/04/2016 15:00 1461004200
Maint/958446/15-16 Civil Repair and maintenance work at vacant Qrt. No. H/2 19/04/2016 15:00 1461004200
Maint/958447/15-16 Civil Repair work at corridor at Main School Building 19/04/2016 15:00 1461004200
Maint/958392/15-16 Civil Repair/replacement of pipe line & repair of floor at II/25,II/13, Staff Colony, NCC Mess and near O.H. tank near GH-1 15/04/2016 15:00 1460658600
Maint/958394/15-16 Civil Repair/re-construction of drain, floor and dismantling of removal of old unwanted materials from in front of Mine Surveying Lab 15/04/2016 15:00 1460658600
Maint/958430/15-16 Civil Construction of road approaching to material Handing laboratory behind Substation-1 15/04/2016 15:00 1460658600
Maint/958450/15-16 Civil Painting of passage and rooms and fixing of Mosquito Net at IEDC 15/04/2016 15:00 1460658600
Maint/958452/15-16 Civil Construction RCC working table at Raman lecture Hall Applied Chemistry 15/04/2016 15:00 1460658600
Maint/958468/15-16 Civil Re-surfacing of road in patching from corner of EDC Building to front of Old LHC 15/04/2016 15:00 1460658600
App Phy/505040/15-16 Purchase Purchase of Closed Cycle Cry cooler with Vacuum Shroud 12/04/2016 15:00 1460399400
Corrigendum Maint/958374/15-16 Civil Repair of seepage of roof and minor repair work at Qrt. No. UGC/ flat-22 11/04/2016 15:00 1460313000
Maint/958380/15-16 Civil Minor civil repair/replacement work at Qrt. No. N/III/9,N/III/8,II/5, UGC flat/42,UGC flat/25 at ISM Campus 11/04/2016 15:00 1460313000
Maint/958383/15-16 Civil Providing and fixing precoated gutter at Qrt. No. H/type Qrts 11/04/2016 15:00 1460313000
Maint/958390/15-16 Civil Minor civil repair/replacement work at Qrt. No. Opal Hostel, II/53, UGC/9 11/04/2016 15:00 1460313000
Maint/958412/15-16 Civil White washing, distempering & painting work at vacant Qrt. No. D/16 (old) 11/04/2016 15:00 1460313000
PE-502021-15-16 Purchase Supply & installation of water purification system with filtration unit. 08/04/2016 15:00 1460053800
Maint/ 952150/15-16 Electrical Procurement of electrical items for Day-to- Day Maintenance. 08/04/2016 15:00 1460053800
Re-Tender Maint/958212/15-16 Civil Replacement of damaged shutter from welding of M.S. window grill etc at H/3,C/4,D/17(old),N/III/5, N/D-20,II/25 06/04/2016 15:00 1459881000
Maint/958335/15-16 Civil Repair of seepage through sewer pipe line at Qrt. No. UGC/8 06/04/2016 15:00 1459881000
Maint/958350/15-16 Civil Repair/replacement work at Qrt. No. B/5-64,E/5,D/31 (O),C/41 at ISM Campus 06/04/2016 15:00 1459881000
Maint/958371/15-16 Civil Minor civil repair work at UGC/flat No.45 06/04/2016 15:00 1459881000
Maint/958372/15-16 Civil Repair/replacement of G.I. pipe, valve, cleaning of pipe etc at B/6-87, B/5-75, B/10-144,140 input Health Centre R.N.1 Mandir 06/04/2016 15:00 1459881000
Maint/958464/15-16 Civil Re-surfacing of road from Diamond Hostel gate to back side gate of Admin Block 06/04/2016 15:00 1459881000
App Phy-505041-15-16 Purchase Purchase of DC Pericision Constant Current Source 05/04/2016 15:00 1459794600
App Phy-505039-15-16 Reminder Purchase Supply and Installation of Electron Beam Evaporation System 05/04/2016 15:00 1459794600
Mech Engg-537024-15-16 Purchase Supply and Installation of Microprocessor based automatic BOMB CALORIMETER (DIGITAL) 01/04/2016 15:00 1459449000
Maint/958381/15-16 Civil Repair of windows for making of AC space (4 Nos.) including fixing of grill at Computer Centre 30/03/2016 15:00 1459276200
Maint/958411/15-16 Civil Repair and maintenance work at vacant Qrt. No. flat No.1 UGC enclave 48/qrts 30/03/2016 15:00 1459276200
Maint/958414/15-16 Civil Repair of worn out cement concrete and plaster of roof parapet wall etc of N/III/Qrt 1-24 ( 6 No. Block) at ISM Campus 30/03/2016 15:00 1459276200
Maint/958451/15-16 Civil Repair & fitting of aluminium window along with painting of room no. (106) Dr. Niranjan Kumar 30/03/2016 15:00 1459276200
Maint/958455/15-16 Civil Repair & re-flooring work with granite at Alumni side & Rock Mechanics Lab side stairs 30/03/2016 15:00 1459276200
HOSTEL-522012-15-16 Purchase Stitching & Supply of Student Blazer for the Academic Year 2016-17 29/03/2016 15:00 1459189800
CE-535014-15-16 Purchase Supply and Installation of Rapid Chloride Penetration (permeability) Test of Concrete 29/03/2016 15:00 1459189800
Mech Engg-537023-15-16 (Corrigendum) Purchase Supply and Installation of Accessories to develop Impedance Tube Fcility 29/03/2016 15:00 1459189800
PE-502018-15-16(REMINDER) Purchase Fabrication Supply and Installation of Experimental setup for scale DEposition Studies 29/03/2016 15:00 1459189800
Maint/958352/15-16 Civil Construction of shed (10 ft x 8 ft) at M.Tech gate ( entrance) at Jasper Hostel 28/03/2016 15:00 1459103400
Maint/958357/15-16 Civil Repair painting and half brick partition for two no faculty office chamber at Applied Chemistry Department 28/03/2016 15:00 1459103400
Maint/958364/15-16 Civil Repair/replacement of pipe line & aluminium window B/4-45 at E/19,E/6,II/V-12,B/7-119,Flat/21,B/43,44,B/4-58, Admin Block 28/03/2016 15:00 1459103400
Maint/958388/15-16 Civil White washing distempering and repair work at Qrt. No. II/2 28/03/2016 15:00 1459103400
Maint/958396/15-16 Civil Repair & painting of store Room (27 & 17) at SAH 28/03/2016 15:00 1459103400
Maint/958409/15-16 Civil Construction of Footpath & drain from Emerald Hostel to Sapphire Hostel 28/03/2016 15:00 1459103400
CHEMICAL-531016-15-16 Purchase Purchase of High Pressure Fixed Bed Reactor 22/03/2016 15:00 1458585000
700081/CA/Work/2015-16 Miscellaneous TENDER NOTICE FOR SUPPLY OF SKILLED /SEMI-SKILLED/ UNSKILLED WORKERS FOR VARIOUS SERVICES 21/03/2016 16:00 1458498600
App Phy/505039/15-16 Purchase Purchase of Electron-Beam Evaporation System 18/03/2016 15:00 1458239400
EE-529026-15-16 Purchase Supply and Installation of A Complete Set up for a Vector 3-phase induction Motor Drive 18/03/2016 15:00 1458239400
HOSTEL-522011-15-16 Purchase Supply and Installation of Neck Ties with ISM Logo to be woven on the body of the Tie 18/03/2016 15:00 1458239400
Maint/952136/15-16 Electrical Lowering the 7.5 HP pump in new bore hole beside the Rifle shooting range and 15 HP pump behind Generator House no.1 with p/fixing of 3 inch G.I. pipe complete with G.I. fitting and s/laying of flat cable. 18/03/2016 15:00 1458239400
Maint/952137/15-16 Electrical Repairing of street lights/flood lights at Sports Complex, Upper and Lower Ground, Topaz Hostel, Emerald Hostel, Diamond Hostel, Sapphire Hostel, Jasper Hostel, Ruby Hostel and inside ISM Campus. 18/03/2016 15:00 1458239400
Maint/952138/15-16 Electrical Wiring with shifting of street light at Diamond Hostel, Ruby Annex -04, Qtr. no. – Type –V- B-1, wiring with fixing of sodium vapour light fitting at main Gate no. -2, Substation no.-1, CIIE and shifting of globe light fitting at UGC Colony. 18/03/2016 15:00 1458239400
Maint/952139/15-16 Electrical Repairing of defective cable in Jasper Hostel, Teachers colony, ESE Dept., Amber Hostel near Ruby Hostel, Main Building, repairing of overhead line ..... 18/03/2016 15:00 1458239400
Maint/952140/15-16 Electrical Replacement of defective light fittings by 9W and 12W LED light fittings in lifts of Amber Hostel, Jasper Hostel, SAC, NLHC, Petroleum Engg. Dept., 48 type-V Qtrs. (Block-A). 18/03/2016 15:00 1458239400
Maint/952151/15-16 Electrical Dismantling and erection of pole and overhead conductor at Scolomin Club. 18/03/2016 15:00 1458239400
Maint/952142/15-16 Electrical Replacement of defective wires for centralized call bell, telephone, internet and other miscellaneous works at SAH. 18/03/2016 15:00 1458239400
Maint/952145/15-16 Electrical Painting of outdoor type feeder pillars/indoor type L.T. panels inside ISM Campus. 18/03/2016 15:00 1458239400
Maint/952146/15-16 Electrical Wiring with s/fixing of electrical accessories in Lab of Dr. S. K. Padhi (Artificial Photosynthesis & In Sensor Lab), Lab of Dr. Sagar Pal (Raman Research Lab, 1st floor), Lab of Dr. S. K. Maity at the Dept. of Applied Chemistry. 18/03/2016 15:00 1458239400
Maint/952147/15-16 Electrical Wiring with s/fixing of electrical accessories in Chemical Flooding Lab at the Dept. of Petroleum Engineering, Mine Ventilation Lab at the Dept. of Mining Engineering, Chamber of Sri Somnath Chattopadhyaya at the Dept. of Mechanical Engineering, s/install 18/03/2016 15:00 1458239400
Maint/952148/15-16 Electrical Wiring with s/fixing of electrical accessories, s/installation of 1 X 36/40W tube light fittings in the Chamber of Dr. D.K. Mandal (Room no. -326) at the Dept. of Mechanical Engg, wiring with s/fixing of electrical..... 18/03/2016 15:00 1458239400
Maint/958333/15-16 Civil Renovation/modification of drawing room, kitchen, bathroom at Qrt. No. VI/3 and VI/4 at ISM Campus 16/03/2016 15:00 1458066600
INST-525034-15-16 Purchase Rate Contract for Supply of Reputed Make Furniture 15/03/2016 17:00 1457980200
Maint/958432/15-16 Civil Repair and maintenance of brick wall RCC jali of Oval Garden at ISM Campus 15/03/2016 15:00 1457980200
Maint/958434/15-16 Civil Repair & painting work of Dhaiya Gate Boundary wall & triangle in front of International EDC 15/03/2016 15:00 1457980200
Maint/958436/15-16 Civil Making septic tank & soak pit at Qrt. No. B/1 15/03/2016 15:00 1457980200
Maint/958439/15-16 Civil Providing and fixing G.I. pipe connection from bore well to sump near Emerald Hostel 15/03/2016 15:00 1457980200
Maint/958440/15-16 Civil Outside wall painting at IEDC 15/03/2016 15:00 1457980200
Maint/958444/15-16 Civil Repair and maintenance of main gate and guard room triangle garden, boundary wall and pavement from Main gate No.1 to Admin Block 15/03/2016 15:00 1457980200
INST-525031-15-16 (REMINDER) Purchase Installation Work of existing AJF Telephone Cable Through GI Pipe in a Suitable Size of Trench 11/03/2016 15:00 1457634600
Maint/958375/15-16 Civil Water supply connection of FIST LAB at AGL 11/03/2016 15:00 1457634600
Maint/958397/15-16 Civil Repair of painting of Room 12,14,16 and fixing of commode 21,23,25 at SAH 11/03/2016 15:00 1457634600
Maint/958408/15-16 Civil Providing and fixing commode and others minor repair work at SAH 11/03/2016 15:00 1457634600
Maint/958418/15-16 Civil Repair and maintenance of outside walls at type-1 Qrts at ISM Campus 11/03/2016 15:00 1457634600
Maint/958386/15-16 Civil Repair of damaged ceiling plaster of bathrooms (09 Nos.) at Opal Hostel 11/03/2016 15:00 1457634600
INST-525035-15-16 Purchase Supply & laying of AJF telephone cable through GI Pipe and accessories in a suitable size of trench. 04/03/2016 15:00 1457029800
CC-516024-15-16 Purchase Appliance based Authenticator 04/03/2016 15:00 1457029800
CC-516023-15-16 Purchase Setting up Two links of 500 Mbps (1:1) managed internet bandwith each at ISM Dhanbad for 02 Years 04/03/2016 15:00 1457029800
CC-516027-15-16 Purchase Setting up Wired and Wireless facility at ISM SAH, EDC and Residential Area in our ISM Dhanbad 04/03/2016 15:00 1457029800
CC-516028-15-16 Purchase Upgradation of UTM/Firewall Appliance Fortigate 620B to Fortigate – 3200D Appliance in HA Mode 04/03/2016 15:00 1457029800
CC-516026-15-16 Purchase Setting up Wireless facility at A,B, and C Block of Jasper Hostel ISM Dhanbad 04/03/2016 15:00 1457029800
PE-502018-15-16 Purchase Purchase of Fabrication of Experimental Setup for the studies 04/03/2016 15:00 1457029800
Mech Engg-537021-15-16 Purchase Supply and Installation of Water Content Titrator 04/03/2016 15:00 1457029800
Maint/958291/15-16 Civil Construction of a room measuring (6x4.5)m outside the mine surveying laboratory for accommodating accessories related to field surveying practical’s 04/03/2016 15:00 1457029800
Maint/958334/15-16 Civil White washing, distempering and painting work (Inside & Outside) and premised of brick partition wall approach road and repair of drain, floor etc at Qrt. No. VI/3 & VI/4 at ISM Campus 04/03/2016 15:00 1457029800
Maint/958345/15-16 Civil Provision of fencing for gardening and site developed work i/c repair of drain, wall etc in front of Emerald Hostel 04/03/2016 15:00 1457029800
Maint/958374/15-16 Civil Repair of seepage of roof and minor repair work at Qrt. No. UGC/ flat-22 04/03/2016 15:00 1457029800
Maint/958405/15-16 Civil Making cement slab at optics laboratory Applied Chemistry 04/03/2016 15:00 1457029800
Maint/958419/15-16 Civil Making low height brick wall with iron grill top in front of SAH at ISM Campus. 04/03/2016 15:00 1457029800
Maint/958420/15-16 Civil Repair/replacement of pipe line at in front of Health Centre Generator House etc at ISM Campus. 04/03/2016 15:00 1457029800
Maint/958423/15-16 Civil Repair of drain with cover slab from Diamond Hostel gate to water tank near Sub Station-1. 04/03/2016 15:00 1457029800
Maint/958425/15-16 Civil Repair & maintenance of Ladies wash room (ground floor and 1st floor ) beside Exam Section in Admin Block. 04/03/2016 15:00 1457029800
INST-525038-15-16 Purchase Supply & Installation of Split AC 2 ton of reputed make 06 Nos 26/02/2016 15:00 1456425000
App Phy-505038-15-16 Purchase Purchase of Laser Diode 26/02/2016 15:00 1456425000
App Phy-505037-15-16 (Corrigendum) Purchase Supply & Installation of Diode Pump Low Noise State Laser with Power Supply 26/02/2016 15:00 1456425000
M-501027-15-16 (Reminder) Purchase Purchase of 20L Apparatus for the determination of explosion indices of dust,Gas and hybrid mixtures 26/02/2016 15:00 1456425000
Mech Engg-537019-15-16 Purchase Supply & Installation of Microsoft Visual Studio Professional MSDN (Academic version) 26/02/2016 15:00 1456425000
Maint/958319/15-16 Civil Renovation/modification of the existing old computational laboratory for sitting chamber of Prof T.Kumar at Ground floor in PE Department 24/02/2016 15:00 1456252200
Maint/958384/15-16 Civil White washing, distempering in the Qrt. No. flat/38 UGC enclave 24/02/2016 15:00 1456252200
Maint/958391/15-16 Civil Replacement of broken barbed wire fencing at Qrt. No. E/1 24/02/2016 15:00 1456252200
Maint/958348/15-16 Civil Repair & painting of corridor at Admin Block 24/02/2016 15:00 1456252200
Maint/958362/15-16 Civil Replacement of sewerage line in front of Block No. 9&10, type IV GR Side 24/02/2016 15:00 1456252200
Maint/952129/15-16 Electrical Procurement of electrical items for Day-to- Day Maintenance. 22/02/2016 15:00 1456079400
Maint/952133/15-16 Electrical Procurement of electrical items for Day-to- Day Maintenance. 22/02/2016 15:00 1456079400
Reminder-FME-509009-15-16 Purchase Supply & Installation of Biomass Pyrolysis Machine 19/02/2016 15:00 1455820200
Reminder-FME-509013-15-16 Purchase Supply & Installation of Rotary Dryer 19/02/2016 15:00 1455820200
Maint/952090/15-16 Electrical Wiring with s/fixing of electrical sockets in General Rooms and Suites at SAH Extension Building. 19/02/2016 15:00 1455820200
Maint/952106/15-16 Electrical Replacement of defective wiring with s/fixing of electrical accessories in Chamber of Dr. Soumitra Maity, Dr. Rashmi Madhuri and Lab of Dr. S. Maity at the Dept. of Applied Chemistry. 19/02/2016 15:00 1455820200
Maint/952114/15-16 Electrical Replacement of 2 x 9W defective round light fitting by 2 x 11W PLL light fittings/fixture in Suites, General Rooms & Corridors at SAH Extension Building. 19/02/2016 15:00 1455820200
Maint/952128/15-16 Electrical S/fixing of electrical accessories for set top box in different rooms and suites at EDC. 19/02/2016 15:00 1455820200
Maint/952132/15-16 Electrical Lowering of 5 HP pump, s/laying of cable and s/installation of panel in deep bore beside the Sports Complex. 19/02/2016 15:00 1455820200
Maint/952134/15-16 Electrical Wiring with s/fixing of electrical accessories at PI Staff Mess, Rock Mechanics Lab at the Dept. of Mining Engg. and Chemistry Lab, s/installation of exhaust fan...... 19/02/2016 15:00 1455820200
Reminder FME-509012-15-16 Purchase Supply & Installation of Natural Draft Tray Dryer 16/02/2016 15:00 1455561000
INST-525031-15-16 Purchase Installation Work of existing AJF Telephone Cable Through GI Pipe in a Suitable Size of Trench 16/02/2016 15:00 1455561000
Maint/ 952121/15-16 Electrical Procurement of electrical items for Day-to- Day Maintenance. 15/02/2016 15:00 1455474600
Maint/958356/15-16 Civil Repair/replacement of civil maintenance work at Qrt. No. C-121/IV 15/02/2016 15:00 1455474600
Maint/958359/15-16 Civil Repair of damaged floor drain, plinth protection and seepage in roof at Qrt. No. II/1,II/9 Modify, N/III/15, II/42 15/02/2016 15:00 1455474600
Maint/958378/15-16 Civil Repair & painting works at Lawn Tennis courts (2 Nos.) at Sports Complex 15/02/2016 15:00 1455474600
Maint/958379/15-16 Civil Repair painting & re false ceiling at Squash Complex 15/02/2016 15:00 1455474600
Maint/958382/15-16 Civil Repair of manhole collapsible gate aluminium door etc at Jasper Hostel 15/02/2016 15:00 1455474600
INST-525028-15-16 Purchase Printing & Supply of Academic Diary 2016-17 12/02/2016 15:00 1455215400
Corrected NIT No.INST-525034-15-16 Purchase Corrected NIT : Rate Contract for Supply of Reputed Make Furniture 12/02/2016 15:00 1455215400
Maint/952081/15-16 Electrical Wiring with s/fixing of electrical accessories for AC at Scolomin Club. 11/02/2016 15:00 1455129000
Maint/952108/15-16 Electrical Wiring with s/fixing of electrical accessories in Artificial Photosynthesis Lab at the Dept. of Applied Chemistry. 11/02/2016 15:00 1455129000
Maint/952117/15-16 Electrical New electrical wiring with s/fixing of electrical accessories for proposed room outside the Mine Surveying Lab at Mining Engg. Dept. 11/02/2016 15:00 1455129000
Maint/952122/15-16 Electrical P/fixing of AC outlet pipe in ground and 1st floor at Main School Building. 11/02/2016 15:00 1455129000
Maint/952125/15-16 Electrical Lowering, lifting & repairing of 5 HP motor with pump of Deep bore at EDC. 11/02/2016 15:00 1455129000
Maint/952126/15-16 Electrical Wiring with s/fixing of electrical accessories and exhaust fan in Research Lab (1st floor, former lab of DR. V. K. Rai) at the Dept. of Applied Chemistry, wiring with s/fixing of electrical accessories in Photographic Society at SAC, wiring with s/install 11/02/2016 15:00 1455129000
Maint/952127/15-16 Electrical Diversion of 11KV overhead line in the front of New Central Library and across the approach road of Amber Hostel. 11/02/2016 15:00 1455129000
Maint/952130/15-16 Electrical Lowering, lifting & repairing of 1 HP Submersible pump at Oval Garden and 3 HP Submersible pump at NLHC. 11/02/2016 15:00 1455129000
INST-525033-15-16 (Corrigendum) Purchase Invitation of Proposals For Development of online Application System for M Sc/ M Sc Tech/ JRF (Phase I & Phase II) Admission 2016 09/02/2016 15:00 1454956200
INST-525033-15-16( Revised Tender Notice) Purchase Invitation of Proposals For Development of online Application System for M Sc/ M Sc Tech/ JRF (Phase I & Phase II) Admission 2016 09/02/2016 15:00 1454956200
Maint/952067/15-16 Electrical S/laying of 11kV Cable and other electrical work for supplying power to ISM Campus from 33/11 kV Substation near Topaz Hostel. 05/02/2016 15:00 1454610600
Maint/958349/15-16 Civil Annual rate contract for Day-to-Day Civil repair and maintenance work at ISM Campus 05/02/2016 15:00 1454610600
Maint/958265/15-16 Civil Aluminium partition of machine Dynamics Lab at Mech. Department 05/02/2016 15:00 1454610600
Maint/958339/15-16 Civil Replacement of barbed wire fencing at Qrt. No. UGC/11, II/47, B/65 05/02/2016 15:00 1454610600
Maint/958344/15-16 Civil Repair & replacement of sewerage line at Topaz Hostel 05/02/2016 15:00 1454610600
Maint/958346/15-16 Civil Repair & re-flooring by granite in corridor (2nd floor) to 4th floor) of Extension EDC Building 05/02/2016 15:00 1454610600
Maint/958353/15-16 Civil Re-construction of Boundary wall Qrt. No. 120, GR side at ISM near P.K.Roy Collage 05/02/2016 15:00 1454610600
M-501027-15-16 Purchase 20L Apparatus for the Determination of Explosion Indices of Dust, Gas and Hybrid Mixtures 02/02/2016 15:00 1454351400
Mech Engg-537018-15-16 Purchase Supply & Installation of Magnetic Levitation System with Data Acquisition Device and Software 02/02/2016 15:00 1454351400
App Chem-506015-15-16 Purchase Supply & Installation of Double Beam UV-VIS Spectrophotometer with variable bandwith 02/02/2016 13:00 1454351400
ESE-513013-15-16 Purchase RETENDER: Supply & Installation of Gel Documentation Systems 02/02/2016 13:00 1454351400
INST-525027-15-16 Purchase 1. Printing & Supply of Answer Books 2. Printing & supply Additional Answer Books 02/02/2016 13:00 1454351400
M-501021-15-16 Purchase REMINDER - Thermal Property Analyser 29/01/2016 15:00 1454005800
Maint/958310/15-16 Civil Repair of approach road at Qrt. No. B/1 29/01/2016 15:00 1454005800
Maint/958331/15-16 Civil Repair & painting of rooms at IEDC 29/01/2016 15:00 1454005800
Maint/958332/15-16 Civil Repair and painting works at Machine Shop at Workshop 29/01/2016 15:00 1454005800
Maint/958336/15-16 Civil Minor civil repair work at Qrt. No. B/1 29/01/2016 15:00 1454005800
Maint/958340/15-16 Civil Repair of floor, pavement at Qrt. No. D/20(old) and D/25 (old) 29/01/2016 15:00 1454005800
Maint/958354/15-16 Civil Digging bore well near UGC Colony at ISM Campus 29/01/2016 15:00 1454005800
M-501015-15-16 Purchase REMINDER: 1.Supply & Installation of VOD Recorder with accesories 2.VOD probe-rod 3.VOD Sensing cable- 4.Coaxial Cable 5.Advanced Analytical Software for VOD analysis 29/01/2016 13:00 1454005800
Corrigendum-Maint/952084/15-16 Electrical Electrical renovation of Interview Rooms of Training and Placement Section at EDC. 27/01/2016 15:00 1453833000
Corrigendum-Maint/952111/15-16 Electrical Annual rate contract (ARC) for Air conditioners (ACs ) and water coolers. 27/01/2016 15:00 1453833000
Corrigendum Maint/958212/15-16 Civil Replacement of damaged shutter from welding of M.S. window grill etc at H/3,C/4,D/17(old),N/III/5, N/D-20,II/25 25/01/2016 15:00 1453660200
Maint/958318/15-16 Civil Repair for water supply and sanitary items at NLHC 25/01/2016 15:00 1453660200
Maint/958321/15-16 Civil Repair & painting work at corridor office large room at SAH 25/01/2016 15:00 1453660200
Maint/958322/15-16 Civil Repair/replacement of G.I. pipe line, PVC outlet pipe, sink at Applied Chemistry Dr. C.Halder Lab & Dr. maity Lab & wash room at Science Block 25/01/2016 15:00 1453660200
Maint/958324/15-16 Civil Repair and maintenance work (Inside outside) of NCC Building at ISM Campus 25/01/2016 15:00 1453660200
FME-509014-15-16 Purchase Fluidized Bed Dryer 22/01/2016 16:00 1453401000
FME-509013-15-16 Purchase Rotary Dryer 22/01/2016 16:00 1453401000
FME-509011-15-16 Purchase Forced Draft Tray Dryer 22/01/2016 16:00 1453401000
CA-517016-15-16 Purchase Purchase of Iron Pot Stands with white paint and red plastic plate 22/01/2016 16:00 1453401000
Chemical-531015-15-16 Purchase Supply & Installation of Mass Flow Controller (MFC) for Methane (CH4) Gas 22/01/2016 15:00 1453401000
M-501020-15-16 Purchase Real Time Portable Personal Diesel Particulate Monitors with Accessories 22/01/2016 15:00 1453401000
ESE-513020-15-16 Purchase REMINDER - Water Level Sounder 22/01/2016 15:00 1453401000
App Phy-505014-15-16 Purchase REMINDER Newton's Ring Apparatus 22/01/2016 15:00 1453401000
Maint/952092/15-16 Electrical Wiring with s/fixing of electrical accessories for Table Top Specimen Cutter at AGL Dept. 22/01/2016 15:00 1453401000
Maint/952101/15-16 Electrical Repairing of defective cable and replacement of MCCBs for interconnection between Substation -01 & 02. 22/01/2016 15:00 1453401000
Maint/952115/15-16 Electrical Replacement of damaged cable, repairing of 125W Globe lights and s/fixing of 125W Globe light fitting behind New Petroleum Engg., Dept. 22/01/2016 15:00 1453401000
Maint/952116/15-16 Electrical Dismantalling of 440 V overhead line and street light pole from the construction site of Type –V/VI Quarters and By – pass road at Staff Colony. 22/01/2016 15:00 1453401000
Maint/952119/15-16 Electrical Replacement of defective 160A MCCB in feeder pillar near Bungalow no. -119, wiring for service line for Qtr. No.- C/01 to C/08, C/121 & C/122 near Main Gate. 22/01/2016 15:00 1453401000
Maint/952120/15-16 Electrical Wiring with s/installation of exhaust fan and s/fixing of electrical accessories in Raman Lab (1st floor), s/installation of 36/40W tube light fitting in the Chamber of Dr. H.P. Nayek at the Dept. of Applied Chemistry. 22/01/2016 15:00 1453401000
Maint/958327/15-16 Civil Repair of leaking roof at Qrt. No. VI/3 & VI/4 at ISM Campus 18/01/2016 15:00 1453055400
Maint/958320/15-16 Civil Repair of steel glazed shutter along with painting and other allied work at Electrical Machine Laboratory and Power Electronics Laboratory at MME Department 18/01/2016 15:00 1453055400
Maint/958315/15-16 Civil Repair work at Upper Ground and Sapphire Hostel 18/01/2016 15:00 1453055400
Maint/958307/15-16 Civil Repair & painting work at Office room no. (309) of Dr. Md. Sikandar Azam at Mech. Engg 18/01/2016 15:00 1453055400
Maint/958313/15-16 Civil Making RCC slab and P/F laboratory sink at raman Lab at (1st floor) Science Block department of Applied Chemistry Lab 18/01/2016 15:00 1453055400
ESE-513009-15-16 Purchase Microplate Photometer with Incubator - Reminder 15/01/2016 16:00 1452796200
ESE-513009-15-16 Purchase Microplate Photometer with Incubator -CORRECTED With Annexure 15/01/2016 16:00 1452796200
Misc-527006-15-16 Purchase Tender documents for Annual Rate Contract for supply of Medicines and other Medical consumables for the year 2016-2017 & 2017-2018 15/01/2016 15:00 1452796200
Maint/952084/15-16 Electrical Electrical renovation of Interview Rooms of Training and Placement Section at EDC. 13/01/2016 15:00 1452623400
Maint/952111/15-16 Electrical Annual rate contract (ARC) for Air conditioners (ACs ) and water coolers. 13/01/2016 15:00 1452623400
Re-Tender Maint/958237/15-16 Civil Repair work at Semi circular Dome shed at GJLT 13/01/2016 15:00 1452623400
Maint/958305/15-16 Civil Re-construction of Badminton Court in ‘C’ Block at Amber Hostel 13/01/2016 15:00 1452623400
Maint/958306/15-16 Civil Repair & painting works at GJLT (Outside) 13/01/2016 15:00 1452623400
Maint/958312/15-16 Civil Repair & painting work at Dark Room to convert in to faculty room Dr. Rashmi Madhuri and Dr. S.Maity at Applied Chemistry 13/01/2016 15:00 1452623400
Maint/958317/15-16 Civil Repair and painting work of ED Hall of Mechanical Engineering 13/01/2016 15:00 1452623400
INST-525029-15-16 Purchase Medals 12/01/2016 18:09 1452537000
525030-15-16 Purchase Medal 12/01/2016 18:03 1452537000
Maint/958330/15-16 Civil Repair & re-flooring work at Examination Section in Admin Block 11/01/2016 15:00 1452450600
Maint/958314/15-16 Civil Repair work at EDC Building 11/01/2016 15:00 1452450600
Maint/952086/15-16 Electrical Provision of 02 no. changeover switch along with necessary cabling for power supply during JSEB power failure from 02 no. 250kVA DG Set at Substation-1. 08/01/2016 15:00 1452191400
Maint/952093/15-16 Electrical Power sockets for Grass cutting machine at Upper Ground. 08/01/2016 15:00 1452191400
Maint/952112/15-16 Electrical Repairing of 15 HP and 7.5 HP Submersible Motors with Pump at CMU Store. 08/01/2016 15:00 1452191400
Maint/958309/15-16 Civil Repair of floor stair case and painting of walls, grills at Lower ground/ Upper ground ISM Campus 06/01/2016 15:00 1452018600
Maint/958283/15-16 Civil White washing, distempering and painting work at vacant qrt. no. N/III/2,24 06/01/2016 15:00 1452018600
Maint/958282/15-16 Civil Minor civil repair/replacement work at Qrt. No. UGC/1 06/01/2016 15:00 1452018600
Maint/958280/15-16 Civil White washing, distempering & painting work at qrt. no. E/1 06/01/2016 15:00 1452018600
Maint/958285/15-16 Civil Minor civil repair, replacement work at Qrt. No. B/1 and II/B-102 06/01/2016 15:00 1452018600
Achem-500356-16-17 Purchase Supply and Installation of 400 MHz Instrument 03/01/2016 15:00 1451759400
Achem-500356-16-17 Purchase Supply and Installation of 400 MHz NMR Instruments 03/01/2016 15:00 1451759400
Achem-500356-16-17 Purchase Supply and Installation of 400 MHz instrument 03/01/2016 15:00 1451759400
KEC-538010-15-16 Purchase Supply & Installation of 55 inch Smart LED TV 29/12/2015 15:00 1451327400
Chemical-531014-15-16 Purchase Supply & Installation of High Precision Programmable Syringe Pump with Infusion capabilities 29/12/2015 15:00 1451327400
M-501015-15-16 Purchase 1) Supply & Installation of VOD Recorder with accessories 2)VOD probe-rod 3) VOD Sensing cable- 4) Coaxial Cable 5) Advanced Analytical Software for VOD analysis 29/12/2015 15:00 1451327400
ESE-513026-15-16 Purchase Supply & Installation of Orbital shaking Incubator 29/12/2015 15:00 1451327400
Maint/958249/15-16 Civil Renovation of kitchen and bathroom at Shanti Bhawan Girls Hostel ISM Campus 28/12/2015 15:00 1451241000
Maint/958251/15-16 Civil Repair & maintenance of outside walls at Topaz Hostel 28/12/2015 15:00 1451241000
Maint/958253/15-16 Civil Repair and maintenance work of outside walls at Emerald Hostel 28/12/2015 15:00 1451241000
Maint/958278/15-16 Civil Renovation of the area vacated by chemical Engineering department in the 1st floor Main School Building 28/12/2015 15:00 1451241000
Maint/958293/15-16 Civil Repair of RCC pillars, chajja, roof, drain gutter at EDC Building 28/12/2015 15:00 1451241000
Maint/958249/15-16 Civil Renovation of kitchen and bathroom at Shanti Bhawan Girls Hostel ISM Campus 28/12/2015 15:00 1451241000
Maint/958251/15-16 Civil Repair & maintenance of outside walls at Topaz Hostel 28/12/2015 15:00 1451241000
Maint/958253/15-16 Civil Repair and maintenance work of outside walls at Emerald Hostel 28/12/2015 15:00 1451241000
Maint/958278/15-16 Civil Renovation of the area vacated by chemical Engineering department in the 1st floor Main School Building 28/12/2015 15:00 1451241000
Maint//958249/15-16 Civil Renovation of kitchen and bathroom at Shanti Bhawan Girls Hostel ISM Campus 28/12/2015 15:00 1451241000
ESE-513025-15-16 Purchase Supply & Installation of Verticale Laminar Flow Cabinet 22/12/2015 15:00 1450722600
ESE-513023-15-16 Purchase Supply & Installation of UV- VIS Spectrophotometer 22/12/2015 15:00 1450722600
ESE-513018-15-16 Purchase Supply & Installation of Ambient NOx Analyser 22/12/2015 15:00 1450722600
ESE-513024-15-16 Purchase Digital Multimeter 22/12/2015 15:00 1450722600
Mech Engg-537017-15-16 Purchase Supply & Installation of Desiccant assisted Air - Conditioning System - 01 No 22/12/2015 15:00 1450722600
PE-502013-15-16 Purchase Supply & Installation of Experimental Setup of wax deposition studies 22/12/2015 15:00 1450722600
M-501021-15-16 Purchase Supply & Installation of Thermal Property Analyser 18/12/2015 15:00 1450377000
FME-509013-13-14 Purchase supply and installation of Density Separator 18/12/2015 15:00 1450377000
FME-509017-13-14 Purchase Supply & Installation of RO-Tap Sieve Shaker 18/12/2015 15:00 1450377000
FME-509014-13-14 Purchase Supply & Installation of Wilfley Table 18/12/2015 15:00 1450377000
M-501014-15-16 (Reminder) Purchase Supply & Installation of Seismographs for ground vibration and air overpressure compliance monitoring with Blastware Advanced Module –Event Management, Reporting and Advanced Analysis Software 18/12/2015 15:00 1450377000
Maint/958277/15-16 Civil Distempering and painting work at vacant Qrt. No. Flat/40 UGC Enclave 48/Qrt 18/12/2015 15:00 1450377000
Maint/958296/15-16 Civil Repair/replacement of civil work at Qrt. No. UGC/6 18/12/2015 15:00 1450377000
Maint/958298/15-16 Civil Minor civil repair work at Qrt. No. E/14 18/12/2015 15:00 1450377000
Maint/958299/15-16 Civil Replacement of PVC tank, pipe line, tap, mirror, glass pan at Flat/45, Opal Hostel, Health Centre 18/12/2015 15:00 1450377000
Maint/958302/15-16 Civil Distempering and painting work at Qrt. No. Flat/37 UGC Enclave 18/12/2015 15:00 1450377000
Maint/958308/15-16 Civil Replacement of damaged AC sheet roofing at PI Staff Mess at Store at Main School Building ISM Campus 18/12/2015 15:00 1450377000
ESE-513021-15-16 Purchase Supply & Installation of Planimeter 15/12/2015 15:00 1450117800
ESE-513017-15-16 Purchase Supply & Installation of Ambient O3 Analyzer 15/12/2015 15:00 1450117800
CE-535011-15-16 Purchase Supply & Installation of Ductility testing Machine with Digital Display 15/12/2015 15:00 1450117800
CE-535010-15-16 Purchase Supply & Installation of Digital Benkelman Beam & CBR Test Apparatus 15/12/2015 15:00 1450117800
CE-535012-15-16 Purchase Supply & Installation of Digi Marshall Apparatus & Pavement Dynamic Cone Penetrometer 15/12/2015 15:00 1450117800
CE535013-15-16 Purchase Supply & Installation of Flash Point (Closed) Pensky, Thermometer IP 15C Range and Centrifuge Extractor Range 15/12/2015 15:00 1450117800
Maint/958026/15-16 Civil Renovation/modification work in Conference Room at Old EDC 15/12/2015 15:00 1450117800
Maint/958101/15-16 Civil Renovation of computational and U/G space Technology Sections in Rock Excavation Laboratory 15/12/2015 15:00 1450117800
Maint/958212/15-16 Civil Replacement of damaged shutter from welding of M.S. window grill etc at H/3,C/4,D/17(old),N/III/5, N/D-20,II/25 15/12/2015 15:00 1450117800
Maint/958246/15-16 Civil Renovation of old PCE Office in EDC Building 15/12/2015 15:00 1450117800
Maint/958289/15-16 Civil Providing and fixing outlet PVC pipe at Jasper Hostel 15/12/2015 15:00 1450117800
Corrigendum Maint/958237/15-16 Civil Repair work at Semi circular Dome shed at GJLT 14/12/2015 15:00 1450031400
Maint/958250/15-16 Civil Providing and fixing PVC door shutter at Amber Hostel 14/12/2015 15:00 1450031400
Maint/958256/15-16 Civil Repair/replacement work at sanitary & water supply fittings near Jasper Hostel, Opal Hostel, Sapphire Hostel, ESE Department at ISM Campus 14/12/2015 15:00 1450031400
Maint/958259/15-16 Civil Providing and fixing PVC pipe for outlet in mess area at Jasper Hostel 14/12/2015 15:00 1450031400
Maint/958281/15-16 Civil Repair of water cooler platform at Diamond Hostel 14/12/2015 15:00 1450031400
Maint/958300/15-16 Civil White washing distempering and painting work in the vacant Qrt. No. H/14, H/15 at ISM Campus 14/12/2015 15:00 1450031400
ESE-513016-15-16 Purchase Supply & Installation of Low Flow VOC Sampler 11/12/2015 15:00 1449772200
FME-509010-15-16 Purchase Supply & Installation of Pot Sintering Machine 11/12/2015 15:00 1449772200
ESE-513019-15-16 Purchase Supply & Installation of Handy Sampler for gaseous sampling 11/12/2015 15:00 1449772200
ESE-513011-15-16 Purchase Supply & Installation of Peristaltic Pump 11/12/2015 15:00 1449772200
App Phy-505028-15-16 Purchase Purchase of Computer Workstation 11/12/2015 15:00 1449772200
ECE-511020-15-16 Purchase Supply & Installation of 05 KVA wall mount digital Voltage stabilizer 11/12/2015 15:00 1449772200
ESE-513019-15-16 (Revised) Purchase Purchase of Handy Sampler for gaseous sampling 11/12/2015 15:00 1449772200
Maint/ 952102/15-16 Electrical Procurement of electrical items for Day-to- Day Maintenance. 11/12/2015 15:00 1449772200
M-501020-15-16 Purchase of Real time portable personal diesel particulate monitors with accessories 08/12/2015 15:00 1449513000
Maint/958211/15-16 Civil Providing and fixing wall tiles in the kitchen of Qrt. No. II/5 Modified 08/12/2015 15:00 1449513000
Maint/958232/15-16 Civil Repair/replacement and maintenance work at Qrt. No. Vee/4 08/12/2015 15:00 1449513000
Maint/958269/15-16 Civil Dismantling and painting work at Qrt. No. flat/4 UGC Enclave 08/12/2015 15:00 1449513000
Maint/958271/15-16 Civil Repair of cooler platform (9 Nos) of Sapphire Hostel 08/12/2015 15:00 1449513000
Maint/958272/15-16 Civil Replacement of PVC O.H. tank & shifting of PVC tank, ball cock etc at SAH & H/type Qrt. I/15 & I/26-45 08/12/2015 15:00 1449513000
Maint/952087/15-16 Electrical Electrical renovation of PCE office at EDC. 07/12/2015 15:00 1449426600
Maint/952100/15-16 Electrical Wiring with s/fixing of electrical accessories for Fume Hood Machine in Air Lab at the Dept. of ESE. 07/12/2015 15:00 1449426600
Maint/952103/15-16 Electrical Lowering, lifting & repairing of 7.5 HP motor with pump at Dug well no. -03 at Teachers Colony. 07/12/2015 15:00 1449426600
ECE-511018-15-16 Supply, Installation of PLC and SCADA Based Flow Control Loop 04/12/2015 15:00 1449167400
ECE-511018-15-16 Supply, Installation of PLC and SCADA Based Flow Control Loop 04/12/2015 15:00 1449167400
ESE-513014-15-16 Purchase Supply & Installation of TKN analyser - Speed diagester unit with Distillation unit 04/12/2015 15:00 1449167400
M-501023-15-16 Purchase Supply & Installation of Load Frame, Motorized, 500kN capacity Load frame for application of compression and penetration loads required for rock fracture toughness test, unconfined compression test etc. Motorised compression machine, 220 -240 V 50/60 Hz. 04/12/2015 15:00 1449167400
ESE-513007-15-16 Purchase Supply & Installation of Turner Design Handheld Fluorometer/Turbidimeter 04/12/2015 15:00 1449167400
ESE-513015-15-16 Purchase Supply & Installation of Turbidity Meter (Portable) 04/12/2015 15:00 1449167400
FME-509009-15-16 Purchase Supply & Installation of BiomassPyrolysis Machine 04/12/2015 15:00 1449167400
Maint/958212/15-16 Civil Replacement of damaged shutter from welding of M.S. window grill etc at H/3,C/4,D/17(old),N/III/5, N/D-20,II/25 04/12/2015 15:00 1449167400
Maint/958214/15-16 Civil Repair/replacement of G.I. pipe line, sink, glass shelf, W.C. pan at Qrt. No. C2/11, II/1 EDC,II/11,N/III/23,N/III/5 & 10 04/12/2015 15:00 1449167400
Maint/958250/15-16 Civil Providing and fixing PVC door shutter at Amber Hostel 04/12/2015 15:00 1449167400
Maint/958256/15-16 Civil Repair/replacement work at sanitary & water supply fittings near Jasper Hostel, Opal Hostel, Sapphire Hostel, ESE Department at ISM Campus 04/12/2015 15:00 1449167400
Maint/958259/15-16 Civil Providing and fixing PVC pipe for outlet in mess area at Jasper Hostel 04/12/2015 15:00 1449167400
Maint/958218/15-16 Civil Repair/replacement of sanitary fitting and water supply fitting at Qrt. No. flat/2,4, UGC/20,12,E/2,II/3,N/D-1, FME/Deptt, D/38(old),UGC/16,Block/1-flat/3 04/12/2015 15:00 1449167400
Maint/958195/15-16 Civil Repair/replacement of pipe line sever pipe, sink tap, ball cock etc at C/5,E/16, 122/IV, C/type porch 02/12/2015 15:00 1448994600
Maint/958261/15-16 Civil Repair work at GJLT Hall 02/12/2015 15:00 1448994600
Maint/958270/15-16 Civil Replacement of damaged G.I. pipe from O.H. tank of Qrt. No. C2/9-14 02/12/2015 15:00 1448994600
Maint/958248/15-16 Civil Digging of bore hole (2 Nos.) at ISM Campus 02/12/2015 15:00 1448994600
Maint/958284/15-16 Civil Painting of simulation Lab in Petroleum Engineering and Office chamber of Dr. Anurag Jaiswal of Mathematics Department 02/12/2015 15:00 1448994600
App Phy-505029-15-16 Purchase Purchase of Muffle Furnace with Gas Purging Facility 01/12/2015 15:00 1448908200
FME-509005-15-16 Purchase Supply & Installation of Portable Flue Gas Analyser for analysis of flue gas composition 01/12/2015 15:00 1448908200
ESE-513012-15-16 Purchase Supply & Installation of Rotary Evaporator 01/12/2015 15:00 1448908200
ESE-513013-15-16 Purchase Supply & Installation of Gel Documentation Systems 01/12/2015 15:00 1448908200
Maint/958192/15-16 Civil Making brick dustbin 2 nos. (3.58 x 2.62) at 150 Qrt. GRS premises at ISM Campus 01/12/2015 15:00 1448908200
Maint/958226/15-16 Civil Minor civil repair work at Qrt. No. UGC/flat-18 (48 Qrt) 01/12/2015 15:00 1448908200
Maint/958237/15-16 Civil Repair work at Semi circular Dome shed at GJLT 01/12/2015 15:00 1448908200
Maint/958252/15-16 Civil Repair & maintenance (Outside of Extension part of SAH 01/12/2015 15:00 1448908200
Maint/958273/15-16 Civil Repair of Parking shed at SBI Campus ISM Branch ISM 01/12/2015 15:00 1448908200
ESE-513008-15-16 Supply & Installation of Portable Handheld Potentostat/Galvanostat alongwith screen printed electrodes and their accessories 27/11/2015 15:00 1448562600
ESE-513009-15-16 Supply & Installation of Microplate Photometer with Incubator 27/11/2015 15:00 1448562600
App Phy-505026-15-16 Supply & Installation of Photomultiplier with accessories 27/11/2015 15:00 1448562600
CSE-528008-15-16 Purchase Supply & Installation of Centralized Enterprise level End Point Protection With Complete Secuity and total Protection Feature as enclosed 27/11/2015 15:00 1448562600
Maint/958195/15-16 Civil Repair/replacement of pipe line sever pipe, sink tap, ball cock etc at C/5,E/16, 122/IV, C/type porch 27/11/2015 15:00 1448562600
Maint/958235/15-16 Civil Repair work at Amber and Topaz Hostel 27/11/2015 15:00 1448562600
Maint/958238/15-16 Civil Repair & painting work at EDC and Extension EDC Building 27/11/2015 15:00 1448562600
Maint/958255/15-16 Civil Minor civil repair work at Qrt. No. B/2 27/11/2015 15:00 1448562600
Maint/958257/15-16 Civil Repair replacement work at garage no. 20 of UGC Qrt No.8 at ISM Campus 27/11/2015 15:00 1448562600
Maint/958287/15-16 Civil Repair/re-flooring two nos. room at SAH 27/11/2015 15:00 1448562600
ECE-511014-15-16 Purchase Supply & Installation of RF Absorbers for Anechoic Chambers 24/11/2015 15:00 1448303400
M-501016-15-16 Purchase Supply & Installation of Full Version updated Fragalyst Image analtsis Software for rock fragmentation analysis along with USB Dongle and Manual 24/11/2015 15:00 1448303400
M-501019-15-16 Supply & Installation of Type N original Schmidt Concrete Test Hammer (Proceq Make) 24/11/2015 15:00 1448303400
Maint/958315/14-15 Civil Renovation/modification work in Establishment Section and front corridor at Admin Block 24/11/2015 15:00 1448303400
FME-509006-15-16 Purchase Supply & Installation of Humidity Chamber 24/11/2015 15:00 1448303400
Maint/958242/15-16 Civil Aluminium partition work for Computer Room (Ground floor) at Academic Section 24/11/2015 15:00 1448303400
Maint/958245/15-16 Civil Repair of water supply pipe line at Emerald Hostel 24/11/2015 15:00 1448303400
Maint/958261/15-16 Civil Repair work at GJLT Hall 24/11/2015 15:00 1448303400
Maint/958263/15-16 Civil Floor painting with Premium Acrylic paint at Badminton Court of Scolomin Club 24/11/2015 15:00 1448303400
Maint/958158/15-16 Civil Repair of stage platform & painting work (inside) at GJLT Hall 24/11/2015 15:00 1448303400
CE-535009-15-16 Purchase Purchase of Shake Table 20/11/2015 15:00 1447957800
PE-502011-15-16 Purchase Purchase of High Pressure Porosimeter (Mercury or non-mercury system) 20/11/2015 15:00 1447957800
ECE-511016-15-16 Purchase Supply & Installation of High Configuration Desktop Computer 20/11/2015 15:00 1447957800
Maint/958212/15-16 Civil Replacement of damaged shutter from welding of M.S. window grill etc at H/3,C/4,D/17(old),N/III/5, N/D-20,II/25 18/11/2015 15:00 1447785000
Maint/958217/15-16 Civil Minor civil repair work at Qrt. No. II/51,I/43,I/41 at Staff Colony 18/11/2015 15:00 1447785000
Maint/958236/15-16 Civil Repair of Iron net at Library Building and repair of road in front of GH-2 18/11/2015 15:00 1447785000
Maint/958241/15-16 Civil Repair/re-construction of drain, pavement main gate etc in the SBI/ISM Branch Campus ISM 18/11/2015 15:00 1447785000
Maint/958244/15-16 Civil Minor civil repair/replacement work at Qrt. No. C/8,N/G-11,I/29, ISW/II 18/11/2015 15:00 1447785000
Maint-952088-15-16 Electrical Annual Rate Contract (ARC) for day –to-day Electrical Maintenance Work of ISM Campus. 16/11/2015 15:00 1447612200
Corrigendum-Maint/952089/15-16 Electrical Replacement of defective light fittings by 18W LED light fittings in Chairman suite at SAH. 16/11/2015 15:00 1447612200
Corrigendum-Maint/952096/15-16 Electrical Wiring with s/installation of exhaust fan in Lab of Dr. Somnath Yadav(Room no. - 20), wiring with s/fixing of electrical accessories in Lab of Dr.Soumitra Maity……… 16/11/2015 15:00 1447612200
Maint/952078/15-16 Electrical New wiring with s/installation of an additional ceiling fan in Room no - 68, 73, 74, 75, 76, 159, 160, 161, 162, 163, 164, 165, 166, 167, 168 and 169 at Diamond Hostel. 13/11/2015 15:00 1447353000
Maint/952097/15-16 Electrical Painting of street light poles at Staff Colony, Main Gate to Ranibandh(Dhaiya) Gate, Sapphire Hostel, Amber Hostel & EDC. 13/11/2015 15:00 1447353000
Maint/952096/15-16 Electrical Wiring with s/installation of exhaust fan in Lab of Dr. Somnath Yadav(Room no. - 20), wiring with s/fixing of …….. 10/11/2015 15:00 1447093800
Maint/952070/15-16 Electrical Laying of cable with s/fixing of cable end termination box for conversion of power supply system from 1 - phase to 3 - phase for street light from Substation - 01 to Dhaiya Gate. 10/11/2015 15:00 1447093800
Maint/952089/15-16 Electrical Replacement of defective light fittings by 18W LED light fittings in Chairman suite at SAH. 10/11/2015 15:00 1447093800
Maint/952094/15-16 Electrical Replacement of defective 630A MCCB in Substation no. - 03 and 250A MCCB in SAC. 10/11/2015 15:00 1447093800
PE-502012-15-16 Purchase Supply & Installation of Digital Rotary Evaporator with vacuum Pump, Vacuum Controlled & Recirculation Chiller 03/11/2015 15:00 1446489000
Maint/958221/15-16 Civil Providing and fixing Inauguration stone and minor repair work at CIIE 03/11/2015 15:00 1446489000
Maint/958243/15-16 Civil Repair work at IEDC Building 03/11/2015 15:00 1446489000
Maint/958229/15-16 Civil Providing and fixing G.I. pipe line connection for main pipe line to EDC Sump 03/11/2015 15:00 1446489000
Maint/958233/15-16 Civil Repair & painting work (3 rooms) at Applied Mathematics Department 03/11/2015 15:00 1446489000
Maint/958239/15-16 Civil New water supply connection for mess washing area and other repair works at Jasper Hostel 03/11/2015 15:00 1446489000
Maint/958188/15-16 Civil Construction of bathroom and renovation of existing bathroom to kitchen room at Qrt. No. C/121 28/10/2015 15:00 1445970600
Maint/958222/15-16 Civil Repair work at Research Laboratory at Applied Chemistry Department 28/10/2015 15:00 1445970600
Maint/958225/15-16 Civil Providing and fixing G.I. water line connection from DVC supply line to Sump near Emerald Hostel 28/10/2015 15:00 1445970600
Maint/958227/15-16 Civil Providing and fixing water supply and sanitary fixture of EDC Building 28/10/2015 15:00 1445970600
Maint/958224/15-16 Civil Providing and laying paver block, wooden frame and shutter, rain shed and water line connection with basin at Scolomin Club 28/10/2015 15:00 1445970600
INST-525016-15-16 (CORRIGENDUM) Purchase Printing & Supply of Answer Book 27/10/2015 15:00 1445884200
Mech Engg-537014-15-16 Purchase Supply & Installation of Experimental Setup of Desiccant De Humidifier Having Regeneration Module With Heater 27/10/2015 15:00 1445884200
PE-502012-15-16 Purchase Supply & Installation of Digital Rotary Evaporator with vacuum Pump, Vacuum Controlled & Recirculation Chiller 15/10/2015 15:00 1444847400
PE-502012-15-16 Purchase Supply & Installation of Digital Rotary Evaporator with vacuum Pump, Vacuum Controlled & Recirculation Chiller 15/10/2015 15:00 1444847400
Maint/952152/14-15 Electrical Replacement of 36W, 4' tube light by 43W LED light fittings in Common Rooms (Ground to 5th floor) at Jasper Hostel. 14/10/2015 15:00 1444761000
Maint/952083/15-16 Electrical Replacement of 36/40W, 4’ tubelight by 15W LED tubelight & 20W CFL by 9W LED Lamp at RG Bungalow. 14/10/2015 15:00 1444761000
Maint/958203/15-16 Civil Repair of potholes in the approach road of 150/qrt. GRS ISM 14/10/2015 15:00 1444761000
Maint/958223/15-16 Civil Repair and maintenance work at Children Park Staff Colony ISM Campus 14/10/2015 15:00 1444761000
AGP-504011-15-16 (Reminder) Purchase Supply & Installation of Capillary Pressure Measuring Equipment 12/10/2015 15:00 1444588200
AGP-504016-15-16 Purchase Supply & Installation of Total Station with Standard Accessories 12/10/2015 15:00 1444588200
App Chem-506013-15-16 Purchase Supply & Installation of Fully automated single quadrupole GC-MS (Gas Chromotograph-Mass spectrometer) with accessories and peripherals 09/10/2015 15:00 1444329000
ECE-511012-15-16 Purchase Supply & Installation of DC Regulated Power supply 3 Channels 09/10/2015 15:00 1444329000
AGP-504017-15-16 Purchase LAN Connectivity from CAD Lab to AGP Annex building by opticle Fibre 09/10/2015 15:00 1444329000
ECE-511010-15-16 (Reminder) Purchase Purchase of Antivirus Software (1year Subscription) 09/10/2015 15:00 1444329000
Maint/952072/15-16 Electrical Repairing of street lights/flood lights inside ISM Campus. 09/10/2015 15:00 1444329000
Maint/952073/15-16 Electrical Lifting of Submersible motor with pump, dismantalling of cable & motor starter panel …….. 09/10/2015 15:00 1444329000
Maint/952076/15-16 Electrical Repairing of damaged cable, dismantalling of street light pole & light fittings while construction of road in front of Academic Complex. 09/10/2015 15:00 1444329000
Maint/952074/15-16 Electrical Laying of cable for street light in Scolomin Club, Teachers Colony, Sump near Emerald Hostel……… 09/10/2015 15:00 1444329000
Maint/952077/15-16 Electrical Wiring with s/fixing of electrical accessories in post Office(ISM Branch), wiring with s/fixing of ……. 09/10/2015 15:00 1444329000
Maint/952080/15-16 Electrical Replacement of Existing Main Switches & Distribution Panels by new MCCB type control panel at Sump no. - 01. 09/10/2015 15:00 1444329000
Maint/952069/15-16 Electrical Electrical renovation of Store & Purchase Section at Admin Block. 07/10/2015 15:00 1444156200
Maint/952071/15-16 Electrical S/installation of fire extinguisher in different R & D Labs at the Dept. of Applied Chemistry. 07/10/2015 15:00 1444156200
Maint/952075/15-16 Electrical Replacement of 36/40W, 4' tube light by 15W LED tube light & 20W CFL by 9W LED Lamp at Scolomin House. 07/10/2015 15:00 1444156200
Maint/958032/15-16 Civil Renovation of B.Tech Practical Chemistry Laboratory at Science Block (2nd floor) 07/10/2015 15:00 1444156200
Maint/958200/15-16 Civil Providing and fixing wall tiles in all common area of old EDC Building and Extension Building along with painting related with this work 07/10/2015 15:00 1444156200
KEC-538009-15-16 (Reminder) Purchase Purchase of 55 inch Smart LED TV 06/10/2015 15:00 1444069800
ESE-513006-15-16 Purchase Supply & Installation of Fully Automatic Autoclave 06/10/2015 15:00 1444069800
CE-535008-15-16 Purchase Supply & Installation of Pneumatic Actuator (Capacity -20 kN) with necessary Software and Compressor 06/10/2015 15:00 1444069800
Maint/958194/15-16 Civil Providing and fixing vertical blinds at Management Studies 06/10/2015 15:00 1444069800
Maint/958207/15-16 Civil Providing and fixing PTMT ball cock of water tank at Amber Hostel Block- A,B & D 06/10/2015 15:00 1444069800
Maint/958211/15-16 Civil Providing and fixing wall tiles in the kitchen of Qrt. No. II/5 Modified 06/10/2015 15:00 1444069800
Maint/958212/15-16 Civil Replacement of damaged shutter from welding of M.S. window grill etc at H/3, C/4,D/17(old),N/III/5, N/D-20,II/25 06/10/2015 15:00 1444069800
ISM/DSW/117/Stationery Shop/2015 Miscellaneous Running ISM Stationery Shop including computer typing & printing, photocopying, telephone, fax & internet services 05/10/2015 16:00 1443983400
Re-Tender Maint/958192/15-16 Civil Making brick dustbin 2 nos. (3.58 x 2.62) at 150 Qrt. GRS premises at ISM Campus 05/10/2015 15:00 1443983400
Corrigendum- Maint/958158/15-16 Civil Repair of stage platform & painting work (inside) at GJLT Hall. 05/10/2015 15:00 1443983400
Corrigendum- Maint/958175/15-16 Civil Repair of roof with APP (10 Years Guarantee) at Qrt. Nos. Garage No.5 of D/7(old),II/104,V/5,III/V-11,H/4,II/6 & garage of Staff Colony. 05/10/2015 15:00 1443983400
App Phy-505024-15-16 Purchase Supply & Installation of Microscope Objective Super Apochromatic 29/09/2015 15:00 1443465000
Maint/958151/15-16 Civil Construction of toilet cum bathroom for Outhouse of Staff Club 28/09/2015 15:00 1443378600
Maint/958171/15-16 Civil Water connection in Bicycle garage for converted into Canteen Amul & Fusion-19 of Sapphire Hostel 28/09/2015 15:00 1443378600
Maint/958202/15-16 Civil Replacement steel window net (304) at Class Room 1,2 and conference room along with other repair work EDC Building 28/09/2015 15:00 1443378600
Maint/958205/15-16 Civil Re-construction of boundary wall and barbed wire with backside drain and other repair work at Topaz Hostel 28/09/2015 15:00 1443378600
Maint/958209/15-16 Civil Replacement of brass gate valve, ball cock at Block No. 1-10 (150) quarter is GR Side ISM 28/09/2015 15:00 1443378600
ESE-513004-15-16 Purchase Supply & Installation of Refrigerated Orbital Incubator Shaker 22/09/2015 15:00 1442860200
App Phy-505022-15-16 Purchase Supply of Correlator Card 21/09/2015 15:00 1442773800
M-505015-15-16 Purchase Supply & Installation of VOD Recorder with accessories 21/09/2015 15:00 1442773800
M-501012-15-16 Purchase Supply of Diamond impregnated thin wall NX size (54mm int. dia.) core drilling bit for drill cores in rock samples in the laboratory to be fitted with core barrel of 300mm long. 18/09/2015 15:00 1442514600
M-501014-15-16 Purchase Supply & Installation of Seismographs 18/09/2015 15:00 1442514600
App Phy-505021-15-16 Purchase Supply & Installation of Avalanche Photo Diode (APD) Single photon counting module (SPCM) with fiber Coupling (FC) connector 18/09/2015 15:00 1442514600
Mech Engg-537009-15-16 (Reminder) Purchase Supply & Installation of Desktop Workstation with LED Monitor and Accessoreis 18/09/2015 15:00 1442514600
Maint/952066/15-16 Electrical Electrical renovation of kitchen and Dining area of Old & New SAH. 16/09/2015 15:00 1442341800
KEC-538008-15-16 Purchase Purchase of Laptop (Core i7) 15/09/2015 15:00 1442255400
Mech Engg-537007-15-16 (Re-Tender) Purchase Supply & Installation of Desiccant assisted Air - Conditioning System 15/09/2015 15:00 1442255400
ECE-511009-15-16 Purchase Supply & Installation of 40 GHz Analog Intensity Modulator 15/09/2015 15:00 1442255400
App Phy-505019-15-16 Purchase Supply & Installation of Diode Pump Solid State Laser with Power Supply 15/09/2015 15:00 1442255400
W-520009-15-16 Purchase Purchase of Sisam wood & Malaysiam Gamhar wood 15/09/2015 15:00 1442255400
Maint/958148/15-16 Civil Renovation and modification of existing Store Room for interview rooms in training and placement centre EDC Building 14/09/2015 15:00 1442169000
Maint/958176/15-16 Civil Repair of boundary wall of Emerald Hostel and water line connection of Amul Parlour of Amber Hostel & Emerald Hostel 14/09/2015 15:00 1442169000
Maint/958180/15-16 Civil Repair/replacement of G.I. pipe valve etc at Scolomin Club 14/09/2015 15:00 1442169000
Maint/958197/15-16 Civil Repair & painting work at phasma Lab in Workshop, Som Lab Mechanical Department & 310 Room at MME Department 14/09/2015 15:00 1442169000
Maint/958199/15-16 Civil Repair & painting work of office room of Prof. P.K. Behura, ME Department 14/09/2015 15:00 1442169000
AM-507005-15-16 (Reminder) Purchase Supply & Installation of Workstation 11/09/2015 15:00 1441909800
M-501005-15-16 (Reminder) Purchase Supply & Installation of Digital Large Direct Shear Apparatus with accessories 11/09/2015 15:00 1441909800
Maint/952035/15-16 Electrical Electrical renovation of B. Tech Lab at the Dept. of Applied Chemistry. 09/09/2015 15:00 1441737000
Maint/952061/15-16 Electrical Repairing of street lights/flood lights and other miscellaneous works at Amber Hostel, Jasper Hostel, Heritage Canteen & Ruby Hostels. 09/09/2015 15:00 1441737000
Maint/952063/15-16 Electrical Wiring with s/fixing of electrical accessories at Opal Hostel Extension & Topaz Hostel. 09/09/2015 15:00 1441737000
Maint/952064/15-16 Electrical Wiring with s/fixing of electrical accessories in UPS Room –I & II at the Dept. of CSE, Sitting Room of Dr. R.R. Das (Room no.-303) at the Dept. of MME, ……. 09/09/2015 15:00 1441737000
Maint/952068/15-16 Electrical Wiring with s/fixing of electrical accessories in Lab of Dr. S. K. Sahu for Infrared spectrophotometer machine, Chamber of Dr. S.K. Padhi, ……. 09/09/2015 15:00 1441737000
AGP-504011-15-16 Purchase Supply and installation of Capillary Pressure Measuring Equipment 08/09/2015 15:00 1441650600
KEC-538009-15-16 Purchase Supply & Installation of 55 inch Smart LED TV 08/09/2015 15:00 1441650600
CC-516012-15-16 Purchase Setting up LAN facility at vertical Extension of CSE, PE, DMS, Science Block, ESE & FME 08/09/2015 15:00 1441650600
EE-529018-15-16 Purchase Supply & Installation of A Complete Set up for a 3 Phase self excited induction genarator 08/09/2015 15:00 1441650600
Mech Engg-537012-15-16 Purchase Supply & Installation of Concentric Tube (Parallel and Counter Flow) Heat Exchanger 08/09/2015 15:00 1441650600
Maint/958166/15-16 Civil Replacement of damaged G.I. pipe near Pump House No.4 08/09/2015 15:00 1441650600
Maint/958169/15-16 Civil Providing and fixing PVC O.H. water tank at Qrt. No. C2/15-20 08/09/2015 15:00 1441650600
Maint/958177/15-16 Civil Repair work at CIIE at ISM 08/09/2015 15:00 1441650600
Maint/958182/15-16 Civil Construction of drain for cable trench at Sub-station-3 08/09/2015 15:00 1441650600
Maint/958183/15-16 Civil Repair work at IEDC Building 08/09/2015 15:00 1441650600
Maint/958186/15-16 Civil Providing and fixing tank cover and mosquito nets in the window of warden at Amber Hostel 08/09/2015 15:00 1441650600
Maint/958158/15-16 Civil Repair of stage platform & painting work (inside) at GJLT Hall 07/09/2015 15:00 1441564200
Maint/958171/15-16 Civil Water connection in Bicycle garage for converted into Canteen Amul & Fusion-19 of Sapphire Hostel 07/09/2015 15:00 1441564200
Maint/958174/15-16 Civil Providing and fixing aluminium window and painting work at office chamber (Room No. 308 & 211) at Mech & MME Department 07/09/2015 15:00 1441564200
Maint/958175/15-16 Civil Repair of roof with APP (10 Years Guarantee) at Qrt. Nos. Garage No.5 of D/7(old),II/104,V/5,III/V-11,H/4,II/6 & garage of Staff Colony 07/09/2015 15:00 1441564200
Maint/958192/15-16 Civil Making brick dustbin 2 nos. (3.58 x 2.62) at 150 Qrt. GRS premises at ISM Campus 07/09/2015 15:00 1441564200
Chemical-531010-15-16 Purchase Supply & Installation of High Pressure Vapor Liquid Equilibrium Setup 04/09/2015 15:00 1441305000
CC-516010-15-16 Purchase Supply & Installation of Window server 2012 Data Centre with software assurance, Client access license for Window server 2012 and MS Office professional 2013 academic edition 04/09/2015 15:00 1441305000
App Chem-506009-15-16 Purchase Microwave Syntesizer 04/09/2015 15:00 1441305000
App Chem-506009-15-16 Purchase Microwave Syntesizer 04/09/2015 15:00 1441305000
Chemical-531005-15-16 Purchase Supply and Installation of Temperature Programmed Reaction Studies System 01/09/2015 15:00 1441045800
EDC-515007-15-16 Purchase Supply Installation & Configuration of Wi Fi Access Point 01/09/2015 15:00 1441045800
Maint/958132/15-16 Civil Repair of damaged cement concrete pavement of Qrt. No. 121/E&W 26/08/2015 15:00 1440527400
Maint/958153/15-16 Civil Repair of leaking roof at Qrt. No. UGC/20 26/08/2015 15:00 1440527400
Maint/958154/15-16 Civil Roof treatment work at T/P/EDC (2nd floor) roof at EDC Building 26/08/2015 15:00 1440527400
Maint/958156/15-16 Civil Re-construction of damaged boundary wall near newly constructed Central Library Building 26/08/2015 15:00 1440527400
Maint/958157/15-16 Civil Repair/replacement of G.I. pipe, valve, taps at Ruby Hostel/PG-3, Jasper Hostel, SAH, II/Qrt 26/08/2015 15:00 1440527400
Maint/958159/15-16 Civil Repair of leaking roof at Ruby Hostel Annexe-1 26/08/2015 15:00 1440527400
Maint/958160/15-16 Civil Providing and fixing PVC O.H. water tank (6000/Ltr) & replacement of G.I. pipe, valve etc at SAH Old Building 26/08/2015 15:00 1440527400
Maint/958161/15-16 Civil Providing and fixing PVC flush wire mesh shutter at Qrt. No. B/2 26/08/2015 15:00 1440527400
Maint/958164/15-16 Civil Distempering and painting work at vacant Qrt. No. B/3, 35/37 26/08/2015 15:00 1440527400
Maint/958172/15-16 Civil Providing and fixing PVC O.H. water tank at Opal Hostel 26/08/2015 15:00 1440527400
M-501009-15-16 Purchase Supply & Installation of Workstation 25/08/2015 15:00 1440441000
Sports-523006-15-16 (Re-Tender) Purchase Supply & Installation of Scrubber Drier With Roller Brush Machine of Repued Brand with one year Warranty and 4 year AMC 25/08/2015 15:00 1440441000
App Phy-505015-15-16 Purchase Supply & Installation of H shape 100mm Pole Diameter Electromagnet 25/08/2015 15:00 1440441000
PE-502007-15-16 Purchase Supply & Installation of Gas Booster 25/08/2015 15:00 1440441000
EDC-515003-15-16 Purchase Housekeeping, Reception,Room Services,Catering,General Maintenance &Facility Management Services etc.for Executive Development Centre (EDC)&Senior Academic Hostel (SAH) 24/08/2015 16:00 1440354600
M-501006-15-16 Purchase Supply & Installation of AC LVDT & AC LVDT Electronics 21/08/2015 15:00 1440095400
M-501010-15-16 Purchase Purchase of 44 Inch Postscript Large Format Plotter 21/08/2015 15:00 1440095400
App Chem-506007-15-16 Purchase Supply & Installation of FTIR Spectrophotometer 21/08/2015 15:00 1440095400
MME-536007-15-16 Purchase Purchase of ANSYS Academic Research Ls-Dyna Software (Latest version) 21/08/2015 15:00 1440095400
Mech Engg-537011-15-16 Purchase Purchase of Ultrasonic Machine 21/08/2015 15:00 1440095400
CMU-/519001-15-16 Purchase Corrigendum:Supply & Installation of Submersible & monosump motors with pump 21/08/2015 15:00 1440095400
NIT No.CMU-519001-15-16 Purchase NIT CORRIGENDUM : Supply & Installation of Submersible and Monosump Motors with Pump 21/08/2015 15:00 1440095400
PE-502005-15-16 Purchase Supply & Installation of Fabrication of Experimental setup for the study of Organic Solid Deposition in Petroleum Formation 01No 21/08/2015 15:00 1440095400
Maint/952045/15-16 Electrical Wiring with s/installation of light fittings and electrical accessories in Outer Reading Hall (Ground floor) and SRB Section (1st Floor) at Central Library. 21/08/2015 15:00 1440095400
Maint/952050/15-16 Electrical New wiring with s/fixing of electrical accessories in Simulation Lab at Petroleum Engg. Dept. 21/08/2015 15:00 1440095400
Maint/952054/15-16 Electrical Replacement of Existing Main Switches & Distribution Panels by new MCCB type control panel at Petroleum Engineering Dept. 21/08/2015 15:00 1440095400
Maint/952055/15-16 Electrical Replacement of 36W, 4' tube light by 2 X 18W CFL light fittings in Staircase & Corridor of A,B,C & D Block(Ground to 5th floor) at Jasper Hostel. 21/08/2015 15:00 1440095400
Maint/952056/15-16 Electrical Repairing/replacement of defective 28W tube lights & LED light fittings at Director's Office. 21/08/2015 15:00 1440095400
Maint/952057/15-16 Electrical Wiring with s/fixing of electrical accessories in Office of Dr. L.A.Kumaraswamidash at the Dept. of MME, Fluid Mechanics & Machine Lab ……… 21/08/2015 15:00 1440095400
Maint/958136/15-16 Civil Repair of broken culvert near Generator House No.1 21/08/2015 15:00 1440095400
Maint/958142/15-16 Civil White washing, distempering work in the vacant Qrt. of Sub Postmaster of Post Office ISM Campus. 21/08/2015 15:00 1440095400
Maint/958162/15-16 Civil Making water connection in Amul Parlour Canteen at Diamond Hostel. 21/08/2015 15:00 1440095400
Maint/958178/15-16 Civil Re-construction of broken boundary wall behind Ruby Hostel, PG/3. 21/08/2015 15:00 1440095400
Maint/958136/15-16 Civil Repair of broken culvert near Generator House No.1 19/08/2015 15:00 1439922600
Maint/958142/15-16 Civil White washing, distempering work in the vacant Qrt. of Sub Postmaster of Post Office ISM Campus. 19/08/2015 15:00 1439922600
Maint/958162/15-16 Civil Making water connection in Amul Parlour Canteen at Diamond Hostel. 19/08/2015 15:00 1439922600
M-501005-15-16 Purchase Supply & Installation of Digital Direct Shear Apparatus with accessories 18/08/2015 15:00 1439836200
AM-507005-15-16 Purchase Supply & Installation of Workstation 18/08/2015 15:00 1439836200
App Chem-506008-15-16 Purchase Supply & Installation of UV-Visible Spectrophotometer 18/08/2015 15:00 1439836200
MME-536012-15-16 Purchase Supply & Installation of IGBT Based Nine-Level Cascaded Inverter (Three Phase) 18/08/2015 15:00 1439836200
KEC-538004-15-16 (Reminder) Purchase Setting up dedicated Internet Leased Line of 1:1 unshared 4 Mbps bandwith at ISM Kolkata Extension Centre 18/08/2015 15:00 1439836200
C&F-ISM-Imp-500001-2015-16 Purchase TENDER DOCUMENT FOR CLEARING AND FREIGHT FORWARDING AGENT 14/08/2015 15:59 1439490600
Maint/952034/15-16 Electrical New electrical wiring with s/fixing of electrical accessories for proposed Centre for Enovation, Incubation & Entrepreneurship (CIIF) at Old Health Centre. 12/08/2015 15:00 1439317800
Maint/958088/15-16 Civil Providing and fixing wall tiles in the corridors of Department of Petroleum Engineering 12/08/2015 15:00 1439317800
Maint/958092/15-16 Civil Renovation/modification work in S&P Section at Admin Block 12/08/2015 15:00 1439317800
Maint/958126/15-16 Civil Providing and fixing vertical blind in windows and other necessary allied repair work at DSW Office 12/08/2015 15:00 1439317800
Maint/958134/15-16 Civil Repair/replacement of G.I. pipe valve etc at near 150/qrt GRS and Amber Hostel 12/08/2015 15:00 1439317800
Maint/958141/15-16 Civil Replacement of damaged barbed wire fencing at Qrt. No. N/III/17, N/III/3,H/6,H/7,H/1-15, D/15(o), D/3(o) 12/08/2015 15:00 1439317800
Maint/958149/15-16 Civil Providing and fixing sliding aluminium window in the office room of Dr. Rohit P John and Dr. Sumanta Kumar Padhi 12/08/2015 15:00 1439317800
CC-516005-15-16 Purchase Setting up wireless and wired connectivity 11/08/2015 15:00 1439231400
W-520003-15-16 Purchase Supply & Installation of Ultrasonic Flaw Detector 11/08/2015 15:00 1439231400
App Chem-506006-15-16 Purchase Supply & Installation of Rotary evaporator with vacuum pump, vacuum controller & recirculation chiller 11/08/2015 15:00 1439231400
Mech Engg-537008-15-16 Purchase Supply & Installation of Cylinrical Parabolic Concentrating Solar Collector with all Instrumentations 11/08/2015 15:00 1439231400
Mech Engg-537010-15-16 Purchase Supply & Installation of Magnetic Levitation System 11/08/2015 15:00 1439231400
Chemical-531008-15-16 Purchase Supply & Installation of 1 U Rack Server with Windows Server OS (Make: HP/Dell/IBM/Lenovo) 11/08/2015 15:00 1439231400
Chemical-531006-15-16 Purchase Supply & Installation of High Precision Programmable DC Source-meter with high resolution current, voltage measuring capabilities 11/08/2015 15:00 1439231400
CC-516008-15-16 Purchase Purchase of Vmware-vSphere Standard Academic License 11/08/2015 15:00 1439231400
Chemical-531007-15-16 Purchase Supply & Installation of Gas Chromatograph with FID and TCD 11/08/2015 15:00 1439231400
INST-525010-15-16 Purchase Supply & Installation of Battery for 15KVA UPS (On buy back basis) 11/08/2015 15:00 1439231400
CC-516006-15-16 Purchase Supply & Installation of IBM Blade Server 11/08/2015 15:00 1439231400
CMU-519001-15-16 Purchase Supply & Installation of Submersible & monosump motors with pump 11/08/2015 15:00 1439231400
AGL-503001-15-16 Purchase Supply & Installation of 27 inch LED Monitor for Workstation (Desktop) 11/08/2015 15:00 1439231400
AGP-504012-15-16 Purchase Purchase of Geosoft Advanced Research License and GMSYS 3D 11/08/2015 15:00 1439231400
Maint/958118/15-16 Civil Repair and maintenance work at vacant Qrt. No. C/6 11/08/2015 15:00 1439231400
Maint/958119/15-16 Civil Providing and fixing PVC O.H. water tank front wing right side at Opal Hostel 11/08/2015 15:00 1439231400
Maint/958122/15-16 Civil Making Septic tank & soak pit at Qrt. No. C/5-6 11/08/2015 15:00 1439231400
Maint/958127/15-16 Civil Repair of C.I./G.I. pipe valve at near PH No.-1 O.H. tank beside GH-1 11/08/2015 15:00 1439231400
Maint/958130/15-16 Civil Repair of broken boundary wall in the ring road beside New Petroleum Department at ISM Campus 11/08/2015 15:00 1439231400
Maint/958137/15-16 Civil Minor civil repair work at Qrt. No. II/22 11/08/2015 15:00 1439231400
Maint/958139/15-16 Civil M.S. Iron fencing for net practice facility at Upper Ground 11/08/2015 15:00 1439231400
Maint/958143/15-16 Civil Minor civil repair/replacement work at Old Research Scholar Hostel (Opal Hostel Annex) 11/08/2015 15:00 1439231400
Maint/958145/15-16 Civil Repair work at toilet in Emerald Hostel 11/08/2015 15:00 1439231400
Maint/958150/15-16 Civil Fixing of granite top of working table at polymer Chemistry Lab at Applied Chemistry 11/08/2015 15:00 1439231400
App Chem-506005-15-16 Purchase Supply & Installation of Nanoparticle Size Analyzer 07/08/2015 15:00 1438885800
Mech Engg-537009-15-16 Purchase Supply & Installation of Desktop Workstation with LED Monitor and Accessories 07/08/2015 15:00 1438885800
CC/NETWORK-MAINTENANCE/2015/01 Miscellaneous Maintenance of Campus Wide Network 07/08/2015 15:00 1438885800
M-501007-14-15 Purchase Supply & Installation of Laboratory Rock Specimen Grinder with accessories 07/08/2015 15:00 1438885800
FME-509010-14-15 Purchase Supply & Installation of High Capacity Sieve Shaker 07/08/2015 15:00 1438885800
Maint/952019/15-16 Electrical Replacement of Existing Main Switches & Distribution Panels by new MCCB type control panel at Main Building (Main Entrance). 07/08/2015 15:00 1438885800
Maint/952022/15-16 Electrical Replacement of Existing Main Switches & Distribution Panels by new MCCB type control panel at EDC. 07/08/2015 15:00 1438885800
Maint/952049/15-16 Electrical Wiring with s/installation of light fitting in Chamber of Dr.Sagar Pal, wiring with s/fixing of light fitting……… 07/08/2015 15:00 1438885800
Maint/952051/15-16 Electrical New wiring with s/fixing of electrical accessories in Server Room & UPS Room at Computer Centre. 07/08/2015 15:00 1438885800
Maint/952052/15-16 Electrical S/installation of 160W LED floodlight fittings at Swimming Pool. 07/08/2015 15:00 1438885800
Maint/952053/15-16 Electrical Lowering, lifting & replacement of 05 HP Submersible motor with pump in deep bore near SBI Campus at 150 Type –IV Qtrs. (GRS). 07/08/2015 15:00 1438885800
App Phy-505014-15-16 Purchase Supply & Installation of Newton's ring Apparatus 04/08/2015 15:00 1438626600
M-501004-15-16 Purchase Supply & Installation of Alluminium Cylinder (10 litre Capacity) with gas mixtures 04/08/2015 15:00 1438626600
W-520007-15-16 Purchase Purchase of Laminate (8’x4’1mm) (IS:2046), Stainless Steel Screw ( 19mm x 6mm)' Nails (17 no. 1”),Nails (20 no. 3/4”) and Nails (1.5”) 04/08/2015 15:00 1438626600
W-520008-15-16 Purchase Purchase of Waterproof Block (ply) Board 04/08/2015 15:00 1438626600
W-520004-15-16 Purchase Purchase of M.S. Squre Pipe and M.S. Flat 04/08/2015 15:00 1438626600
W-520005-15-16 Purchase Purchase of Waterproof Block (ply) Board and Synthetic Resin Adhesive 04/08/2015 15:00 1438626600
W-520006-15-16 Purchase Purchase of M.S. Square Pipe (Size: 38 mm x 38 mm x 〖2mm〗_(-0.2)^(+0.0) 20ft. length and Purchase of M.S. Flat (Size: 25 mm x 3 mm) 04/08/2015 15:00 1438626600
App Phy-505016-15-16 Purchase Supply & Installation of AC and DC constant Current Source 04/08/2015 15:00 1438626600
App Phy-505011-15-16 (Reminder) Purchase Supply & installation of Three Axes spatial Filter, Five Axes spatial Filter, Microscope Objective, Mounted Pinhole, Stainless Steel Post, Post holder & Magnetic circular base 04/08/2015 15:00 1438626600
Maint/958046/15-16 Civil Renovation of glove Box room (Ground floor) at Chemistry Department of Science Block 03/08/2015 15:00 1438540200
Maint/958125/15-16 Civil Repair work of common, wash room ( Ground floor) near Academic Section Admin Block 03/08/2015 15:00 1438540200
Maint/958123/15-16 Civil Repair work at toilet at Topaz Hostel 03/08/2015 15:00 1438540200
Maint/958363/14-15 Civil Fixing of new Iron fencing at Tennis wall side and height extension of Iron fencing (backside) of Tennis Court at Sport Complex 03/08/2015 15:00 1438540200
Maint/958121/15-16 Civil Repair of road at Amber Hostel 03/08/2015 15:00 1438540200
Maint/958105/15-16 Civil Renovation work in fluid flow machine laboratory in the department of Mining Machinery Engineering 03/08/2015 15:00 1438540200
Maint/958108/15-16 Civil Re-construction of drain beside GJLT Hall 03/08/2015 15:00 1438540200
Maint/958333/14-15 Civil Modification of fluid mechanics laboratory and sliding glass windows in MD Hall at Mechanical Engineering Department 03/08/2015 15:00 1438540200
AGP-504007-15-16 Purchase Supply & Installation of Robotic Total Station Focus 31/07/2015 15:00 1438281000
App Phy-505013-15-16 Purchase Supply & Installation of He-Ne Lasers and their mounts 31/07/2015 15:00 1438281000
Mech Engg-537007-15-16 Purchase Supply and installation of Desiccant assisted Air - Conditioning System 01 31/07/2015 15:00 1438281000
Misc.-527003-15-16 Purchase Rate Contract for supply of Chemical, Glassware, Plasticware & Filter Papers for the Financial year 2015-2016. 31/07/2015 15:00 1438281000
FME-509005-14-15 (Reminder) Purchase Supply & Installation of Digital Density Meter 31/07/2015 15:00 1438281000
Mech Engg-537007-15-16 Purchase Purchase of Desiccant assisted Air - Conditioning System 31/07/2015 15:00 1438281000
Maint/958101/15-16 Civil Renovation of computational and U/G space Technology Sections in Rock Excavation Laboratory 29/07/2015 15:00 1438108200
Maint/958078/15-16 Civil Renovation of New Coal geophysics Lab (1st floor) at AGP (Annex) Building 29/07/2015 15:00 1438108200
CRF-532001-15-16 (Reminder) Purchase Supply & Installation of Simultaneous TGA/DTA/DSC with EGA analyzer 28/07/2015 15:00 1438021800
EE-529012-15-16 Purchase Supply & Installation of D.C. Servo Motor Kit 05 Nos 28/07/2015 15:00 1438021800
EE-529014-15-16 Purchase Supply & Installation of D.C. Motor Position Control kit 05 Nos 28/07/2015 15:00 1438021800
EE-529015-15-16 Purchase Supply & Installation of Synchro Transmitter/Receiver Kit 05 nos 28/07/2015 15:00 1438021800
EE-529013-15-16 Purchase Supply & Installation of Stepper Motor with Microprocessor Interface Kit 05 Nos 28/07/2015 15:00 1438021800
ISM /Accts/ Students Insurance/2015 -16 Miscellaneous NIT from GOI owned Insurance Companies for Student Insurance policy for year 2015-16 Last Date 27 July, 2015 , 5 PM 27/07/2015 17:00 1437935400
App Chem-506010-13-14 Purchase Supply & Installation of Electro Spining Unit for the production of Nanofiber 01 No 24/07/2015 15:00 1437676200
EE-529011-15-16 Purchase Supply & Installation of Variable Differential Transformer Kit 24/07/2015 15:00 1437676200
EE-529010-15-16 Purchase Supply & Installation of D.C. Motor Speed Control System Kit 05 Nos 24/07/2015 15:00 1437676200
MME-536010-15-16 Purchase Supply & Installation of Desktop Computer and UPS 24/07/2015 15:00 1437676200
PE-50202-15-16 (Reminder) Purchase Supply & Installation of Capillary Pressure Cell 24/07/2015 15:00 1437676200
W-520022-14-15 Purchase Supply & Installation of Air Conditioning System in mini-buses with modification of body of bus 24/07/2015 15:00 1437676200
Maint/952044/15-16 Electrical Procurement of electrical items for Day-to- Day Maintenance. 22/07/2015 15:00 1437503400
Maint/958051/15-16 Civil Aluminium partition work in front of NLHC Computer Lab 22/07/2015 15:00 1437503400
Maint/958060/15-16 Civil Concertina coil fencing at Back side of Jasper Hostel 22/07/2015 15:00 1437503400
Maint/958087/15-16 Civil Providing and fixing Inaugurated stone and other necessary arrangement for Inauguration at Longwall Gallery ISM 22/07/2015 15:00 1437503400
Maint/958103/15-16 Civil Repair/replacement of G.I. pipe, valve Generator House-2, 150 qrt. 40 Nos. beside C/3, flat 23/6, Admin Block near Diamond Hostel, Scolomin Club, PH No.1, Staff Colony and UGC/12-13 22/07/2015 15:00 1437503400
Maint/958104/15-16 Civil Providing and fixing aluminium partition at Rock Excavation Centre of ME Department 22/07/2015 15:00 1437503400
Maint/958107/15-16 Civil Repair/replacement of G.I. pipe line at SAH 22/07/2015 15:00 1437503400
Maint/958112/15-16 Civil Repair work at EDC Building 22/07/2015 15:00 1437503400
CE-535004-15-16 Purchase Supply & Installation of Desktop Computer 05 Nos 21/07/2015 15:00 1437417000
EE-529016-15-16 Purchase Supply & Installation of Temperature Control System Kit 05 Nos 21/07/2015 15:00 1437417000
EE-529009-15-16 Purchase Supply & Installation of A.C. Servo Motor kit 05 Nos 21/07/2015 15:00 1437417000
EE-529008-15-16 Purchase Supply & Installation of Linear Systems Simulator Kit 05 nos 21/07/2015 15:00 1437417000
No. Maint/958393/14-15 Civil Renovation of room no. 18 & 19 (Old Building) at SAH 21/07/2015 15:00 1437417000
Maint/952025/15-16 Electrical Electrical renovation of Coal Geophysics Lab at AGP Annex Building. 20/07/2015 15:00 1437330600
Maint/952042/15-16 Electrical Laying of cable to control the power supply of Upper Ground & Sports Complex from substation - 01 & 03 respectively. 20/07/2015 15:00 1437330600
Maint/952043/15-16 Electrical Wiring with s/fixing of Energy Meters for newly allotted Amul Parlour outlet inside Emerald Hostel & Diamond Hostel, …….. 20/07/2015 15:00 1437330600
Maint/952144/14-15 Electrical S/installation of 5 HP, 8 km audible range siren at New Central Library. 20/07/2015 15:00 1437330600
Maint/952048/15-16 Electrical Replacement of defective 800A MCCB with modification of control panel at Substation no. -01 and Emerald Hostel. 20/07/2015 15:00 1437330600
Sports-523002-15-16 Purchase Supply & Installation of Studio Light and its accessories 17/07/2015 15:00 1437071400
Maint/958070/15-16 Civil Replacement of mirror, glass shelf, sink, health faucet, door etc at N/D-8, Work shop, flat/110 GRS, II/32,II/56, II/69, flat/5, UGC, N/III/9, B/5-68, D/17(old), II/8 Modified, flat/55 GRS 17/07/2015 15:00 1437071400
Maint/958077/15-16 Civil Repair of seepage and finishing with white washing, distempering at flat/33 17/07/2015 15:00 1437071400
Maint/958086/15-16 Civil Repair of leaking roof at Qrt. No. II/12 Modified 17/07/2015 15:00 1437071400
Maint/958096/15-16 Civil White washing, distempering in the vacant Qrt. No. II/27 17/07/2015 15:00 1437071400
Maint/958098/15-16 Civil White washing, distempering work in the Qrt. No. II/44, II/46 & II/10 17/07/2015 15:00 1437071400
Maint/958100/15-16 Civil Repair/re-construction of Drain in front of G.H.-2 at ISM 17/07/2015 15:00 1437071400
AM-507004-15-16 Purchase Supply & Installation of Exide Batteries 12 volt 14/07/2015 15:00 1436812200
ECE-511003-15-16 Purchase Supply & Installation of DC Regulated Power supply 3 Channels -15 Nos 13/07/2015 15:00 1436725800
Maint/958006/15-16 Civil Renovation of garage-II department of applied Geology as Mineral Separation Laboratory 13/07/2015 15:00 1436725800
Maint/958064/15-16 Civil Repair of boundary wall floor at Qrt. No. II/45 to 48 13/07/2015 15:00 1436725800
Maint/958065/15-16 Civil Repair and painting of outer walls of Old EDC Building 13/07/2015 15:00 1436725800
Maint/958083/15-16 Civil Making G.S. corrugated sheet shade in front of Qrt. No. H/11 13/07/2015 15:00 1436725800
Maint/958084/15-16 Civil Minor civil repair work at Qrt. No. E/7 13/07/2015 15:00 1436725800
Maint/958385/14-15 Civil Modification work at Room No. 21,23 & 25 at SAH 13/07/2015 15:00 1436725800
Maint/958080/15-16 Civil Repair & painting of office chamber of Dr. C Halder, Assistant Professor, Dept. of Applied Chemistry 08/07/2015 15:00 1436293800
Maint/958081/15-16 Civil Providing and fixing fly proof net shutter window at backside corridor adjoining kitchen at Jasper Hostel 08/07/2015 15:00 1436293800
Maint/958091/15-16 Civil Minor civil repair/replacement work inside & outside of Canteen Building 08/07/2015 15:00 1436293800
Maint/958093/15-16 Civil Roof treatment work at eastern side Bicycle garage at Sapphire Hostel (Ten Years Guarantee) 08/07/2015 15:00 1436293800
Maint/958094/15-16 Civil Repair & painting of front side of HSS Department 08/07/2015 15:00 1436293800
App Phy-505011-15-16 Purchase Supply & installation of Three Axes spatial Filter, Five Axes spatial Filter, Microscope Objective, Mounted Pinhole, Stainless Steel Post, Post holder and Magnetic circular base 07/07/2015 15:00 1436207400
Maint/911001/KEC/ISM/2015-16 Miscellaneous Administration Management of ISM Extension Centre at Rajarhat, Kolkata requiring Housekeeping, Reception, Room Services, Catering, Laundry Services, General Maintenance, Utility Management & Security Services etc. 07/07/2015 15:00 1436207400
W-520001-15-16 (Extended due date up to 07-07-2015 Purchase Purchase of M.S. Rod and M.S. Flat 07/07/2015 15:00 1436207400
Maint/952024/15-16 Electrical Electrical renovation of Existing Seating Chamber of Dr.S.Yadav to be converted as Glove box room at the Dept. of Applied Chemistry. 03/07/2015 15:00 1435861800
Maint/952032/15-16 Electrical New electrical wiring with s/fixing of electrical accessories for proposed Academic and Exam Section at existing Academic Store Room. 03/07/2015 15:00 1435861800
Maint/952038/15-16 Electrical Laying of cable from Feeder pillar to L.T. Panel and replacement of defective 250A and 320A MCCB in L.T. Panel …….. 03/07/2015 15:00 1435861800
Maint/952039/15-16 Electrical Lowering, lifting & repairing of 05 HP motor with pump at Duck well no. - 04 at Staff Colony. 03/07/2015 15:00 1435861800
Maint/952040/15-16 Electrical Lowering, lifting & repairing of 03 HP Submersible motor with pump and 10 HP Monosump motors at Sump near Emerald Hostel. 03/07/2015 15:00 1435861800
Maint/952041/15-16 Electrical Dismantalling and re - laying of cable for power supply to sump, deep bore near Emerald Hostel, deep bore no. – 04…….. 03/07/2015 15:00 1435861800
Maint/958066/15-16 Civil Renovation of existing dining hall and kitchen along with adjoining part of New Dining Hall at SAH 01/07/2015 15:00 1435689000
Maint/958362/14-15 Civil Renovation of the enhance oil recovery laboratory in PE Department 01/07/2015 15:00 1435689000
Maint/952028/15-16 Electrical S/laying cables and s/installation of Feeder Pillars from JSEB Power Supply for ACs to MME, Mechanical, FME, ESE, MS & CSE Dept. 01/07/2015 15:00 1435689000
Maint/952029/15-16 Electrical Internal wiring for Air – conditioners (ACs) Power Supply to MME, Mechanical Engg., FME, ESE, MS & CSE Dept. 01/07/2015 15:00 1435689000
ISM/DSW/117/Stationery Shop/2015 Miscellaneous Tender for running ISM Stationery Shop including computer typing & printing, photocopying, telephone, fax & internet services in ISM Canteen Building and various Extension Counters in ISM Campus 30/06/2015 15:30 1435602600
Hostel-522003-15-16 Purchase Supply & Installation of Biometric Attendance Device 30/06/2015 15:00 1435602600
INST-525005-15-16 Purchase Supply of 400 pair AJF telephone cable 30/06/2015 15:00 1435602600
Chemical-531003-15-16 Purchase Supply & Installation of Ultrasonic Probe with Generator 30/06/2015 15:00 1435602600
App Phy-505009-15-16 Purchase Supply & Installation of Muffle Furnace with Gas Purging Facility 26/06/2015 15:00 1435257000
KEC-538004-15-16 (Extended Due Date on 26.06.2015) Purchase Setting up dedicated Internet Leased Line of 1:1 unshared 4 Mbps bandwith at ISM Kolkata Extension Centre 26/06/2015 15:00 1435257000
Maint/958015/15-16 Civil Provision of granite floor and wall tiles in the corridors (Ground floor) at Main School Building 24/06/2015 15:00 1435084200
Maint/952019/15-16 Electrical Replacement of Existing Main Switches & Distribution Panels by new MCCB type control panel at Main Building (Main Entrance). 24/06/2015 15:00 1435084200
Maint/952020/15-16 Electrical Replacement of Existing Main Switches & Distribution Panels by new MCCB type control panel beside Mine Ventilation Lab. at the Dept. of ME. 24/06/2015 15:00 1435084200
Maint/952021/15-16 Electrical Replacement of Existing Main Switches & Distribution Panels at SAH. 24/06/2015 15:00 1435084200
Maint/952022/15-16 Electrical Replacement of Existing Main Switches & Distribution Panels by new MCCB type control panel at EDC. 24/06/2015 15:00 1435084200
Maint/952036/15-16 Electrical Wiring with s/fixing of electrical accessories for PA System in Yoga Room at SAC, wiring with s/fixing of electrical accessories for proposed ……….. 24/06/2015 15:00 1435084200
Maint/958004/15-16 Civil Providing and fixing floor tiles of drawing room, dining room, kitchen and fixing of wirenesh at Qrt. No. B/1 24/06/2015 15:00 1435084200
Maint/958085/15-16 Civil White washing in the rooms at Shanti Bhawan 24/06/2015 15:00 1435084200
Maint/958404/14-15 Civil Construction of Kitchen room at Qrt. No. 120/E 24/06/2015 15:00 1435084200
PE-502003-15-16 Purchase Supply & Installation of High Pressure Syringe Pump 23/06/2015 15:00 1434997800
Mech Engg-537003-15-16 Purchase Supply & Installation of Planetary Ball Mill with Standard Accessories 23/06/2015 15:00 1434997800
PE-502002-15-16 Purchase Supply & Installation of Capillary Pressure Cell 23/06/2015 15:00 1434997800
App Phy-505010-15-16 Purchase Supply & Installation of Cryogenic Temperature Controller 23/06/2015 15:00 1434997800
Mech Engg-537005-15-16 Purchase Supply & installation of Abrasive Cutting Machine with start off consumables 23/06/2015 15:00 1434997800
Maint/952145/14-15 Electrical Electrical renovation of Ex-staff sitting room to be converted as Computer Lab-cum-Research Lab at MME Dept. 23/06/2015 15:00 1434997800
Maint/952159/14-15 Electrical Electrical renovation of Room No. - 18 & 19 at SAH. 23/06/2015 15:00 1434997800
Maint/952160/14-15 Electrical Wiring with s/fixing of electrical accessories in Suite No.21,23&25at SAH. 23/06/2015 15:00 1434997800
Maint/952164/14-15 Electrical Electrical renovation of quarter no. Type -V -B1 near main Gate. 23/06/2015 15:00 1434997800
CE-535001-15-16 Purchase Supply & installation of Soil Compaction Apparatus comprising of Universal Automatic Compactor, Apparatus for Light Compaction and Apparatus for Heavy Compaction 19/06/2015 15:00 1434652200
CRF-532002-15-16 Purchase Supply & Installation of Digital Traiaxial System 19/06/2015 15:00 1434652200
App Phy-505006-15-16 Purchase Supply & Installation of Mass Flow Controller 19/06/2015 15:00 1434652200
App Phy-505008-15-16 Purchase Supply & Installation of Laminar Air Flow Cabinet/Chamber 19/06/2015 15:00 1434652200
App Phy-505007-15-16 Purchase Supply & Installation of Portable Transparent Glove Box having side door 19/06/2015 15:00 1434652200
KEC-538001-15-16 (Corrigendum) Purchase Supply of ceiling mounted overhead projectors with audio visual facilities etc at ISM Extension centre, Kolkata 19/06/2015 15:00 1434652200
Maint/958315/14-15 Civil Renovation/modification work in Establishment Section and front corridor at Admin Block 17/06/2015 15:00 1434479400
KEC-538004-15-16 Purchase Setting up dedicated Internet Leased Line of 1:1 unshared 4 Mbps bandwith at ISM Kolkata Extension Centre 16/06/2015 15:00 1434393000
Mech Engg-537002-15-16 Purchase Supply & Installation of Model Shaker (100 N): with power amplifier & stringers 16/06/2015 15:00 1434393000
MME-536005-15-16 Purchase Supply & installation of (1) Setup for Polarity Test on a single phase Transformer (2) Setup for study of different connections of three phase Transformer 16/06/2015 15:00 1434393000
MME-536004-15-16 Purchase Supply & Installation of Setup for speed control of 3 phase Slip ring induction motor by rotor resistance control 16/06/2015 15:00 1434393000
MEE-536006-15-16 Purchase Supply & installation of Setup for different method of starting of 3 phase induction motor 16/06/2015 15:00 1434393000
Maint/952033/15-16 Electrical Lowering, lifting & repairing of 03 HP motor with pump at Deep bore no. 04(in front of Substation -03). 15/06/2015 15:00 1434306600
Maint/952114/14-15 Electrical New wiring with s/fixing of electrical accessories for Biometric Attendance & CCTV at Sapphire, Topaz, Amber, Emerald, Jasper, Diamond, Opal and Ruby Hostels. 15/06/2015 15:00 1434306600
Maint/952115/14-15 Electrical New wiring with s/fixing of electrical accessories at proposed canteen at Diamond Hostel. 15/06/2015 15:00 1434306600
Maint/952128/14-15 Electrical S/installation light fitting/fixture for security purpose at Upper Ground, Lower Ground & Sports Complex. 15/06/2015 15:00 1434306600
Maint/952141/14-15 Electrical Electrical renovation of Establishment Section at Admin Block. 15/06/2015 15:00 1434306600
Maint/952152/14-15 Electrical Replacement of 36W,4’ tube light by 2 X 18W CFL light fitting in Common Rooms (Ground to 5th floor ) at Jasper Hostel. 15/06/2015 15:00 1434306600
Maint/952128/14-15 (Corrigendum) Electrical S/installation light fitting/fixture for security purpose at Upper Ground, Lower Ground & Sports Complex. 15/06/2015 15:00 1434306600
Maint/958063/15-16 Civil Providing and fixing collapsible gate at Amber Hostel Block A&B 1st & 2nd floors 15/06/2015 15:00 1434306600
CRF-532001-15-16 Purchase Supply & Installation of Simultaneous TGA/DTA/DSC with EGA analyzer 12/06/2015 15:00 1434047400
Hostel-522002-15-16 Purchase Supply & Installation of CCTV System for Different Student Hostels of ISM Dhanbad 12/06/2015 15:00 1434047400
M-501003-15-16 Purchase Supply & Installation of Foil Type Strain Gauge, Terminal Tabs and Strain Gauge Adhesive to fix on Rock specimen (Preferably HBM make powder and liquid) 09/06/2015 15:00 1433788200
KEC-538001-15-16 Purchase Supply, installation, testing & commissioning of ceiling mounted overhead projectors with audio visual facilities etc. at ISM Extension Centre, Kolkata 05/06/2015 15:00 1433442600
KEC-538002-15-16 Purchase Supply, installation,configuration and deployment of Wi-Fi equipment at ISM Kolkata Extension Centre 05/06/2015 15:00 1433442600
Maint/958028/15-16 Civil Providing and fixing roofing brick wall grills in the existing passage behind Opal Hostel & Old Research scholar Hostel at ISM Campus 05/06/2015 15:00 1433442600
Maint/958040/15-16 Civil Repair/replacement of G.I. pipe valve etc at Oval Garden Scolomin House, B/2, V/48 qrt, Pump House No.1, SBI Campus 05/06/2015 15:00 1433442600
Maint/958042/15-16 Civil Minor civil repair/replacement work at Qrt. No. Block-7/194, Block-8/114 05/06/2015 15:00 1433442600
Maint/958043/15-16 Civil Replacement of damaged barbed wire fencing at Qrt. No. UGC/13 05/06/2015 15:00 1433442600
Maint/958050/15-16 Civil Minor civil repair work in the garden store of Horticulture department main school building 05/06/2015 15:00 1433442600
Maint/958053/15-16 Civil Repair/maintenance work at Academic Section (Outside) behind the newly constructed office room at Admin Block 05/06/2015 15:00 1433442600
Maint/958056/15-16 Civil Minor civil repair work & replacement of G.I. pipe bamboo garden and in front of Library 05/06/2015 15:00 1433442600
Maint/958058/15-16 Civil Minor civil repair work at Qrt. No. III/C-140 05/06/2015 15:00 1433442600
Maint/958061/15-16 Civil Providing and fixing of display of Centre Name for CIIE 05/06/2015 15:00 1433442600
Maint/958373/14-15 Civil Making granite tap working platform with cupboard and aluminium partition at Slurry Transportation Lab at ME Department 05/06/2015 15:00 1433442600
Maint/958052/15-16 Civil Construction of Rain water recharge pit in R&D Project at Bastacola area of BCCL 05/06/2015 15:00 1433442600
AGL-503014-13-14 Purchase Supply & installation of Thin Section Sample Bonding Fixture 02/06/2015 15:00 1433183400
No.ISM /Accts/ Students Insurance/2015 -16 Miscellaneous NIT for Student Insurance policy for year 2015-16. 29/05/2015 17:14 1432837800
ISM-Accts-Students_Insurance-2015-16 (Revised) Purchase Student Insurance policy for year 2015-16 29/05/2015 17:00 1432837800
Maint/952017/15-16 Electrical Repairing of defective cable from Substation – 01 to Science Block, RG Bungalow, Teachers Colony, Ruby Hostel, UGC Colony, near Main Canteen, Laying ………. 27/05/2015 15:00 1432665000
Maint/952018/15-16 Electrical Wiring with s/fixing of electrical accessories in Lab of Dr. S. K. Sahu at the Dept. of Applied Chemistry, Chamber of Sri Sahendra Singh at the ……. 27/05/2015 15:00 1432665000
Maint/958027/15-16 Civil Repair of approach road Inside SBI/Campus ISM Branch ISM 27/05/2015 15:00 1432665000
Maint/958036/15-16 Civil Roof treatment work (10 years guarantee) at extension part of Academic Section in Admin Block 27/05/2015 15:00 1432665000
Maint/958045/15-16 Civil Providing and fixing M.S. net at windows (2nd floor) back wing at Emerald Hostel 27/05/2015 15:00 1432665000
Maint/958360/14-15 Civil Renovation of existing staff room for conversion into Computer Lab cum Research Lab at MME 27/05/2015 15:00 1432665000
Maint/958395/14-15 Civil Providing and fixing flush door shutters in block B and Block C at Amber Hostel 27/05/2015 11:00 1432665000
AGP-504001-15-16 Purchase Supply Installation of Plotter (Multifunction Printer) 01 No 26/05/2015 15:00 1432578600
MME-536001-15-16 Purchase Supply & installation of Electrical Instrumets for Electrical Laboratory 26/05/2015 15:00 1432578600
MME-536002-15-16 Purchase Supply & Installation of Displacement Sensor 26/05/2015 15:00 1432578600
EE-529017-14-15 Purchase Supply & installation of Electrmeter With IEEE-488,USB to GPIB Interface Adapter and High Performance Matching Probe Kit 22/05/2015 15:00 1432233000
Maint/958010/15-16 Civil Maintenance work of three office chamber of Dr. Rohit P. John, Dr. S.K.Sahu, Dr. S.K.Padhi at Science Block 20/05/2015 15:00 1432060200
Maint/958011/15-16 Civil Minor civil repair work at SAH Old Building ISM Campus 20/05/2015 15:00 1432060200
Maint/958013/15-16 Civil Replacement of damaged liquid soap contain at SAH 20/05/2015 15:00 1432060200
Maint/958022/15-16 Civil Providing and fixing steel sink and other necessary allied works at Newly constructed office room at Academic Section Admin Block 20/05/2015 15:00 1432060200
Maint/958029/15-16 Civil Repair/replacement of G.I. pipe, glass shelf, sink, tap, cistern, shower at Diamond Hostel, C2/15,D/38(old) 20/05/2015 15:00 1432060200
Maint/958402/14-15 Civil Repair work at SAH ( New Building). 20/05/2015 15:00 1432060200
EE-529001-15-16 Purchase Supply & Installation of Two channel Digital Storage Oscilloscope (200 Mhz) 15/05/2015 15:00 1431628200
EE-529002-15-16 Purchase Supply & Installation of Temperature Controlled Hot Air Oven 01 No 15/05/2015 15:00 1431628200
EE-529005-15-16 Purchase Purchase of Precision Weighing Scale 01 No 15/05/2015 15:00 1431628200
EE-529003-15-16 Purchase Supply & installation of Two Channel Arbitrary Function Generator 15/05/2015 15:00 1431628200
EE-529004-15-16 Purchase Supply & installation of Programmable DC Power Supply 03 Nos 15/05/2015 15:00 1431628200
EE-529006-15-16 Purchase Supply & installation of Three Phase Power Analyzer & 200A AC current clamps 15/05/2015 15:00 1431628200
Hostel-522001-15-16 Purchase Supply & Installation of Water storage cooler cum purifier 08 Nos 15/05/2015 15:00 1431628200
Corrigendum Maint/958281/14-15 Civil Providing and fixing wiremesh wooden shutter for doors/ windows at SAH (Old & New) 15/05/2015 15:00 1431628200
No.700081/Security/ C.A. /15 Miscellaneous Tender document for security services inside ISM campus Last date 12.05.2015 12/05/2015 15:00 1431369000
AM-507002-15-16 Purchase Supply & Installation of HPC Workstation 01 No 12/05/2015 15:00 1431369000
AM-507001-15-16 Purchase Purchase of All in One Desktop 20 Nos 12/05/2015 15:00 1431369000
Maint/958025/15-16 Civil Providing and fixing precoated galvanized Iron profile sheet roofing in the courtyard of ‘H’ type quarter at ISM Campus 11/05/2015 16:00 1431282600
Maint/952010/15-16 Electrical Wiring with s/fixing of electrical accessories, shifting of power points & internet points, s/installation of wall mounting …….. 11/05/2015 15:00 1431282600
Maint/952011/15-16 Electrical Wiring with s/fixing of Energy Meters for newly alloted Amul Parlour outlet inside Sapphire Hostel Garage/Cycle Stand(North Side) and Amber Hostel. 11/05/2015 15:00 1431282600
Maint/952013/15-16 Electrical Lowering, lifting & repairing of pump at Director Bungalow and Sump no - 01, repairing of starter & replacement of defective accessories of …… 11/05/2015 15:00 1431282600
Maint/952014/15-16 Electrical Replacement of defective geysers in Room no. - 01, 06 and 18 at SAH. 11/05/2015 15:00 1431282600
Maint/952015/15-16 Electrical Annual electrical repair & maintenance of Staff Hostel behind Opal Hostel. 11/05/2015 15:00 1431282600
Maint/952016/15-16 Electrical Wiring with s/fixing of Energy Meters for newly alloted Canteen inside Sapphire Hostel Garage/Cycle Stand(North Side). 11/05/2015 15:00 1431282600
Maint/958025/15-16 Civil Providing and fixing precoated galvanized Iron profile sheet roofing in the courtyard of ‘H’ type quarter at ISM Campus 11/05/2015 15:00 1431282600
Maint/958014/15-16 Civil Repair work at Sapphire Hostel 05/05/2015 15:00 1430764200
Maint/958016/15-16 Civil Repair and maintenance work at Ruby Hostel 1,2,Annex-I,II, Shanti Bhawan, PG/3-4 at ISM Campus 05/05/2015 15:00 1430764200
Maint/958017/15-16 Civil A/R & maintenance work (Inside) at Diamond Hostel 05/05/2015 15:00 1430764200
Maint/958018/15-16 Civil Repair work at Jasper Hostel 05/05/2015 15:00 1430764200
Maint/958019/15-16 Civil A/R and maintenance work (Inside) at Opal Hostel 05/05/2015 15:00 1430764200
Maint/958024/15-16 Civil Repair work at Amber Hostel 05/05/2015 15:00 1430764200
Maint/958003/15-16 Civil Minor civil repair/replacement work at Qrt. No. B/1 05/05/2015 15:00 1430764200
Hostel-522020-14-15 Purchase Stitching & Supply of Student Blazer for the Academic year 2015- 2016 (2275 Nos.) 01/05/2015 15:00 1430418600
M-501023-14-15 Purchase Supply & Installation of Thermal Property Analyser 01/05/2015 15:00 1430418600
INST-525079-14-15 Purchase Printing and Supply of Academic Diary 2015-2016 - 8000 Pcs 01/05/2015 15:00 1430418600
Maint/952002/15-16 Electrical Annual electrical repair & maintenance of Sapphire Hostel. 29/04/2015 15:00 1430245800
Maint/952003/15-16 Electrical Annual electrical repair & maintenance of Topaz Hostel. 29/04/2015 15:00 1430245800
Maint/952004/15-16 Electrical Annual electrical repair & maintenance of Amber Hostel. 29/04/2015 15:00 1430245800
Maint/952005/15-16 Electrical Annual electrical repair & maintenance of Emerald Hostel. 29/04/2015 15:00 1430245800
Maint/952006/15-16 Electrical Annual electrical repair & maintenance of Jasper Hostel. 29/04/2015 15:00 1430245800
Maint/952007/15-16 Electrical Annual electrical repair & maintenance of Diamond Hostel. 29/04/2015 15:00 1430245800
Maint/952008/15-16 Electrical Annual electrical repair & maintenance of Opal Hostel. 29/04/2015 15:00 1430245800
Maint/952009/15-16 Electrical Annual electrical repair & maintenance of Ruby -1, 2, Ruby Annex -1, 2, 3, & 4 and Shanti Bhawan. 29/04/2015 15:00 1430245800
Maint/952077/14-15 Electrical S/laying of cable from feeder pillar to vertical DB and wiring with s/fixing of electrical accessories for ACs power from JSEB supply only to Main Building. 29/04/2015 15:00 1430245800
Maint/958281/14-15 Civil Providing and fixing wiremesh wooden shutter for doors/ windows at SAH (Old & New) 29/04/2015 15:00 1430245800
AGL-503016-14-15 (Reminder) Purchase Supply & installation of P-wave shear transducer 04 nos 28/04/2015 15:00 1430159400
Maint/958005/15-16 Civil A/R and maintenance (Outside) at SAH old Building 28/04/2015 15:00 1430159400
Maint/958007/15-16 Civil A/R and maintenance work at Old Research Schoolar Hostel behind Opal Hostel 28/04/2015 15:00 1430159400
Maint/958008/15-16 Civil A/R and maintenance work (Inside) at Topaz Hostel 28/04/2015 15:00 1430159400
Maint/958009/15-16 Civil A/R and maintenance work (Inside) at Emerald Hostel 28/04/2015 15:00 1430159400
Maint/958398/14-15 Civil Distempering, painting and minor civil repair work at vacant Qrt. No. flat/09 (48 Qrts) 28/04/2015 15:00 1430159400
Hostel-522019-14-15 Purchase Supply of Neck Ties with ISM Logo to be woven as the body of the Tie 28/04/2015 15:00 1430159400
Maint/952122/14-15 Electrical Electrical renovation of Ex - Office Dean (R&D) to be converted as Conference Room at Admin Block. 22/04/2015 15:00 1429641000
Maint/952163/14-15 Electrical Wiring with s/fixing of electrical accessories, s/installation of light fitting & wall mounting fan in the Chamber of Dr.S.K.Padhi, ……. 22/04/2015 15:00 1429641000
Maint/958397/14-15 Civil Repair work at (1st floor) urinal space at ME Department at Main School Building 22/04/2015 15:00 1429641000
Maint/958399/14-15 Civil P/F aluminium sliding net shutter in sky light at Room No. 5 (Ground floor) Old Lecture Hall Complex 22/04/2015 15:00 1429641000
Maint/958400/14-15 Civil Minor civil repair/replacement work at Qrt. No. E/18 22/04/2015 15:00 1429641000
AGL-503014-13-14 (Reminder) Purchase Supply & installation of Thin Section Sample Bonding Fixture 01 No 21/04/2015 15:00 1429554600
CRF-532008-14-15 (Reminder) Purchase Supply & Installation of Online Gas Analyzer 21/04/2015 15:00 1429554600
CE-535050-14-15 Purchase Supply & installation of Febricated Shake Table 01 No 17/04/2015 15:00 1429209000
Maint/958228/14-15 Civil Replacement of all doors and provision of door closer mortice lock for each door at IEDC Annexe 10/04/2015 15:00 1428604200
Maint/958312/14-15 Civil Re-modeling two large halls for office chamber of DSW,ADSW, DR(SW&I) and Staff of DSW office on top floor of SAC Building 10/04/2015 15:00 1428604200
App Phy-505050-14-15 Purchase Supply & Installation of Muffle Furnace 01 No 07/04/2015 15:00 1428345000
App Phy-505049-14-15 Purchase Supply & Installation of Fume Hood 01 No 07/04/2015 15:00 1428345000
ESE-513025-14-15 Purchase Supply & installation of Rotary shaker cum incubator 01 No 07/04/2015 15:00 1428345000
Maint/958386/14-15 Civil A/R and maintenance of old health centre for establishing centre for Innovation, Incubation and Entrepreneurship (CIIE) at ISM 07/04/2015 15:00 1428345000
Maint/958387/14-15 Civil Distempering & painting work in the vacant Qrt. No. Block/3-45, Block/7-104 07/04/2015 15:00 1428345000
Maint/958388/14-15 Civil Repair of broken wall behind II/Qrt. at Staff Colony 07/04/2015 15:00 1428345000
Maint/958401/14-15 Civil Repair of broken parapet wall/cornice of Qrt. No. C/39,C/44 07/04/2015 15:00 1428345000
Maint/958389/14-15 Civil Repair of bathrooms with fitting at Scolomin Club at ISM Campus 07/04/2015 15:00 1428345000
Maint/958367/14-15 Civil Providing and fixing wash basin & water cooler foundation for relocation the same in front stair on the ground floor at PE Department 07/04/2015 15:00 1428345000
Maint/958384/14-15 Civil Geyser connection in wash room near Backside corridor at Amber Hostel 07/04/2015 15:00 1428345000
AGL-503016-14-15 Purchase Supply & installation of P-wave shear transducer 04 Nos 03/04/2015 15:00 1427999400
ECE-511010-14-15 Purchase Supply & installation of Exide make, maintanace free 100 Ah/12 Volt UPS Battery for 10 KVA Online UPS (on buy-back scheme) 03/04/2015 15:00 1427999400
MS-510002-14-15 Purchase Supply & installation of Microsoft Office Professional Plus 2013 Single Academic OLP - 40 license users (with Installation) - 40 license users 31/03/2015 15:00 1427740200
AGL-503004-14-15 Purchase Supply & Installation of Desktop Computer 01 No 31/03/2015 15:00 1427740200
AGL-503013-14-15 (Reminder) Purchase Supply & Installation of Student Binocular Polarizing Microscope Under Transmitted Reflected Light including Studies under oil Immersion lens 31/03/2015 15:00 1427740200
Corrigendum- Maint/952151/14-15 Electrical Servicing/repairing/refilling of gas and replacement of defective accessories etc. for AC Plant at GJLT. 30/03/2015 15:00 1427653800
Maint/952162/14-15 Electrical Wiring with s/fixing of Energy Meters for newly allotted Nescafe stall at Jasper Hostel(1st floor, Block - A), s/installation of light fitting …….. 30/03/2015 15:00 1427653800
W-520020-14-15 Purchase Purchase of Bead Half Round 1", Synthetic Resin Adhesive, Stainless Steel Screw (19mm x 6mm) and Nails (17 no. 3/4") 24/03/2015 15:00 1427135400
W-520018-14-15 Purchase Purchase of M.S Flat, Red Oxide, Paint and Welding Rod 24/03/2015 15:00 1427135400
W-520019-14-15 Purchase Purchase of M.S. Round Pipe 24/03/2015 15:00 1427135400
W-520017-14-15 Purchase Purchase of M.S Angles (Size: 40mmx40mmx3mm) 24/03/2015 15:00 1427135400
W-520021-14-15 Purchase Purchse of Block (Ply) Board (IS:1659) (Size: 7' x 3' x19mm) 24/03/2015 15:00 1427135400
Maint/952157/14-15 Electrical Procurement of Carpentry items for day-to-day Civil Maintenance work. 18/03/2015 15:00 1426617000
Maint/952158/14-15 Electrical Procurement of Water Supply items for day-to-day Civil Maintenance work. 18/03/2015 15:00 1426617000
Re-Tender Maint/958334/14-15 Civil Roof treatment work of toilet & bathroom attached with 250 KVA DG Set Room at Substation-1 (Ten Years Guarantee) 18/03/2015 15:00 1426617000
Corrigendum Maint/958358/14-15 Civil Providing and fixing aluminium window with distempering at Office Room of Dr. L.A. Kumaraswamidhas, MME Department 18/03/2015 15:00 1426617000
Maint/952148/14-15 Electrical Wiring with s/fixing of electrical accessories for UPS in Office at the Dept. of ESE, New Office Chamber of Sri Ajit Kumar(Room no. - 310) at the Dept. of MME, ……. 16/03/2015 15:00 1426444200
Maint/952149/14-15 Electrical Wiring with s/fixing of Energy Meters for newly allotted canteen inside Ruby Annexe - II Hostel. 16/03/2015 15:00 1426444200
Maint/952150/14-15 Electrical Repairing of street lights/flood lights and other miscellaneous works inside ISM Campus. 16/03/2015 15:00 1426444200
Maint/952151/14-15 Electrical Servicing/repairing/refilling of gas and replacement of defective accessories etc. for AC Plant at GJLT. 16/03/2015 15:00 1426444200
Maint/952153/14-15 Electrical S/installation of 1 HP Pump & light fittings at RG Bungalow. 16/03/2015 15:00 1426444200
Maint/952154/14-15 Electrical Lowering, lifting, repairing of 15 HP Pump, replacement of defective starter at Sump no. - 01, repairing of starter at Sump no - 01, Deep bore no - 01 & Garden of MME Dept. 16/03/2015 15:00 1426444200
Maint/952155/14-15 Electrical Lighting arrangement at Park near Academic Complex. 16/03/2015 15:00 1426444200
PE-502019-14-15 Purchase Supply & Installation of Automated Mercury Porosimeter 13/03/2015 15:00 1426185000
AGL-503014-13-14 (Re tender) Purchase Supply & installation of Thin Section Sample Bonding Fixture 01 No 13/03/2015 13:00 1426185000
Maint/958290/14-15 Civil Height extension upto 3’ of existing boundary wall by concertina coil front side of Sapphire and in between Topaz and Sapphire Hostel 11/03/2015 15:00 1426012200
Maint/958306/14-15 Civil Construction of bathroom with G.I. sheet roof at Qrt. No. Type II/V-3 11/03/2015 15:00 1426012200
Maint/958359/14-15 Civil Repair work at Admin Block 11/03/2015 15:00 1426012200
Maint/958361/14-15 Civil Providing and fixing flush door shutters at CSE Department 11/03/2015 15:00 1426012200
Maint/958378/14-15 Civil Repair of toilet in Rock Excavation Centre 11/03/2015 15:00 1426012200
Maint/958379/14-15 Civil Repair of broken boundary wall at SAH 11/03/2015 15:00 1426012200
Maint/958380/14-15 Civil Minor civil repair/replacement work at Qrt. No. UGC/19 11/03/2015 15:00 1426012200
Maint/958377/14-15 Civil Painting of Rooms (1 to 15) & suit (4 Nos.) at (New Building) in SAH 11/03/2015 15:00 1426012200
CRF-532008-14-15 Purchase Supply & Installation of Online Gas Analyzer 03/03/2015 15:00 1425321000
ECE-511007-14-15 Purchase Supply & Installation of Dual Chamber PVD (RF/DC Sputtering, Thermal & E-Beam Evaporation) System 03/03/2015 15:00 1425321000
AGL-503013-14-15 Purchase Supply & Installation of Student Binocular Polarizing Microscope Under Transmitted Reflected Light including Studies under oil Immersion lens 03/03/2015 15:00 1425321000
App Chem-506019-14-15 Purchase Supply & installation of 3.0 watt Diode laser (Wavelenght:976nm) 03/03/2015 15:00 1425321000
ESE-513022-14-15 Purchase Supply & installation of All in one Computer 05 Nos 03/03/2015 15:00 1425321000
Civil Engg-535047-14-15 Purchase Supply & Installation of Hydraulic Cyclic Loading System 03/03/2015 15:00 1425321000
App Chem-506016-14-15 (Reminder) Purchase Supply & Installation of 400 Mhz NMR instruments with five years maintenance 03/03/2015 15:00 1425321000
ISM/Accts/StudentsInsurance/2014-15 Purchase COVERAGE OF STUDENT INSURANCE FOR THE ACADEMIC YEAR 2015-16 28/02/2015 17:00 1425061800
App phy-505048-14-15 Purchase Supply & installation of Portable Handheld Potentiostat Galvanostat along with screen printed electrodes and other accessoies 27/02/2015 15:00 1424975400
App.Math-507005-14-15 Purchase Supply & Installation of All in Computer - 20 nos., HPC Workstation – 01 no. & Duplex Laser jet printer – 02 nos. 27/02/2015 15:00 1424975400
AGL-503004-14-15 (Re -Tender) Purchase Supply & installation of Desktop Computer 01 No. 27/02/2015 15:00 1424975400
Maint/952138/14-15 Electrical Procurement of Water Supply items for day-to-day Civil Maintenance work. 27/02/2015 15:00 1424975400
MME-536019-14-15 Purchase Supply & Installation of Thermal Imager 27/02/2015 12:05 1424975400
Maint/952139/14-15 Electrical Wiring with s/fixing of electrical accessories in HOD Chamber at the Dept. of Applied Chemistry, Room no. - 15 at OLHC(Dept.of Applied Math), New DSW ……. 25/02/2015 15:00 1424802600
Maint/952140/14-15 Electrical Replacement of defective cable at State Bank of India, ISM Campus Branch. 25/02/2015 15:00 1424802600
Maint/952142/14-15 Electrical Wiring with s/fixing of electrical accessories in 02 no. of class room, Gallery Hall - I & II, Fluid Mechanics & Fluid Machine Lab, …….. 25/02/2015 15:00 1424802600
Maint/952143/14-15 Electrical Replacement of Existing Main Switches & old motor starter by new motor starter control panel at Deep bore no. - 01 near Ruby Hostel. 25/02/2015 15:00 1424802600
Maint/952146/14-15 Electrical S/installation of 15 HP Starter in Fluid Flow Lab at the Dept. of MME and Repairing of Starter & replacement of its defective accessories …….. 25/02/2015 15:00 1424802600
Maint-952076-14-15 Electrical S/laying of cable and s/installation of feeder pillar from feeder pillar -02 to feeder pillar -04 for ACs power from JSEB supply only to Main Building. 25/02/2015 15:00 1424802600
Maint/958374/14-15 Civil Minor civil work at Heritage ALLEY (behind Diamond Hostel) 25/02/2015 15:00 1424802600
App Phy-505047-14-15 Purchase Supply & Installation of Computational workstation - 01 No. 24/02/2015 15:00 1424716200
App Phy-505042-14-15 Purchase Supply & installation of Cryogenic Temperature Controller 24/02/2015 15:00 1424716200
ESE-513019-14-15 Purchase Supply & installation of Peristaltic Pump 24/02/2015 15:00 1424716200
Mech Engg-537019-14-15 Purchase Supply & installation of Force Measuring Device 01 No 24/02/2015 15:00 1424716200
Maint/958334/14-15 Civil Roof treatment work of toilet & bathroom attached with 250 KVA DG Set Room at Substation-1 (Ten Years Guarantee) 24/02/2015 15:00 1424716200
Maint/958344/14-15 Civil Repair/reconstructing at boundary wall making plinth protection replacement of PVC O.H. tank and replacement of broken glass pans at SBI/ISM Branch at ISM Campus 24/02/2015 15:00 1424716200
Maint/958353/14-15 Civil Repair of road adjoining culvert back side of Jasper Hostel 24/02/2015 15:00 1424716200
Maint/958356/14-15 Civil Making brick partition wall, door, window in the store for sitting arrangement of Staff at CMU 24/02/2015 15:00 1424716200
Maint/958358/14-15 Civil Providing and fixing aluminium window with distempering at Office Room of Dr. L.A. Kumaraswamidhas, MME Department 24/02/2015 15:00 1424716200
Maint/958368/14-15 Civil Replacement of PVC tank and cleaning of 011 tank at NLHC 24/02/2015 15:00 1424716200
Maint/958369/14-15 Civil Distempering and painting wash in the vacant Qrt. No. Block-3/34 & Block-7/99 GR Side 24/02/2015 15:00 1424716200
Maint/958372/14-15 Civil White washing, distempering in the vacant Qrt. No. Block/7-105,Block-7/100,Block-3/36,Block-3/39,Block-3/33 24/02/2015 15:00 1424716200
ESE-513015-14-15 Purchase Supply & installation of Complete set up consisting of Direct DC Power Supply and Digital Oscilloscope - 02 Nos 20/02/2015 15:00 1424370600
CC-516006-14-15 Purchase For participation in Tender Process for Supply & Installation of Wireless Network at ISM 20/02/2015 15:00 1424370600
M-501007-14-15 (Re -Tender) Purchase Purchase of Laboratory Rock Specimen Grinder with accessories-01 set. 20/02/2015 15:00 1424370600
ESE-513017-14-15 Purchase Supply & installation of pH/ORP/EC/TDS/Temp Benchtop Meter - 01 no 20/02/2015 15:00 1424370600
FME-509012-14-15 Purchase Supply & installation of Disc type Pelletizer 01 No 20/02/2015 15:00 1424370600
App Phy-505044-14-15 Purchase Supply & installation of Cryogenic Temperature Controller 01 no 20/02/2015 15:00 1424370600
CC-516009-14-15 Purchase Supply & installation of IP Dome Camera 1080P (full HD) 1no 17/02/2015 15:00 1424111400
AGL-503011-14-15 (Reminder) Purchase Supply & installation of Stereo Microcope with Transmitted & Reflected illumination for Gemology 01 No. 17/02/2015 15:00 1424111400
App Chem-506014-14-15 (Re-Tender) Purchase Purchase of Electrochemical Workstation with Impedance Spectroscopy system 01 No 17/02/2015 15:00 1424111400
M-501018-14-15 Purchase Supply & installation of Desktop Computer - 12 nos 17/02/2015 15:00 1424111400
ESE-513020-14-15 Purchase Supply & installation of Peristaltic Pump 02 Nos 17/02/2015 15:00 1424111400
CC-516008-14-15 Purchase Supply & installation of Multimedia HD Projector With Ceiling Mounting accessories For 3 Projectors 03 No 17/02/2015 11:03 1424111400
ECE-511006-14-15 Purchase Supply & Installation of Digital IC Trainer Kit 50 Nos. 13/02/2015 15:00 1423765800
App Phy-505040-14-15 (Reminder) Purchase Supply & installation of LabView Full development software (Two year Standard Service) with accessories 02 Nos 13/02/2015 15:00 1423765800
INST-525062-14-15 (Reminder) Purchase Supply of Musical Instruments/Equipments like Amplifier, Microphone, etc. make reputed brand 13/02/2015 15:00 1423765800
INST-525063-14-15 (Reminder) Purchase Supply & installation of Supply & Installation of Musical Instruments. make reputed brand 13/02/2015 15:00 1423765800
INST-525065-14-15 (Reminder) Purchase Purchase of Musical Instruments/Equipments like Acoustic Guitar, Electric guitar, etc. of reputed brand 13/02/2015 15:00 1423765800
INST-525064-14-15 (Reminder) Purchase Supply of Equipments like Projector & Musical Instruments (Drum set, Synthesizer) of reputed brand 13/02/2015 15:00 1423765800
CE-535048-14-15 Purchase Supply & Installation of Corrosion Analyser 1No 10/02/2015 15:00 1423506600
INST-525072-14-15 Purchase Gold & Silver Medal 10/02/2015 15:00 1423506600
INST-525073-14-15 Purchase Gold & Silver Medal 10/02/2015 15:00 1423506600
Re-Tender Maint/958228/14-15 Civil Replacement of all doors and provision of door closer mortice lock for each door at IEDC Annexe 09/02/2015 15:00 1423420200
Maint/958297/14-15 Civil P/F collapsible gate & iron case for safety operation of planetary ball mill in Petroleum Department 09/02/2015 15:00 1423420200
Maint/958334/14-15 Civil Roof treatment work of toilet & bathroom attached with 250 KVA DG Set Room at Substation-1 (Ten Years Guarantee) 09/02/2015 15:00 1423420200
Maint/958337/14-15 Civil Repair and maintenance work of Scolomin Club outside of old building and inside/outside of New Building at ISM Campus 09/02/2015 15:00 1423420200
Maint/958338/14-15 Civil Repair of roof with APP (Ten Years Guarantee) at Qrt. No. H/5,II/40,EDC/1 and C/32 09/02/2015 15:00 1423420200
Maint/958339/14-15 Civil Repair/replacement of barbed wire fencing at Qrt. No. D/37(old), C/12a,(W),H/5 at ISM Campus 09/02/2015 15:00 1423420200
Maint/958340/14-15 Civil Re-construction /repair of surface drain at SAH 09/02/2015 15:00 1423420200
Maint/958342/14-15 Civil Repair/replacement of pipe line E type Quarters at Teachers Colony 09/02/2015 15:00 1423420200
Maint/958345/14-15 Civil Provision of water connection for garden infront of Emerald Hostel 09/02/2015 15:00 1423420200
Maint/958352/14-15 Civil Reconstruction of underground drain from Ramdhani Shop to back side of IEDC Building 09/02/2015 15:00 1423420200
PE-502015-14-15 Purchase Purchase of Two Phase Relative Permea Meter 01 No. 06/02/2015 15:00 1423161000
App Chem-506016-14-15 Purchase Purchase of 400 Mhz NMR instruments with five years maintenance 01 no 06/02/2015 15:00 1423161000
AGL-503025-13-14 Purchase Trinocular Polarizing Microscope (orthoscopic and conoscopic) with Transmitted & Reflected Light Illumination System with oil immersion lens, Fluorescence attachment, Scientific Digital Camera, Image Analysis Software & Automatic Point Counting System 06/02/2015 15:00 1423161000
INST-525061-14-15 Purchase Supply & Installation of pulling, fixing and punching of (2x 400 pair) armoured jelly filled (AJF) telephone cable through GI Pipe (4” diameter GI Pipe with wall thickness – 4.5 mm) from telecom centre to EDC Extension Building, ISM Campus. 06/02/2015 15:00 1423161000
CE-535047-14-15 Purchase purchase of Hydraulic Cyclic Loading System 1No 06/02/2015 15:00 1423161000
Maint/952127/14-15 Electrical S/installation additional light fitting/fixture and shifting of pole in Basketball Courts & Tennis Courts at Sports Complex. 04/02/2015 15:00 1422988200
Maint/952128/14-15 Electrical S/installation light fitting/fixture for security purpose at Upper Ground, Lower Ground & Sports Complex ……. 04/02/2015 15:00 1422988200
Maint/952129/14-15 Electrical Lighting arrangement along the footpath from NLHC to SAC. 04/02/2015 15:00 1422988200
Maint/952137/14-15 Electrical Lowering, lifting, repairing of 15 HP Motor and replacement of defective starter at Wall no. 06, repairing of …… 04/02/2015 15:00 1422988200
Maint/958317/14-15 Civil Providing and fixing stainless steel ( grade 304) at stair in adjoining Accounts Section 04/02/2015 15:00 1422988200
Maint/958318/14-15 Civil Replacement of damaged broken PVC O.H. water tank at flat/48 Qrts 04/02/2015 15:00 1422988200
Maint/958321/14-15 Civil Providing and fixing vertical blinds Mine surving computer lab & Mine surving Lab at ME Department 04/02/2015 15:00 1422988200
Maint/958327/14-15 Civil Providing and fixing PVC O.H. water tanks at C/type Qrt. (9 to14) 04/02/2015 15:00 1422988200
Maint/958329/14-15 Civil Shifting of water tank and other necessary allied repair work at Store Room at the Lower Ground 04/02/2015 15:00 1422988200
MME-536011-14-15 Purchase Supply & installation of WinSL 8.1 SNGL OLP NL Acdmc Legalization GetGenuine (Licensed Version) 03/02/2015 15:00 1422901800
MME-536016-14-15 Purchase Purchase of Electronics & Instrumentation Lab Equipments 03/02/2015 15:00 1422901800
CMU-519010-14-15 Purchase Supply & installation of Submersible and Monosump motors with Pump 03/02/2015 15:00 1422901800
CMU-519010-14-15 (CORRIGENDUM) Purchase Supply of Submersible and Monosump Motor with Pump 03/02/2015 15:00 1422901800
AGL-503009-14-15 Purchase Supply & installation of Microsoft Office 2013 (Academic License) for 30 Computers 30/01/2015 15:00 1422556200
Hostel-522012-14-15 Purchase Purchase of Dining Table - 16 nos 30/01/2015 15:00 1422556200
Hostel-522017-14-15 Purchase Supply & installation of Water storage cooler purifier with in-built purification system in one unit with suitable stabilizer - 08 Nos 30/01/2015 15:00 1422556200
MME-536014-14-15 Purchase Supply, Installation and commissioning of the Troque Sensor 01 no 30/01/2015 15:00 1422556200
Mech Engg-537018-14-15 Purchase Supply & installation of Microprocessor based Automatic Bomb Calorimeter (digital) 01 no 30/01/2015 15:00 1422556200
EE-529010-14-15 (Reminder) Purchase Supply & installation of Kit for Study of I.D.M.T. Over Current relay 02 No. 30/01/2015 15:00 1422556200
EE-529011-14-15 (Reminder) Purchase Supply & installation of Kit for Study of Earth Fault Relay 02 nos 30/01/2015 15:00 1422556200
EE-529012-14-15 (Reminder) Purchase Supply & installation of Kit for Study of Percentage Differential Relay 02 Nos 30/01/2015 15:00 1422556200
EE-529013-14-15 (Reminder) Purchase Supply & installation of Kit for DC Network Analyzer 02 Nos 30/01/2015 15:00 1422556200
Maint/952110/14-15 Electrical New wiring with s/fixing of electrical accessories for Faculty Chambers & Research Scholars (AGL Dept.) in Room No. 5 & 6 at OLHC. 28/01/2015 15:00 1422383400
Maint/952111/14-15 Electrical S/installation of 400W metal halide light fitting at Badminton Court of Scolomin Club & Staff Recreation Club. 28/01/2015 15:00 1422383400
Maint/952113/14-15 Electrical New wiring with s/fixing of electrical accessories for Flycatcher Machines at Sapphire, Topaz, Amber, Emerald, Jasper, Diamond, Opal and Ruby Hostels. 28/01/2015 15:00 1422383400
Maint/952117/14-15 Electrical New electrical wiring with s/fixing of electrical accessories in Room No. 17, 18, 19 & 20 for UPS power supply at NLHC. 28/01/2015 15:00 1422383400
Maint/952125/14-15 Electrical S/installation of 1 HP Pump for removing the water and mud from the pool at Main Canteen. 28/01/2015 15:00 1422383400
Maint/952126/14-15 Electrical S/installation of 2 HP Pump with s/laying of G.I. Pipe with accessories in new deep bore at New C.A. Section Building (Dhaiya Gate). 28/01/2015 15:00 1422383400
Maint/952130/14-15 Electrical Wiring and Earthing for Malvern Particle Size Analyser Machine in Room no. - 06 at the Dept. of FME. 28/01/2015 15:00 1422383400
Maint/952131/14-15 Electrical Wiring with s/fixing of electrical accessories in Enhance Oil Recovery Lab at the Dept. of Petroleum Engg., …… 28/01/2015 15:00 1422383400
Maint/952135/14-15 Electrical Replacement of defective 630A online changeover switch at Substation - 03 and repairing of ACB at Substation - 01, 02 & 03. 28/01/2015 15:00 1422383400
Corrigendum Maint/958204/14-15 Civil Construction of boundary wall in 33/11 KV Substation near Topaz Hostel 28/01/2015 15:00 1422383400
M-501017-14-15 (due on 27.01.2015) Purchase Supply & installation of High Performance Ultrabook Workstation 01 no 27/01/2015 15:00 1422297000
Civil Engg-535032-14-15 Purchase Supply & installation of Unconfined Compression Test Apparatus, Motorized 02 No 23/01/2015 15:00 1421951400
Civil Engg-535026-14-15 Purchase Supply & installation of Laboratary vane shear apparatus, Motorized 04 No 23/01/2015 15:00 1421951400
Civil Engg-535029-14-15 Purchase Supply & installation of Seive Analysis Apparatus comprising of Motorized Sieve Shaker with Indian Standard Sieves 23/01/2015 15:00 1421951400
Civil Engg-535031-14-15 Purchase Supply & installation of Consolidation Test Apparatus 02 No 23/01/2015 15:00 1421951400
Maint/952132/14-15 Electrical Hiring of ROW (Right of Way) Consultant(s) / Agency for Facilitating Erection of 33kV Overhead Line Being Laid by DVC from Their Dhanbad Substation to ISM Campus. 23/01/2015 15:00 1421951400
Civil Engg-535030-14-15 Purchase Supply & installation of Laboratary CBR Test apparatus, Motorized 01 No 20/01/2015 15:00 1421692200
Civil Engg-535043-14-15 Purchase Supply & installation of Los Angeles Abrasion Testing Machine With Counter 01 No 20/01/2015 15:00 1421692200
AGL-503011-14-15 Purchase Supply & installation of Stereo Microcope with Transmitted & Reflected illumination for Gemology. 01 No 20/01/2015 15:00 1421692200
Maint/958137/14-15 Civil Renovation/modification of kitchen, toilet, bathroom at Qrt. No. II/B-73 19/01/2015 15:00 1421605800
Maint/958291/14-15 Civil Repair/maintenance of pantry area at MS Department 19/01/2015 15:00 1421605800
Maint/958295/14-15 Civil White washing, distempering work at vacant Qrt. No. Block 8-108, 116 & 100 at G.R.Side (150 Qrts) 19/01/2015 15:00 1421605800
Maint/958296/14-15 Civil White washing, distempering in the vacant Qrt. No. UGC/19 19/01/2015 15:00 1421605800
Maint/958298/14-15 Civil Repair & maintenance work of 250 Kv DG Set room (Inside & Outside) at Substation-1 19/01/2015 15:00 1421605800
Maint/958306/14-15 Civil Construction of bathroom with G.I. sheet roof at Qrt. No. II/V-3 19/01/2015 15:00 1421605800
Maint/958307/14-15 Civil Repair and painting of walls at EDC Building ISM Campus 19/01/2015 15:00 1421605800
Maint/958308/14-15 Civil Providing and fixing for gardening in front of Emerald Hostel 19/01/2015 15:00 1421605800
Maint/958311/14-15 Civil Repair & painting of New Office Chamber in HSS Department which was earlier the GJLT Projector Room 19/01/2015 15:00 1421605800
Maint/958313/14-15 Civil Repair & painting work of the corridor of the Rock Mech. Lab in ME Department 19/01/2015 15:00 1421605800
Maint/958314/14-15 Civil Painting of doors & window of ME Department at Main School Building 19/01/2015 15:00 1421605800
Civil Engg-535040-14-15 Purchase Soil Extraction and Sample Preparation Apparatus comprising ofHydraulic Soil Sample Extruder (Qty -01) Motorized Soil Trimmer (Qty – 01 ) 16/01/2015 15:00 1421346600
Civil Engg-535039-14-15 Purchase Soil Sampling Apparatus comprising of Sampling Augers (Qty – 01 each size and type) Sampling Tubes (Qty – 01 each size and type) Sampling kit (Qty – 01 set) Constant Volume Moulds (Qty – annexur I) 16/01/2015 15:00 1421346600
Civil Engg-535022-14-15 Purchase Concrete Cube mould 16/01/2015 15:00 1421346600
Civil Engg-535028-14-15 Purchase Soil Density Apparatus comprising of Sand Pouring cylinder Core Cutter Relative Density Apparatus # 16/01/2015 15:00 1421346600
ECE-511004-14-15 Purchase Computer System 01 no 16/01/2015 15:00 1421346600
Civil Engg-535027-14-15 Purchase Supply & installation of Swell Pressure Test Apparatus 01 no 16/01/2015 15:00 1421346600
Civil-535045-14-15 Purchase Supply & installation of Crushing Value Apparatus, Aggregate Impact Tester, Density Basket, Buoyancy Balance, Thickness Gauge and Length Gauge 13/01/2015 15:00 1421087400
AGP-504012-14-15 Purchase Supply & installation of Workstation with Monitors 13/01/2015 15:00 1421087400
CSE-528009-14-15 Purchase Supply & installation of Battery 12V-42AH (SMF) With buy back policy – 40 Nos 13/01/2015 15:00 1421087400
Civil Engg-535044-14-15 Purchase Universal Penetrometer Penetration Cone Bitumen Penetration kit Ring and Ball Appatatus Thermometer IP 61C 13/01/2015 15:00 1421087400
Maint/958288/14-15 Civil Modification of Ex-office of Dean (R&D) for Conference Room at Admin Block 13/01/2015 15:00 1421087400
INST-525066-14-15 Purchase Hiring of services for Development and hosting of separate Web-Link 09/01/2015 15:00 1420741800
Civil Engg-535025-14-15 Purchase Supply & Installation of Controlled Curing Tank 01 No. 09/01/2015 15:00 1420741800
AGL-503014-13-14 (Reminder) Purchase Supply & installation of Thin Section Sample Bonding Fixture 01 No 09/01/2015 15:00 1420741800
Maint/958230/14-15 Civil Renovation of hall in the 1st floor of the Petroleum Engineering Building 09/01/2015 15:00 1420741800
Maint/952121/14-15 Electrical Procurement of Carpentry items for day-to-day Civil Maintenance work. 09/01/2015 15:00 1420741800
Maint/958292/14-15 Civil Providing and fixing M.S. grating replacement of leaking sever pipe and site development beside Diamond Hostel 09/01/2015 15:00 1420741800
Maint/958297/14-15 Civil P/F collapsible gate & iron case for safety operation of planetary ball mill in Petroleum Department 09/01/2015 15:00 1420741800
Maint/958300/14-15 Civil P/F wall tiles in (1st & 2nd floor) back side verandah/washing area of Amber Hostel 09/01/2015 15:00 1420741800
Maint/958302/14-15 Civil Providing and fixing G.I. pipe for water connection for garden at New LHC 09/01/2015 15:00 1420741800
Maint/958305/14-15 Civil Repair work at Sapphire Hostel 09/01/2015 15:00 1420741800
Maint/958263/14-15 Civil Constriction of a road (12ft wide) at Substation-3 05/01/2015 15:00 1420396200
Maint/958294/14-15 Civil Repair/remodeling the existing music society rooms into Canteen at Diamond Hostel 05/01/2015 15:00 1420396200
Maint/958299/14-15 Civil P/F steel net fencing and cement concrete on both side road berm in between IEDC and Diamond Hostel 05/01/2015 15:00 1420396200
Maint/958301/14-15 Civil Repair and remodeling of existing triangular garden in front of IEDC 05/01/2015 15:00 1420396200
Maint/958304/14-15 Civil Providing and fixing 40 Nos. of dust bins beside Diamond Hostel 05/01/2015 15:00 1420396200
Civil Engg-535024-14-15 Purchase Supply & installation of Jaw Crusher 01 No. 02/01/2015 15:00 1420137000
Civil Engg-535023-14-15 Purchase Supply & installation of Electric Oven 02 Nos. 02/01/2015 15:00 1420137000
App Phy-505038-14-15 (Reminder) Purchase Fiber Optic CCD Spectrometer 01 no. 02/01/2015 15:00 1420137000
Expression of Interest Civil Hiring of Consultants/consultant agency for CPWD executed work 31/12/2014 15:00 1419964200
App.Phy/505040/14-15 Purchase Supply & installation of LabView Full development software (Two year Standard Service) with accessories - 02 Nos 30/12/2014 15:00 1419877800
App.Phy/505039/14-15 Purchase Supply & installation of NANO Fluid Interferometer 01 No. 30/12/2014 15:00 1419877800
ESE-513011-14-15 Purchase Supply & installation of UV-Visible Spectrophotometer 01 No. 30/12/2014 15:00 1419877800
ESE-513014-14-15 Purchase Supply & installation of Refrigrated Microcentrifuge and -20° C freezer 01 no. 30/12/2014 15:00 1419877800
AGL-503008-14-15 Purchase Supply & installation of Stereo-Zoom Binocular Microscopes - 05 Nos. 30/12/2014 15:00 1419877800
App Chem-506015-14-15 (Reminder) Purchase Purchase of Inert atmosphere Glove box 01 No. 30/12/2014 15:00 1419877800
Maint/952075/14-15 Electrical S/laying of cable and s/installation of feeder pillar from Substation -02 to Main feeder Pillar (FP-02) for ACs power from JSEB supply only to Main Building. 29/12/2014 15:00 1419791400
Maint/958190/14-15 Civil Providing and fixing aluminium fly proof net shutters for door & windows at Dining Halls and messes in Amber Hostel 29/12/2014 15:00 1419791400
Maint/958204/14-15 Civil Construction of boundary wall in 33/11 KV Substation near Topaz Hostel 29/12/2014 15:00 1419791400
Maint/952087/14-15 Electrical New electrical wiring with s/installation of light fitting /fixtures and electrical accessories in Main Lab premises & outside the lab at FME Dept. 29/12/2014 15:00 1419791400
Maint/952118/14-15 Electrical Wiring with s/fixing of electrical accessories in Lab of Dr. Bishwajit Chaudhary, Inorganic/ Organometallic Lab at the Dept. of Applied Chemistry, ……… 29/12/2014 15:00 1419791400
Maint/952119/14-15 Electrical Dismantalling and re- installation of 22 no. of ACs at Science Block and repairing of ACs at different locations. 29/12/2014 15:00 1419791400
Maint/958137/14-15 Civil Renovation/modification of kitchen, toilet, bathroom at Qrt. No. II/B-73 29/12/2014 15:00 1419791400
Maint/958293/14-15 Civil Providing and fixing glass pan & window handle in A&B Block at Amber Hostel 29/12/2014 15:00 1419791400
App.Phy-5050534-14-15 Purchase Supply & installation of Platinum Crucible 1No 26/12/2014 15:34 1419532200
Maint/958273/14-15 Civil Re-construction of under ground drain from Ramdhani Shop to back side of IEDC 24/12/2014 15:00 1419359400
Maint/958277/14-15 Civil Replacement of damaged barbed wire fencing at Qrt. No. D/35, E/13,E/15 24/12/2014 15:00 1419359400
Maint/958282/14-15 Civil Fixing of IRC febric net in the windows of 1st floor back wing of Emerald Hostel 24/12/2014 15:00 1419359400
Maint/958286/14-15 Civil Aluminium partition in Store Room (2nd floor) in PE Department 24/12/2014 15:00 1419359400
Maint/958287/14-15 Civil Making brick dust bin beside heritage Canteen at ISM Campus 24/12/2014 15:00 1419359400
App.Phy/505030/14-15 (Reminder) Purchase Supply & installation of Experimental Setup for the Study of line Spectra of Lithium using constant deviation spectrograph and lamp source (complete setup in all recpect) 23/12/2014 15:00 1419273000
EE-529018-14-15 Purchase Supply & installation of DC Power Supplies 01 No. 23/12/2014 15:00 1419273000
App.Chem-506014-14-15 (Reminder) Purchase purchase of Electrochemical Workstation With Impedance Spectroscopy system - 01 no. 19/12/2014 15:00 1418927400
FME-509010-14-15 Purchase Purchase of High Capacity Sieve Shaker 01 No. 19/12/2014 15:00 1418927400
TEQIP/534009/14-15 Teqip Invitation for Quotations for supply of Goods supply & installation of pin on disc wear measuring machine with data acquisition system 19/12/2014 12:15 1418927400
Maint/958176/14-15 Civil Providing and fixing wire net shutter for door & windows of dining hall of Ruby Hostel Annexe-I & II 17/12/2014 15:00 1418754600
Maint/958210/14-15 Civil Construction of RCC slab with marble top, including aluminium shutter in cupboards in crusher, furnace & flotation Lab (1st floor) in Old FME Department 17/12/2014 15:00 1418754600
Maint/958228/14-15 Civil Replacement of all doors and provision of door closer mortice lock for each door at IEDC Annexe 17/12/2014 15:00 1418754600
Maint/958256/14-15 Civil Raising of boundary wall back side of Type II/Qrts Staff Colony ISM Campus 17/12/2014 15:00 1418754600
Maint/958265/14-15 Civil Repair and maintenance of vacant Qrt. No. Block 7 flat/93, G.R.Side 17/12/2014 15:00 1418754600
Maint/958266/14-15 Civil Roof treatment with APP ( Ten Years Guarantee) at Gymnasium of Diamond Hostel ISM Campus 17/12/2014 15:00 1418754600
Maint/958268/14-15 Civil Providing and fixing grill in all window of all rooms at Diamond Hostel 17/12/2014 15:00 1418754600
Maint/958270/14-15 Civil Extension of kitchen shed (Semi Permanent) and repair of drain plinth protection etc at Main ISM Canteen 17/12/2014 15:00 1418754600
Maint/958271/14-15 Civil Provision for IRC fabric net fencing 2’ height of newly developed garden beside Diamond Hostel 17/12/2014 15:00 1418754600
ECE-511003-14-15 Purchase Purchase of Design, supply, Installation and Validation of Sheilded anechoic Chambar 16/12/2014 15:00 1418668200
AGL-503025-13-14 Purchase Supply & installation Trinocular Polarizing Microscope (orthoscopic and conoscopic) with Transmitted & Reflected Light Illumination System with oil immersion lens, Fluorescence attachment, Scientific Digital Camera, Image Analysis Software & Automatic Poi 16/12/2014 15:00 1418668200
AGL-503014-13-14 Purchase Supply & Installation of Thin Section Sample Bonding Fixture